Time,TemperatureF,DewpointF,PressureIn,WindDirection,WindDirectionDegrees,WindSpeedMPH,WindSpeedGustMPH,Humidity,HourlyPrecipIn,Conditions,Clouds,dailyrainin,SoftwareType,DateUTC
2013-08-03 00:00:00,58.3,35.9,29.94,WSW,248,0.0,0.0,43,0.00,,,0.00,VWS V14.01,2013-08-03 05:00:00,
2013-08-03 00:02:00,58.5,36.1,29.94,WSW,248,0.0,0.0,43,0.00,,,0.00,VWS V14.01,2013-08-03 05:02:00,
2013-08-03 00:04:00,58.5,36.1,29.94,WSW,248,0.0,0.0,43,0.00,,,0.00,VWS V14.01,2013-08-03 05:04:00,
2013-08-03 00:06:00,58.5,36.1,29.94,WSW,248,0.0,0.0,43,0.00,,,0.00,VWS V14.01,2013-08-03 05:06:00,
2013-08-03 00:07:00,58.5,36.1,29.94,WSW,248,0.0,0.0,43,0.00,,,0.00,VWS V14.01,2013-08-03 05:07:00,
2013-08-03 00:08:00,58.5,36.1,29.94,WSW,248,0.0,0.0,43,0.00,,,0.00,VWS V14.01,2013-08-03 05:08:00,
2013-08-03 00:10:00,58.5,36.1,29.94,WSW,248,0.0,0.0,43,0.00,,,0.00,VWS V14.01,2013-08-03 05:10:00,
2013-08-03 00:12:00,58.5,36.1,29.94,WSW,248,0.0,0.0,43,0.00,,,0.00,VWS V14.01,2013-08-03 05:12:00,
2013-08-03 00:14:00,58.5,36.1,29.94,WSW,248,0.0,0.0,43,0.00,,,0.00,VWS V14.01,2013-08-03 05:14:00,
2013-08-03 00:16:00,58.5,36.1,29.94,WSW,248,0.0,0.0,43,0.00,,,0.00,VWS V14.01,2013-08-03 05:16:00,
2013-08-03 00:17:00,58.5,36.1,29.94,WSW,248,0.0,0.0,43,0.00,,,0.00,VWS V14.01,2013-08-03 05:17:00,
2013-08-03 00:18:00,58.5,36.1,29.94,WSW,248,0.0,0.0,43,0.00,,,0.00,VWS V14.01,2013-08-03 05:18:00,
2013-08-03 00:20:00,58.5,36.1,29.94,WSW,248,0.0,0.0,43,0.00,,,0.00,VWS V14.01,2013-08-03 05:20:00,
2013-08-03 00:22:00,58.5,36.7,29.94,SW,225,0.0,0.0,44,0.00,,,0.00,VWS V14.01,2013-08-03 05:22:00,
2013-08-03 00:24:00,58.5,36.7,29.94,SW,225,0.0,0.0,44,0.00,,,0.00,VWS V14.01,2013-08-03 05:24:00,
2013-08-03 00:26:00,58.5,36.7,29.94,SW,225,0.0,0.0,44,0.00,,,0.00,VWS V14.01,2013-08-03 05:26:00,
2013-08-03 00:27:00,58.5,36.7,29.94,SW,225,0.0,0.0,44,0.00,,,0.00,VWS V14.01,2013-08-03 05:27:00,
2013-08-03 00:28:00,58.5,36.7,29.94,SW,225,0.0,0.0,44,0.00,,,0.00,VWS V14.01,2013-08-03 05:28:00,
2013-08-03 00:30:00,58.5,36.7,29.94,SW,225,0.0,0.0,44,0.00,,,0.00,VWS V14.01,2013-08-03 05:30:00,
2013-08-03 00:32:00,58.8,37.0,29.94,SW,225,0.0,0.0,44,0.00,,,0.00,VWS V14.01,2013-08-03 05:32:00,
2013-08-03 00:34:00,58.6,36.8,29.94,SW,225,0.0,0.0,44,0.00,,,0.00,VWS V14.01,2013-08-03 05:34:00,
2013-08-03 00:36:00,58.8,37.0,29.94,SW,225,0.0,0.0,44,0.00,,,0.00,VWS V14.01,2013-08-03 05:36:00,
2013-08-03 00:37:00,58.8,36.4,29.94,WSW,248,0.0,0.0,43,0.00,,,0.00,VWS V14.01,2013-08-03 05:37:00,
2013-08-03 00:38:00,58.8,37.0,29.94,SW,225,0.0,0.0,44,0.00,,,0.00,VWS V14.01,2013-08-03 05:38:00,
2013-08-03 00:40:00,58.8,37.0,29.94,WSW,248,0.0,0.0,44,0.00,,,0.00,VWS V14.01,2013-08-03 05:40:00,
2013-08-03 00:42:00,59.0,36.6,29.94,WSW,248,0.0,0.0,43,0.00,,,0.00,VWS V14.01,2013-08-03 05:42:00,
2013-08-03 00:44:00,59.0,36.6,29.94,WSW,248,0.0,0.0,43,0.00,,,0.00,VWS V14.01,2013-08-03 05:44:00,
2013-08-03 00:46:00,59.0,36.6,29.94,WSW,248,0.0,0.0,43,0.00,,,0.00,VWS V14.01,2013-08-03 05:46:00,
2013-08-03 00:47:00,58.8,36.4,29.94,WSW,248,0.0,0.0,43,0.00,,,0.00,VWS V14.01,2013-08-03 05:47:00,
2013-08-03 00:48:00,59.0,36.6,29.94,WSW,248,0.0,0.0,43,0.00,,,0.00,VWS V14.01,2013-08-03 05:48:00,
2013-08-03 00:50:00,59.0,36.6,29.94,WSW,248,0.0,0.0,43,0.00,,,0.00,VWS V14.01,2013-08-03 05:50:00,
2013-08-03 00:52:00,58.6,36.2,29.94,WSW,248,0.0,0.0,43,0.00,,,0.00,VWS V14.01,2013-08-03 05:52:00,
2013-08-03 00:54:00,58.8,36.4,29.94,WSW,248,0.0,0.0,43,0.00,,,0.00,VWS V14.01,2013-08-03 05:54:00,
2013-08-03 00:56:00,58.6,36.2,29.94,WSW,248,0.0,0.0,43,0.00,,,0.00,VWS V14.01,2013-08-03 05:56:00,
2013-08-03 00:57:00,58.5,36.1,29.91,WSW,248,0.0,0.0,43,0.00,,,0.00,VWS V14.01,2013-08-03 05:57:00,
2013-08-03 00:58:00,58.6,36.2,29.91,WSW,248,0.0,0.0,43,0.00,,,0.00,VWS V14.01,2013-08-03 05:58:00,
2013-08-03 01:00:00,58.6,36.2,29.91,WSW,248,0.0,0.0,43,0.00,,,0.00,VWS V14.01,2013-08-03 06:00:00,
2013-08-03 01:02:00,58.3,35.9,29.91,WSW,248,0.0,0.0,43,0.00,,,0.00,VWS V14.01,2013-08-03 06:02:00,
2013-08-03 01:04:00,58.5,36.1,29.91,WSW,248,0.0,0.0,43,0.00,,,0.00,VWS V14.01,2013-08-03 06:04:00,
2013-08-03 01:06:00,58.3,35.9,29.91,WSW,248,0.0,0.0,43,0.00,,,0.00,VWS V14.01,2013-08-03 06:06:00,
2013-08-03 01:07:00,57.9,35.6,29.91,WSW,248,0.0,0.0,43,0.00,,,0.00,VWS V14.01,2013-08-03 06:07:00,
2013-08-03 01:08:00,58.1,35.7,29.91,WSW,248,0.0,0.0,43,0.00,,,0.00,VWS V14.01,2013-08-03 06:08:00,
2013-08-03 01:10:00,57.9,35.6,29.91,WSW,248,0.0,0.0,43,0.00,,,0.00,VWS V14.01,2013-08-03 06:10:00,
2013-08-03 01:12:00,57.7,35.4,29.94,WSW,248,0.0,0.0,43,0.00,,,0.00,VWS V14.01,2013-08-03 06:12:00,
2013-08-03 01:14:00,57.9,36.2,29.94,WSW,248,0.0,0.0,44,0.00,,,0.00,VWS V14.01,2013-08-03 06:14:00,
2013-08-03 01:16:00,57.7,35.4,29.94,WSW,248,0.0,0.0,43,0.00,,,0.00,VWS V14.01,2013-08-03 06:16:00,
2013-08-03 01:17:00,57.6,35.8,29.94,WSW,248,0.0,0.0,44,0.00,,,0.00,VWS V14.01,2013-08-03 06:17:00,
2013-08-03 01:18:00,57.7,36.0,29.94,WSW,248,0.0,0.0,44,0.00,,,0.00,VWS V14.01,2013-08-03 06:18:00,
2013-08-03 01:20:00,57.6,35.8,29.94,WSW,248,0.0,0.0,44,0.00,,,0.00,VWS V14.01,2013-08-03 06:20:00,
2013-08-03 01:22:00,57.4,35.7,29.94,SW,225,0.0,0.0,44,0.00,,,0.00,VWS V14.01,2013-08-03 06:22:00,
2013-08-03 01:24:00,57.6,35.8,29.94,WSW,248,0.0,0.0,44,0.00,,,0.00,VWS V14.01,2013-08-03 06:24:00,
2013-08-03 01:26:00,57.4,35.7,29.94,SW,225,0.0,0.0,44,0.00,,,0.00,VWS V14.01,2013-08-03 06:26:00,
2013-08-03 01:27:00,57.2,35.5,29.94,SW,225,0.0,0.0,44,0.00,,,0.00,VWS V14.01,2013-08-03 06:27:00,
2013-08-03 01:28:00,57.4,35.7,29.94,SW,225,0.0,0.0,44,0.00,,,0.00,VWS V14.01,2013-08-03 06:28:00,
2013-08-03 01:30:00,57.2,36.1,29.94,SW,225,0.0,0.0,45,0.00,,,0.00,VWS V14.01,2013-08-03 06:30:00,
2013-08-03 01:32:00,57.0,35.9,29.94,SW,225,0.0,0.0,45,0.00,,,0.00,VWS V14.01,2013-08-03 06:32:00,
2013-08-03 01:34:00,57.2,36.1,29.94,SW,225,0.0,0.0,45,0.00,,,0.00,VWS V14.01,2013-08-03 06:34:00,
2013-08-03 01:36:00,57.0,35.9,29.94,SW,225,0.0,0.0,45,0.00,,,0.00,VWS V14.01,2013-08-03 06:36:00,
2013-08-03 01:37:00,56.8,35.7,29.94,SW,225,0.0,0.0,45,0.00,,,0.00,VWS V14.01,2013-08-03 06:37:00,
2013-08-03 01:38:00,56.8,35.7,29.94,SW,225,0.0,0.0,45,0.00,,,0.00,VWS V14.01,2013-08-03 06:38:00,
2013-08-03 01:40:00,56.8,35.7,29.94,SW,225,0.0,0.0,45,0.00,,,0.00,VWS V14.01,2013-08-03 06:40:00,
2013-08-03 01:42:00,56.7,35.6,29.94,WSW,248,0.0,0.0,45,0.00,,,0.00,VWS V14.01,2013-08-03 06:42:00,
2013-08-03 01:44:00,56.8,35.7,29.94,SW,225,0.0,0.0,45,0.00,,,0.00,VWS V14.01,2013-08-03 06:44:00,
2013-08-03 01:46:00,56.7,35.6,29.94,WSW,248,0.0,0.0,45,0.00,,,0.00,VWS V14.01,2013-08-03 06:46:00,
2013-08-03 01:47:00,56.7,36.1,29.94,WSW,248,0.0,0.0,46,0.00,,,0.00,VWS V14.01,2013-08-03 06:47:00,
2013-08-03 01:48:00,56.7,35.6,29.94,WSW,248,0.0,0.0,45,0.00,,,0.00,VWS V14.01,2013-08-03 06:48:00,
2013-08-03 01:50:00,56.7,36.1,29.94,WSW,248,0.0,0.0,46,0.00,,,0.00,VWS V14.01,2013-08-03 06:50:00,
2013-08-03 01:52:00,56.7,36.1,29.94,WSW,248,0.0,0.0,46,0.00,,,0.00,VWS V14.01,2013-08-03 06:52:00,
2013-08-03 01:53:00,56.7,36.1,29.94,WSW,248,0.0,0.0,46,0.00,,,0.00,VWS V14.01,2013-08-03 06:53:00,
2013-08-03 01:54:00,56.7,36.1,29.94,WSW,248,0.0,0.0,46,0.00,,,0.00,VWS V14.01,2013-08-03 06:54:00,
2013-08-03 01:55:00,56.7,36.1,29.94,WSW,248,0.0,0.0,46,0.00,,,0.00,VWS V14.01,2013-08-03 06:55:00,
2013-08-03 01:56:00,56.5,36.0,29.94,WSW,248,0.0,0.0,46,0.00,,,0.00,VWS V14.01,2013-08-03 06:56:00,
2013-08-03 01:57:00,56.5,36.0,29.94,WSW,248,0.0,0.0,46,0.00,,,0.00,VWS V14.01,2013-08-03 06:57:00,
2013-08-03 01:58:00,56.5,36.0,29.94,WSW,248,0.0,0.0,46,0.00,,,0.00,VWS V14.01,2013-08-03 06:58:00,
2013-08-03 01:59:00,56.5,36.0,29.94,WSW,248,0.0,0.0,46,0.00,,,0.00,VWS V14.01,2013-08-03 06:59:00,
2013-08-03 02:00:00,56.5,36.0,29.94,WSW,248,0.0,0.0,46,0.00,,,0.00,VWS V14.01,2013-08-03 07:00:00,
2013-08-03 02:01:00,56.3,35.8,29.94,WSW,248,0.0,0.0,46,0.00,,,0.00,VWS V14.01,2013-08-03 07:01:00,
2013-08-03 02:02:00,56.3,35.8,29.94,WSW,248,0.0,0.0,46,0.00,,,0.00,VWS V14.01,2013-08-03 07:02:00,
2013-08-03 02:03:00,56.3,35.8,29.94,WSW,248,0.0,0.0,46,0.00,,,0.00,VWS V14.01,2013-08-03 07:03:00,
2013-08-03 02:04:00,56.3,35.8,29.94,WSW,248,0.0,0.0,46,0.00,,,0.00,VWS V14.01,2013-08-03 07:04:00,
2013-08-03 02:05:00,56.3,35.8,29.94,WSW,248,0.0,0.0,46,0.00,,,0.00,VWS V14.01,2013-08-03 07:05:00,
2013-08-03 02:06:00,56.3,35.8,29.94,WSW,248,0.0,0.0,46,0.00,,,0.00,VWS V14.01,2013-08-03 07:06:00,
2013-08-03 02:07:00,56.3,35.8,29.94,West,270,0.0,0.0,46,0.00,,,0.00,VWS V14.01,2013-08-03 07:07:00,
2013-08-03 02:08:00,56.3,35.8,29.94,WNW,292,2.7,2.7,46,0.00,,,0.00,VWS V14.01,2013-08-03 07:08:00,
2013-08-03 02:09:00,56.3,35.8,29.94,WNW,292,0.0,0.9,46,0.00,,,0.00,VWS V14.01,2013-08-03 07:09:00,
2013-08-03 02:10:00,56.3,35.8,29.94,WNW,292,0.0,0.9,46,0.00,,,0.00,VWS V14.01,2013-08-03 07:10:00,
2013-08-03 02:11:00,56.3,35.8,29.94,WNW,292,0.0,0.9,46,0.00,,,0.00,VWS V14.01,2013-08-03 07:11:00,
2013-08-03 02:12:00,56.3,35.8,29.94,WNW,292,0.0,0.9,46,0.00,,,0.00,VWS V14.01,2013-08-03 07:12:00,
2013-08-03 02:13:00,56.3,36.3,29.94,NW,315,0.0,0.9,47,0.00,,,0.00,VWS V14.01,2013-08-03 07:13:00,
2013-08-03 02:14:00,56.3,36.3,29.94,NW,315,0.0,0.9,47,0.00,,,0.00,VWS V14.01,2013-08-03 07:14:00,
2013-08-03 02:15:00,56.3,36.3,29.94,NW,315,0.0,0.9,47,0.00,,,0.00,VWS V14.01,2013-08-03 07:15:00,
2013-08-03 02:16:00,56.3,36.3,29.94,NW,315,0.0,0.9,47,0.00,,,0.00,VWS V14.01,2013-08-03 07:16:00,
2013-08-03 02:17:00,56.3,36.3,29.94,NW,315,0.0,0.9,47,0.00,,,0.00,VWS V14.01,2013-08-03 07:17:00,
2013-08-03 02:18:00,56.3,36.3,29.94,NW,315,0.0,0.9,47,0.00,,,0.00,VWS V14.01,2013-08-03 07:18:00,
2013-08-03 02:19:00,56.3,36.3,29.94,NW,315,0.0,0.9,47,0.00,,,0.00,VWS V14.01,2013-08-03 07:19:00,
2013-08-03 02:20:00,56.3,36.3,29.94,NW,315,0.0,0.9,47,0.00,,,0.00,VWS V14.01,2013-08-03 07:20:00,
2013-08-03 02:21:00,56.1,36.2,29.94,NW,315,0.0,0.9,47,0.00,,,0.00,VWS V14.01,2013-08-03 07:21:00,
2013-08-03 02:22:00,56.1,36.2,29.94,NW,315,0.0,0.9,47,0.00,,,0.00,VWS V14.01,2013-08-03 07:22:00,
2013-08-03 02:23:00,56.1,36.2,29.94,NW,315,0.0,0.9,47,0.00,,,0.00,VWS V14.01,2013-08-03 07:23:00,
2013-08-03 02:24:00,55.9,36.0,29.94,NW,315,0.0,0.9,47,0.00,,,0.00,VWS V14.01,2013-08-03 07:24:00,
2013-08-03 02:25:00,55.9,36.0,29.94,NW,315,0.0,0.9,47,0.00,,,0.00,VWS V14.01,2013-08-03 07:25:00,
2013-08-03 02:26:00,55.8,35.8,29.94,NW,315,0.0,0.9,47,0.00,,,0.00,VWS V14.01,2013-08-03 07:26:00,
2013-08-03 02:27:00,55.8,36.4,29.91,NW,315,0.0,0.9,48,0.00,,,0.00,VWS V14.01,2013-08-03 07:27:00,
2013-08-03 02:28:00,55.8,36.4,29.91,NW,315,0.0,0.0,48,0.00,,,0.00,VWS V14.01,2013-08-03 07:28:00,
2013-08-03 02:29:00,55.8,36.4,29.91,NW,315,0.0,0.0,48,0.00,,,0.00,VWS V14.01,2013-08-03 07:29:00,
2013-08-03 02:30:00,55.6,36.2,29.91,NW,315,0.0,0.0,48,0.00,,,0.00,VWS V14.01,2013-08-03 07:30:00,
2013-08-03 02:31:00,55.6,36.2,29.91,NW,315,0.0,0.0,48,0.00,,,0.00,VWS V14.01,2013-08-03 07:31:00,
2013-08-03 02:32:00,55.6,36.2,29.91,NW,315,0.0,0.0,48,0.00,,,0.00,VWS V14.01,2013-08-03 07:32:00,
2013-08-03 02:33:00,55.6,36.2,29.91,NW,315,0.0,0.0,48,0.00,,,0.00,VWS V14.01,2013-08-03 07:33:00,
2013-08-03 02:34:00,55.4,36.1,29.91,NW,315,0.0,0.0,48,0.00,,,0.00,VWS V14.01,2013-08-03 07:34:00,
2013-08-03 02:35:00,55.4,36.1,29.91,NW,315,0.0,0.0,48,0.00,,,0.00,VWS V14.01,2013-08-03 07:35:00,
2013-08-03 02:36:00,55.4,36.1,29.91,NW,315,0.0,0.0,48,0.00,,,0.00,VWS V14.01,2013-08-03 07:36:00,
2013-08-03 02:37:00,55.4,36.1,29.91,NW,315,0.0,0.0,48,0.00,,,0.00,VWS V14.01,2013-08-03 07:37:00,
2013-08-03 02:38:00,55.4,36.1,29.91,NW,315,0.0,0.0,48,0.00,,,0.00,VWS V14.01,2013-08-03 07:38:00,
2013-08-03 02:39:00,55.2,36.4,29.91,NW,315,0.0,0.0,49,0.00,,,0.00,VWS V14.01,2013-08-03 07:39:00,
2013-08-03 02:40:00,55.2,36.4,29.91,NW,315,0.0,0.0,49,0.00,,,0.00,VWS V14.01,2013-08-03 07:40:00,
2013-08-03 02:41:00,55.2,36.4,29.91,West,270,0.0,0.0,49,0.00,,,0.00,VWS V14.01,2013-08-03 07:41:00,
2013-08-03 02:42:00,55.2,36.4,29.94,West,270,0.0,0.0,49,0.00,,,0.00,VWS V14.01,2013-08-03 07:42:00,
2013-08-03 02:43:00,55.2,36.4,29.94,West,270,0.0,0.0,49,0.00,,,0.00,VWS V14.01,2013-08-03 07:43:00,
2013-08-03 02:44:00,55.2,36.4,29.94,West,270,0.0,0.0,49,0.00,,,0.00,VWS V14.01,2013-08-03 07:44:00,
2013-08-03 02:45:00,55.0,36.2,29.94,West,270,0.0,0.0,49,0.00,,,0.00,VWS V14.01,2013-08-03 07:45:00,
2013-08-03 02:46:00,55.0,36.2,29.94,West,270,0.0,0.0,49,0.00,,,0.00,VWS V14.01,2013-08-03 07:46:00,
2013-08-03 02:47:00,55.0,36.2,29.94,West,270,0.0,0.0,49,0.00,,,0.00,VWS V14.01,2013-08-03 07:47:00,
2013-08-03 02:48:00,55.0,36.8,29.94,West,270,0.0,0.0,50,0.00,,,0.00,VWS V14.01,2013-08-03 07:48:00,
2013-08-03 02:49:00,55.0,36.8,29.94,West,270,0.0,0.0,50,0.00,,,0.00,VWS V14.01,2013-08-03 07:49:00,
2013-08-03 02:50:00,55.0,36.8,29.94,West,270,0.0,0.0,50,0.00,,,0.00,VWS V14.01,2013-08-03 07:50:00,
2013-08-03 02:51:00,55.0,36.8,29.94,West,270,0.0,0.0,50,0.00,,,0.00,VWS V14.01,2013-08-03 07:51:00,
2013-08-03 02:52:00,54.9,36.6,29.94,West,270,0.0,0.0,50,0.00,,,0.00,VWS V14.01,2013-08-03 07:52:00,
2013-08-03 02:53:00,54.9,36.6,29.94,West,270,0.0,0.0,50,0.00,,,0.00,VWS V14.01,2013-08-03 07:53:00,
2013-08-03 02:54:00,54.9,36.6,29.94,West,270,0.0,0.0,50,0.00,,,0.00,VWS V14.01,2013-08-03 07:54:00,
2013-08-03 02:55:00,54.9,36.6,29.94,West,270,0.0,0.0,50,0.00,,,0.00,VWS V14.01,2013-08-03 07:55:00,
2013-08-03 02:56:00,54.7,36.4,29.94,West,270,0.0,0.0,50,0.00,,,0.00,VWS V14.01,2013-08-03 07:56:00,
2013-08-03 02:57:00,54.7,36.4,29.94,West,270,0.0,0.0,50,0.00,,,0.00,VWS V14.01,2013-08-03 07:57:00,
2013-08-03 02:58:00,54.7,36.4,29.94,West,270,0.0,0.0,50,0.00,,,0.00,VWS V14.01,2013-08-03 07:58:00,
2013-08-03 02:59:00,54.7,36.4,29.94,West,270,0.0,0.0,50,0.00,,,0.00,VWS V14.01,2013-08-03 07:59:00,
2013-08-03 03:00:00,54.5,36.3,29.94,West,270,0.0,0.0,50,0.00,,,0.00,VWS V14.01,2013-08-03 08:00:00,
2013-08-03 03:01:00,54.5,36.3,29.94,West,270,0.0,0.0,50,0.00,,,0.00,VWS V14.01,2013-08-03 08:01:00,
2013-08-03 03:02:00,54.5,36.3,29.94,West,270,0.0,0.0,50,0.00,,,0.00,VWS V14.01,2013-08-03 08:02:00,
2013-08-03 03:03:00,54.5,36.3,29.94,WNW,292,0.0,0.0,50,0.00,,,0.00,VWS V14.01,2013-08-03 08:03:00,
2013-08-03 03:04:00,54.5,36.3,29.94,WNW,292,0.0,0.0,50,0.00,,,0.00,VWS V14.01,2013-08-03 08:04:00,
2013-08-03 03:05:00,54.5,36.8,29.94,WNW,292,0.0,0.0,51,0.00,,,0.00,VWS V14.01,2013-08-03 08:05:00,
2013-08-03 03:06:00,54.5,36.8,29.94,WNW,292,0.0,0.0,51,0.00,,,0.00,VWS V14.01,2013-08-03 08:06:00,
2013-08-03 03:07:00,54.5,36.8,29.94,WNW,292,0.0,0.0,51,0.00,,,0.00,VWS V14.01,2013-08-03 08:07:00,
2013-08-03 03:08:00,54.5,36.8,29.94,WNW,292,0.0,0.0,51,0.00,,,0.00,VWS V14.01,2013-08-03 08:08:00,
2013-08-03 03:09:00,54.5,36.8,29.94,WNW,292,0.0,0.0,51,0.00,,,0.00,VWS V14.01,2013-08-03 08:09:00,
2013-08-03 03:10:00,54.5,36.8,29.94,WNW,292,0.0,0.0,51,0.00,,,0.00,VWS V14.01,2013-08-03 08:10:00,
2013-08-03 03:11:00,54.5,36.8,29.94,WNW,292,0.0,0.0,51,0.00,,,0.00,VWS V14.01,2013-08-03 08:11:00,
2013-08-03 03:12:00,54.5,36.3,29.97,NNE,22,4.7,4.7,50,0.00,,,0.00,VWS V14.01,2013-08-03 08:12:00,
2013-08-03 03:13:00,54.5,36.8,29.97,NE,45,4.0,4.0,51,0.00,,,0.00,VWS V14.01,2013-08-03 08:13:00,
2013-08-03 03:14:00,54.5,36.8,29.97,NE,45,3.4,3.4,51,0.00,,,0.00,VWS V14.01,2013-08-03 08:14:00,
2013-08-03 03:15:00,54.5,36.8,29.97,NE,45,0.0,1.6,51,0.00,,,0.00,VWS V14.01,2013-08-03 08:15:00,
2013-08-03 03:16:00,54.5,36.8,29.97,NE,45,0.0,1.6,51,0.00,,,0.00,VWS V14.01,2013-08-03 08:16:00,
2013-08-03 03:17:00,54.5,37.2,29.97,NE,45,0.0,1.6,52,0.00,,,0.00,VWS V14.01,2013-08-03 08:17:00,
2013-08-03 03:18:00,54.3,37.1,29.97,North,0,0.0,1.6,52,0.00,,,0.00,VWS V14.01,2013-08-03 08:18:00,
2013-08-03 03:19:00,54.3,37.1,29.97,North,0,0.0,1.6,52,0.00,,,0.00,VWS V14.01,2013-08-03 08:19:00,
2013-08-03 03:20:00,54.3,37.1,29.97,North,0,0.0,1.6,52,0.00,,,0.00,VWS V14.01,2013-08-03 08:20:00,
2013-08-03 03:21:00,54.3,37.1,29.97,NE,45,0.0,1.6,52,0.00,,,0.00,VWS V14.01,2013-08-03 08:21:00,
2013-08-03 03:22:00,54.3,37.1,29.97,NE,45,0.0,1.6,52,0.00,,,0.00,VWS V14.01,2013-08-03 08:22:00,
2013-08-03 03:23:00,54.3,37.1,29.97,NNW,338,0.0,1.6,52,0.00,,,0.00,VWS V14.01,2013-08-03 08:23:00,
2013-08-03 03:24:00,54.5,37.2,29.97,NNW,338,0.0,1.6,52,0.00,,,0.00,VWS V14.01,2013-08-03 08:24:00,
2013-08-03 03:25:00,54.5,37.2,29.97,NNW,338,0.0,1.6,52,0.00,,,0.00,VWS V14.01,2013-08-03 08:25:00,
2013-08-03 03:26:00,54.5,37.2,29.97,NNW,338,0.0,1.6,52,0.00,,,0.00,VWS V14.01,2013-08-03 08:26:00,
2013-08-03 03:27:00,54.5,37.2,29.97,NNW,338,0.0,1.6,52,0.00,,,0.00,VWS V14.01,2013-08-03 08:27:00,
2013-08-03 03:28:00,54.3,37.6,29.97,NNW,338,0.0,1.6,53,0.00,,,0.00,VWS V14.01,2013-08-03 08:28:00,
2013-08-03 03:29:00,54.3,37.6,29.97,NNW,338,0.0,1.6,53,0.00,,,0.00,VWS V14.01,2013-08-03 08:29:00,
2013-08-03 03:30:00,54.3,37.6,29.97,NNW,338,0.0,1.6,53,0.00,,,0.00,VWS V14.01,2013-08-03 08:30:00,
2013-08-03 03:31:00,54.1,37.4,29.97,NNW,338,0.0,1.6,53,0.00,,,0.00,VWS V14.01,2013-08-03 08:31:00,
2013-08-03 03:32:00,54.1,37.4,29.97,ENE,68,0.0,1.3,53,0.00,,,0.00,VWS V14.01,2013-08-03 08:32:00,
2013-08-03 03:33:00,54.1,37.4,29.97,ENE,68,0.0,1.1,53,0.00,,,0.00,VWS V14.01,2013-08-03 08:33:00,
2013-08-03 03:34:00,54.1,37.4,29.97,NE,45,0.0,0.0,53,0.00,,,0.00,VWS V14.01,2013-08-03 08:34:00,
2013-08-03 03:35:00,54.1,37.4,29.97,NE,45,0.0,0.0,53,0.00,,,0.00,VWS V14.01,2013-08-03 08:35:00,
2013-08-03 03:36:00,54.0,37.2,29.97,NE,45,0.0,0.0,53,0.00,,,0.00,VWS V14.01,2013-08-03 08:36:00,
2013-08-03 03:37:00,54.0,37.2,29.97,NE,45,0.0,0.0,53,0.00,,,0.00,VWS V14.01,2013-08-03 08:37:00,
2013-08-03 03:38:00,54.0,37.2,29.97,NE,45,0.0,0.0,53,0.00,,,0.00,VWS V14.01,2013-08-03 08:38:00,
2013-08-03 03:39:00,54.0,37.7,29.97,NE,45,0.0,0.0,54,0.00,,,0.00,VWS V14.01,2013-08-03 08:39:00,
2013-08-03 03:40:00,53.8,37.5,29.97,NE,45,0.0,0.0,54,0.00,,,0.00,VWS V14.01,2013-08-03 08:40:00,
2013-08-03 03:41:00,53.8,37.5,29.97,NE,45,0.0,0.0,54,0.00,,,0.00,VWS V14.01,2013-08-03 08:41:00,
2013-08-03 03:42:00,53.8,37.5,29.97,NE,45,0.0,0.0,54,0.00,,,0.00,VWS V14.01,2013-08-03 08:42:00,
2013-08-03 03:43:00,53.8,37.5,29.97,North,0,4.7,4.7,54,0.00,,,0.00,VWS V14.01,2013-08-03 08:43:00,
2013-08-03 03:44:00,53.8,37.1,29.97,NNE,22,4.7,4.7,53,0.00,,,0.00,VWS V14.01,2013-08-03 08:44:00,
2013-08-03 03:45:00,54.0,37.2,29.97,NNE,22,4.0,4.0,53,0.00,,,0.00,VWS V14.01,2013-08-03 08:45:00,
2013-08-03 03:46:00,54.1,37.9,29.97,NW,315,2.7,2.7,54,0.00,,,0.00,VWS V14.01,2013-08-03 08:46:00,
2013-08-03 03:47:00,54.1,37.9,29.97,NW,315,0.0,1.6,54,0.00,,,0.00,VWS V14.01,2013-08-03 08:47:00,
2013-08-03 03:48:00,54.1,37.9,29.97,NW,315,0.0,1.6,54,0.00,,,0.00,VWS V14.01,2013-08-03 08:48:00,
2013-08-03 03:49:00,54.3,38.0,29.97,NW,315,0.0,1.6,54,0.00,,,0.00,VWS V14.01,2013-08-03 08:49:00,
2013-08-03 03:50:00,54.1,37.9,29.97,NW,315,0.0,1.6,54,0.00,,,0.00,VWS V14.01,2013-08-03 08:50:00,
2013-08-03 03:51:00,54.1,37.9,29.97,NW,315,0.0,1.6,54,0.00,,,0.00,VWS V14.01,2013-08-03 08:51:00,
2013-08-03 03:52:00,54.1,37.9,29.97,NNW,338,4.0,4.0,54,0.00,,,0.00,VWS V14.01,2013-08-03 08:52:00,
2013-08-03 03:53:00,54.1,37.9,29.97,NNW,338,2.7,2.7,54,0.00,,,0.00,VWS V14.01,2013-08-03 08:53:00,
2013-08-03 03:54:00,54.1,37.9,29.97,NNW,338,0.0,1.6,54,0.00,,,0.00,VWS V14.01,2013-08-03 08:54:00,
2013-08-03 03:55:00,54.1,37.9,29.97,NNW,338,0.0,1.6,54,0.00,,,0.00,VWS V14.01,2013-08-03 08:55:00,
2013-08-03 03:56:00,54.1,37.9,29.97,NNW,338,0.0,1.6,54,0.00,,,0.00,VWS V14.01,2013-08-03 08:56:00,
2013-08-03 03:57:00,54.1,37.9,29.97,NNW,338,0.0,1.6,54,0.00,,,0.00,VWS V14.01,2013-08-03 08:57:00,
2013-08-03 03:58:00,54.1,37.9,29.97,NNW,338,0.0,1.6,54,0.00,,,0.00,VWS V14.01,2013-08-03 08:58:00,
2013-08-03 03:59:00,54.1,37.9,29.97,NNW,338,0.0,1.6,54,0.00,,,0.00,VWS V14.01,2013-08-03 08:59:00,
2013-08-03 04:00:00,54.1,37.9,29.97,NNW,338,0.0,1.6,54,0.00,,,0.00,VWS V14.01,2013-08-03 09:00:00,
2013-08-03 04:01:00,54.1,38.3,29.97,NNW,338,0.0,1.6,55,0.00,,,0.00,VWS V14.01,2013-08-03 09:01:00,
2013-08-03 04:02:00,54.1,38.3,29.97,NNW,338,0.0,1.6,55,0.00,,,0.00,VWS V14.01,2013-08-03 09:02:00,
2013-08-03 04:03:00,54.1,38.3,29.97,NNW,338,0.0,1.6,55,0.00,,,0.00,VWS V14.01,2013-08-03 09:03:00,
2013-08-03 04:04:00,54.3,38.5,29.97,NW,315,4.0,4.0,55,0.00,,,0.00,VWS V14.01,2013-08-03 09:04:00,
2013-08-03 04:05:00,54.3,38.5,29.97,NW,315,2.7,2.7,55,0.00,,,0.00,VWS V14.01,2013-08-03 09:05:00,
2013-08-03 04:06:00,54.3,38.5,29.97,NW,315,0.0,1.3,55,0.00,,,0.00,VWS V14.01,2013-08-03 09:06:00,
2013-08-03 04:07:00,54.5,38.7,29.97,NW,315,0.0,1.3,55,0.00,,,0.00,VWS V14.01,2013-08-03 09:07:00,
2013-08-03 04:08:00,54.3,38.5,29.97,NW,315,0.0,1.3,55,0.00,,,0.00,VWS V14.01,2013-08-03 09:08:00,
2013-08-03 04:09:00,54.5,38.7,29.97,NW,315,0.0,1.3,55,0.00,,,0.00,VWS V14.01,2013-08-03 09:09:00,
2013-08-03 04:10:00,54.5,38.7,29.97,NW,315,0.0,1.3,55,0.00,,,0.00,VWS V14.01,2013-08-03 09:10:00,
2013-08-03 04:11:00,54.3,38.5,29.97,NW,315,0.0,1.3,55,0.00,,,0.00,VWS V14.01,2013-08-03 09:11:00,
2013-08-03 04:12:00,54.3,38.5,30.00,NW,315,0.0,1.3,55,0.00,,,0.00,VWS V14.01,2013-08-03 09:12:00,
2013-08-03 04:13:00,54.3,38.5,30.00,NW,315,0.0,1.3,55,0.00,,,0.00,VWS V14.01,2013-08-03 09:13:00,
2013-08-03 04:14:00,54.3,38.5,30.00,NW,315,0.0,1.3,55,0.00,,,0.00,VWS V14.01,2013-08-03 09:14:00,
2013-08-03 04:15:00,54.3,38.5,30.00,NW,315,0.0,1.3,55,0.00,,,0.00,VWS V14.01,2013-08-03 09:15:00,
2013-08-03 04:16:00,54.3,38.5,30.00,NW,315,0.0,1.3,55,0.00,,,0.00,VWS V14.01,2013-08-03 09:16:00,
2013-08-03 04:17:00,54.3,38.5,30.00,NW,315,0.0,1.3,55,0.00,,,0.00,VWS V14.01,2013-08-03 09:17:00,
2013-08-03 04:18:00,54.3,38.5,30.00,NW,315,0.0,1.3,55,0.00,,,0.00,VWS V14.01,2013-08-03 09:18:00,
2013-08-03 04:19:00,54.1,38.3,30.00,NW,315,0.0,1.3,55,0.00,,,0.00,VWS V14.01,2013-08-03 09:19:00,
2013-08-03 04:20:00,54.1,38.3,30.00,NW,315,0.0,1.3,55,0.00,,,0.00,VWS V14.01,2013-08-03 09:20:00,
2013-08-03 04:21:00,54.1,38.3,30.00,NW,315,0.0,1.3,55,0.00,,,0.00,VWS V14.01,2013-08-03 09:21:00,
2013-08-03 04:22:00,54.1,37.9,30.00,NW,315,0.0,1.3,54,0.00,,,0.00,VWS V14.01,2013-08-03 09:22:00,
2013-08-03 04:23:00,54.1,38.3,30.00,NW,315,0.0,1.3,55,0.00,,,0.00,VWS V14.01,2013-08-03 09:23:00,
2013-08-03 04:24:00,54.1,38.3,30.00,NW,315,0.0,0.9,55,0.00,,,0.00,VWS V14.01,2013-08-03 09:24:00,
2013-08-03 04:25:00,54.3,38.5,30.00,NW,315,0.0,0.0,55,0.00,,,0.00,VWS V14.01,2013-08-03 09:25:00,
2013-08-03 04:26:00,54.3,39.0,30.00,NW,315,0.0,0.0,56,0.00,,,0.00,VWS V14.01,2013-08-03 09:26:00,
2013-08-03 04:27:00,54.3,39.0,30.00,NW,315,0.0,0.0,56,0.00,,,0.00,VWS V14.01,2013-08-03 09:27:00,
2013-08-03 04:28:00,54.3,39.0,30.00,NW,315,0.0,0.0,56,0.00,,,0.00,VWS V14.01,2013-08-03 09:28:00,
2013-08-03 04:29:00,54.1,38.8,30.00,NW,315,0.0,0.0,56,0.00,,,0.00,VWS V14.01,2013-08-03 09:29:00,
2013-08-03 04:30:00,54.1,38.8,30.00,NW,315,0.0,0.0,56,0.00,,,0.00,VWS V14.01,2013-08-03 09:30:00,
2013-08-03 04:31:00,54.1,38.8,30.00,NW,315,0.0,0.0,56,0.00,,,0.00,VWS V14.01,2013-08-03 09:31:00,
2013-08-03 04:32:00,54.1,38.8,30.00,NW,315,0.0,0.0,56,0.00,,,0.00,VWS V14.01,2013-08-03 09:32:00,
2013-08-03 04:33:00,54.1,38.8,30.00,NW,315,0.0,0.0,56,0.00,,,0.00,VWS V14.01,2013-08-03 09:33:00,
2013-08-03 04:34:00,54.1,38.8,30.00,NW,315,0.0,0.0,56,0.00,,,0.00,VWS V14.01,2013-08-03 09:34:00,
2013-08-03 04:35:00,54.1,38.8,30.00,NW,315,3.4,3.4,56,0.00,,,0.00,VWS V14.01,2013-08-03 09:35:00,
2013-08-03 04:36:00,54.1,38.8,30.00,NW,315,0.0,1.1,56,0.00,,,0.00,VWS V14.01,2013-08-03 09:36:00,
2013-08-03 04:37:00,54.3,39.0,30.00,NW,315,0.0,1.1,56,0.00,,,0.00,VWS V14.01,2013-08-03 09:37:00,
2013-08-03 04:38:00,54.3,39.0,30.00,NW,315,0.0,1.1,56,0.00,,,0.00,VWS V14.01,2013-08-03 09:38:00,
2013-08-03 04:39:00,54.3,39.0,30.00,NW,315,0.0,1.1,56,0.00,,,0.00,VWS V14.01,2013-08-03 09:39:00,
2013-08-03 04:40:00,54.1,38.8,30.00,NW,315,0.0,1.1,56,0.00,,,0.00,VWS V14.01,2013-08-03 09:40:00,
2013-08-03 04:41:00,54.1,38.8,30.00,NW,315,0.0,1.1,56,0.00,,,0.00,VWS V14.01,2013-08-03 09:41:00,
2013-08-03 04:42:00,54.1,38.8,30.00,NW,315,0.0,1.1,56,0.00,,,0.00,VWS V14.01,2013-08-03 09:42:00,
2013-08-03 04:43:00,54.0,38.6,30.00,NW,315,0.0,1.1,56,0.00,,,0.00,VWS V14.01,2013-08-03 09:43:00,
2013-08-03 04:44:00,54.0,38.6,30.00,NW,315,0.0,1.1,56,0.00,,,0.00,VWS V14.01,2013-08-03 09:44:00,
2013-08-03 04:45:00,54.0,38.6,30.00,NW,315,0.0,1.1,56,0.00,,,0.00,VWS V14.01,2013-08-03 09:45:00,
2013-08-03 04:46:00,54.0,38.6,30.00,NW,315,0.0,1.1,56,0.00,,,0.00,VWS V14.01,2013-08-03 09:46:00,
2013-08-03 04:47:00,53.8,38.5,30.00,NW,315,0.0,1.1,56,0.00,,,0.00,VWS V14.01,2013-08-03 09:47:00,
2013-08-03 04:48:00,53.8,38.5,30.00,NW,315,0.0,1.1,56,0.00,,,0.00,VWS V14.01,2013-08-03 09:48:00,
2013-08-03 04:49:00,53.8,38.9,30.00,NW,315,0.0,1.1,57,0.00,,,0.00,VWS V14.01,2013-08-03 09:49:00,
2013-08-03 04:50:00,53.6,38.8,30.00,NW,315,0.0,1.1,57,0.00,,,0.00,VWS V14.01,2013-08-03 09:50:00,
2013-08-03 04:51:00,53.6,38.8,30.00,NW,315,0.0,1.1,57,0.00,,,0.00,VWS V14.01,2013-08-03 09:51:00,
2013-08-03 04:52:00,53.6,38.8,30.00,NW,315,0.0,1.1,57,0.00,,,0.00,VWS V14.01,2013-08-03 09:52:00,
2013-08-03 04:53:00,53.6,38.8,30.00,NW,315,0.0,1.1,57,0.00,,,0.00,VWS V14.01,2013-08-03 09:53:00,
2013-08-03 04:54:00,53.6,39.2,30.00,NW,315,0.0,1.1,58,0.00,,,0.00,VWS V14.01,2013-08-03 09:54:00,
2013-08-03 04:55:00,53.4,39.0,30.00,NW,315,0.0,0.0,58,0.00,,,0.00,VWS V14.01,2013-08-03 09:55:00,
2013-08-03 04:56:00,53.4,39.0,30.00,NW,315,0.0,0.0,58,0.00,,,0.00,VWS V14.01,2013-08-03 09:56:00,
2013-08-03 04:57:00,53.2,38.9,30.00,NW,315,0.0,0.0,58,0.00,,,0.00,VWS V14.01,2013-08-03 09:57:00,
2013-08-03 04:58:00,53.2,39.3,30.00,NW,315,0.0,0.0,59,0.00,,,0.00,VWS V14.01,2013-08-03 09:58:00,
2013-08-03 04:59:00,53.1,39.1,30.00,NW,315,0.0,0.0,59,0.00,,,0.00,VWS V14.01,2013-08-03 09:59:00,
2013-08-03 05:00:00,53.1,39.1,30.00,NW,315,0.0,0.0,59,0.00,,,0.00,VWS V14.01,2013-08-03 10:00:00,
2013-08-03 05:01:00,53.1,39.1,30.00,NW,315,0.0,0.0,59,0.00,,,0.00,VWS V14.01,2013-08-03 10:01:00,
2013-08-03 05:02:00,53.1,39.1,30.00,NW,315,0.0,0.0,59,0.00,,,0.00,VWS V14.01,2013-08-03 10:02:00,
2013-08-03 05:03:00,53.1,39.1,30.00,NW,315,0.0,0.0,59,0.00,,,0.00,VWS V14.01,2013-08-03 10:03:00,
2013-08-03 05:04:00,52.9,39.0,30.00,NW,315,0.0,0.0,59,0.00,,,0.00,VWS V14.01,2013-08-03 10:04:00,
2013-08-03 05:05:00,52.9,39.0,30.00,NW,315,0.0,0.0,59,0.00,,,0.00,VWS V14.01,2013-08-03 10:05:00,
2013-08-03 05:06:00,52.9,39.0,30.00,NW,315,0.0,0.0,59,0.00,,,0.00,VWS V14.01,2013-08-03 10:06:00,
2013-08-03 05:07:00,52.7,38.8,30.00,NW,315,0.0,0.0,59,0.00,,,0.00,VWS V14.01,2013-08-03 10:07:00,
2013-08-03 05:08:00,52.7,38.8,30.00,NW,315,0.0,0.0,59,0.00,,,0.00,VWS V14.01,2013-08-03 10:08:00,
2013-08-03 05:09:00,52.7,38.8,30.00,NW,315,0.0,0.0,59,0.00,,,0.00,VWS V14.01,2013-08-03 10:09:00,
2013-08-03 05:10:00,52.7,38.8,30.00,NW,315,0.0,0.0,59,0.00,,,0.00,VWS V14.01,2013-08-03 10:10:00,
2013-08-03 05:11:00,52.7,38.8,30.00,NW,315,0.0,0.0,59,0.00,,,0.00,VWS V14.01,2013-08-03 10:11:00,
2013-08-03 05:12:00,52.7,38.8,30.00,NW,315,0.0,0.0,59,0.00,,,0.00,VWS V14.01,2013-08-03 10:12:00,
2013-08-03 05:13:00,52.7,39.2,30.00,NW,315,0.0,0.0,60,0.00,,,0.00,VWS V14.01,2013-08-03 10:13:00,
2013-08-03 05:14:00,52.5,39.0,30.00,NW,315,0.0,0.0,60,0.00,,,0.00,VWS V14.01,2013-08-03 10:14:00,
2013-08-03 05:15:00,52.5,38.6,30.00,NW,315,0.0,0.0,59,0.00,,,0.00,VWS V14.01,2013-08-03 10:15:00,
2013-08-03 05:16:00,52.7,38.8,30.00,NW,315,0.0,0.0,59,0.00,,,0.00,VWS V14.01,2013-08-03 10:16:00,
2013-08-03 05:17:00,52.7,38.8,30.00,NW,315,0.0,0.0,59,0.00,,,0.00,VWS V14.01,2013-08-03 10:17:00,
2013-08-03 05:18:00,52.7,39.2,30.00,NW,315,0.0,0.0,60,0.00,,,0.00,VWS V14.01,2013-08-03 10:18:00,
2013-08-03 05:19:00,52.7,39.2,30.00,NW,315,0.0,0.0,60,0.00,,,0.00,VWS V14.01,2013-08-03 10:19:00,
2013-08-03 05:20:00,52.7,39.6,30.00,NW,315,0.0,0.0,61,0.00,,,0.00,VWS V14.01,2013-08-03 10:20:00,
2013-08-03 05:21:00,52.5,39.0,30.00,NW,315,0.0,0.0,60,0.00,,,0.00,VWS V14.01,2013-08-03 10:21:00,
2013-08-03 05:22:00,52.5,39.0,30.00,NW,315,0.0,0.0,60,0.00,,,0.00,VWS V14.01,2013-08-03 10:22:00,
2013-08-03 05:23:00,52.5,39.0,30.00,NW,315,0.0,0.0,60,0.00,,,0.00,VWS V14.01,2013-08-03 10:23:00,
2013-08-03 05:24:00,52.5,39.5,30.00,NW,315,0.0,0.0,61,0.00,,,0.00,VWS V14.01,2013-08-03 10:24:00,
2013-08-03 05:25:00,52.3,39.3,30.00,NW,315,0.0,0.0,61,0.00,,,0.00,VWS V14.01,2013-08-03 10:25:00,
2013-08-03 05:26:00,52.3,39.3,30.00,NW,315,0.0,0.0,61,0.00,,,0.00,VWS V14.01,2013-08-03 10:26:00,
2013-08-03 05:27:00,52.3,39.3,30.00,NW,315,0.0,0.0,61,0.00,,,0.00,VWS V14.01,2013-08-03 10:27:00,
2013-08-03 05:28:00,52.2,39.1,30.00,NW,315,0.0,0.0,61,0.00,,,0.00,VWS V14.01,2013-08-03 10:28:00,
2013-08-03 05:29:00,52.2,39.1,30.00,NW,315,0.0,0.0,61,0.00,,,0.00,VWS V14.01,2013-08-03 10:29:00,
2013-08-03 05:30:00,52.2,39.5,30.00,NW,315,0.0,0.0,62,0.00,,,0.00,VWS V14.01,2013-08-03 10:30:00,
2013-08-03 05:31:00,52.0,39.4,30.00,NW,315,0.0,0.0,62,0.00,,,0.00,VWS V14.01,2013-08-03 10:31:00,
2013-08-03 05:32:00,52.0,39.4,30.00,NW,315,0.0,0.0,62,0.00,,,0.00,VWS V14.01,2013-08-03 10:32:00,
2013-08-03 05:33:00,52.0,39.0,30.00,NW,315,0.0,0.0,61,0.00,,,0.00,VWS V14.01,2013-08-03 10:33:00,
2013-08-03 05:34:00,52.0,39.0,30.00,NW,315,0.0,0.0,61,0.00,,,0.00,VWS V14.01,2013-08-03 10:34:00,
2013-08-03 05:35:00,52.0,39.0,30.00,NW,315,0.0,0.0,61,0.00,,,0.00,VWS V14.01,2013-08-03 10:35:00,
2013-08-03 05:36:00,52.0,39.4,30.00,NW,315,0.0,0.0,62,0.00,,,0.00,VWS V14.01,2013-08-03 10:36:00,
2013-08-03 05:37:00,52.0,39.4,30.00,NW,315,0.0,0.0,62,0.00,,,0.00,VWS V14.01,2013-08-03 10:37:00,
2013-08-03 05:38:00,52.0,39.4,30.00,NW,315,0.0,0.0,62,0.00,,,0.00,VWS V14.01,2013-08-03 10:38:00,
2013-08-03 05:39:00,52.0,39.4,30.00,NW,315,0.0,0.0,62,0.00,,,0.00,VWS V14.01,2013-08-03 10:39:00,
2013-08-03 05:40:00,52.0,39.4,30.00,West,270,0.0,0.0,62,0.00,,,0.00,VWS V14.01,2013-08-03 10:40:00,
2013-08-03 05:41:00,52.0,39.8,30.00,West,270,0.0,0.0,63,0.00,,,0.00,VWS V14.01,2013-08-03 10:41:00,
2013-08-03 05:42:00,52.0,39.8,30.00,West,270,0.0,0.0,63,0.00,,,0.00,VWS V14.01,2013-08-03 10:42:00,
2013-08-03 05:43:00,51.8,39.6,30.00,West,270,0.0,0.0,63,0.00,,,0.00,VWS V14.01,2013-08-03 10:43:00,
2013-08-03 05:44:00,51.8,39.6,30.00,West,270,0.0,0.0,63,0.00,,,0.00,VWS V14.01,2013-08-03 10:44:00,
2013-08-03 05:45:00,51.6,39.5,30.00,WNW,292,0.0,0.0,63,0.00,,,0.00,VWS V14.01,2013-08-03 10:45:00,
2013-08-03 05:46:00,51.6,39.8,30.00,WNW,292,0.0,0.0,64,0.00,,,0.00,VWS V14.01,2013-08-03 10:46:00,
2013-08-03 05:47:00,51.6,39.5,30.00,WNW,292,0.0,0.0,63,0.00,,,0.00,VWS V14.01,2013-08-03 10:47:00,
2013-08-03 05:48:00,51.6,39.5,30.00,WNW,292,0.0,0.0,63,0.00,,,0.00,VWS V14.01,2013-08-03 10:48:00,
2013-08-03 05:49:00,51.6,39.5,30.00,North,0,0.0,0.0,63,0.00,,,0.00,VWS V14.01,2013-08-03 10:49:00,
2013-08-03 05:50:00,51.6,39.5,30.00,North,0,0.0,0.0,63,0.00,,,0.00,VWS V14.01,2013-08-03 10:50:00,
2013-08-03 05:51:00,51.8,39.6,30.00,North,0,0.0,0.0,63,0.00,,,0.00,VWS V14.01,2013-08-03 10:51:00,
2013-08-03 05:52:00,51.8,39.6,30.00,NNW,338,0.0,0.0,63,0.00,,,0.00,VWS V14.01,2013-08-03 10:52:00,
2013-08-03 05:53:00,51.8,39.6,30.00,NNW,338,0.0,0.0,63,0.00,,,0.00,VWS V14.01,2013-08-03 10:53:00,
2013-08-03 05:54:00,51.8,40.0,30.00,NNW,338,0.0,0.0,64,0.00,,,0.00,VWS V14.01,2013-08-03 10:54:00,
2013-08-03 05:55:00,51.8,40.0,30.00,NNW,338,0.0,0.0,64,0.00,,,0.00,VWS V14.01,2013-08-03 10:55:00,
2013-08-03 05:56:00,51.8,40.0,30.00,NNW,338,0.0,0.0,64,0.00,,,0.00,VWS V14.01,2013-08-03 10:56:00,
2013-08-03 05:57:00,51.8,40.0,30.00,NNW,338,0.0,0.0,64,0.00,,,0.00,VWS V14.01,2013-08-03 10:57:00,
2013-08-03 05:58:00,51.8,40.0,30.00,NNW,338,0.0,0.0,64,0.00,,,0.00,VWS V14.01,2013-08-03 10:58:00,
2013-08-03 05:59:00,51.8,40.0,30.00,NNW,338,0.0,0.0,64,0.00,,,0.00,VWS V14.01,2013-08-03 10:59:00,
2013-08-03 06:00:00,51.8,40.0,30.00,NNW,338,0.0,0.0,64,0.00,,,0.00,VWS V14.01,2013-08-03 11:00:00,
2013-08-03 06:01:00,52.0,40.2,30.00,NNW,338,0.0,0.0,64,0.00,,,0.00,VWS V14.01,2013-08-03 11:01:00,
2013-08-03 06:02:00,52.0,40.6,30.00,NNW,338,0.0,0.0,65,0.00,,,0.00,VWS V14.01,2013-08-03 11:02:00,
2013-08-03 06:03:00,52.0,40.2,30.00,NNW,338,0.0,0.0,64,0.00,,,0.00,VWS V14.01,2013-08-03 11:03:00,
2013-08-03 06:04:00,52.0,40.2,30.00,NNW,338,0.0,0.0,64,0.00,,,0.00,VWS V14.01,2013-08-03 11:04:00,
2013-08-03 06:05:00,52.0,40.2,30.00,NNW,338,0.0,0.0,64,0.00,,,0.00,VWS V14.01,2013-08-03 11:05:00,
2013-08-03 06:06:00,52.2,40.8,30.00,NNW,338,0.0,0.0,65,0.00,,,0.00,VWS V14.01,2013-08-03 11:06:00,
2013-08-03 06:07:00,52.2,40.4,30.00,NNW,338,2.7,2.7,64,0.00,,,0.00,VWS V14.01,2013-08-03 11:07:00,
2013-08-03 06:08:00,52.2,40.4,30.00,NNW,338,4.0,4.0,64,0.00,,,0.00,VWS V14.01,2013-08-03 11:08:00,
2013-08-03 06:09:00,52.3,40.9,30.00,NNW,338,3.4,3.4,65,0.00,,,0.00,VWS V14.01,2013-08-03 11:09:00,
2013-08-03 06:10:00,52.3,40.9,30.00,NNW,338,3.4,3.4,65,0.00,,,0.00,VWS V14.01,2013-08-03 11:10:00,
2013-08-03 06:11:00,52.3,40.9,30.00,NNW,338,3.4,3.4,65,0.00,,,0.00,VWS V14.01,2013-08-03 11:11:00,
2013-08-03 06:12:00,52.3,40.5,30.00,NNW,338,0.0,1.3,64,0.00,,,0.00,VWS V14.01,2013-08-03 11:12:00,
2013-08-03 06:13:00,52.3,40.5,30.00,WNW,292,3.4,3.4,64,0.00,,,0.00,VWS V14.01,2013-08-03 11:13:00,
2013-08-03 06:14:00,52.5,41.5,30.00,NNW,338,3.4,3.4,66,0.00,,,0.00,VWS V14.01,2013-08-03 11:14:00,
2013-08-03 06:15:00,52.5,41.1,30.00,NNW,338,0.0,1.3,65,0.00,,,0.00,VWS V14.01,2013-08-03 11:15:00,
2013-08-03 06:16:00,52.5,41.5,30.00,NW,315,7.4,7.4,66,0.00,,,0.00,VWS V14.01,2013-08-03 11:16:00,
2013-08-03 06:17:00,52.5,41.1,30.00,NW,315,2.7,2.7,65,0.00,,,0.00,VWS V14.01,2013-08-03 11:17:00,
2013-08-03 06:18:00,52.5,41.5,30.00,NW,315,0.0,2.5,66,0.00,,,0.00,VWS V14.01,2013-08-03 11:18:00,
2013-08-03 06:19:00,52.5,41.5,30.00,NW,315,0.0,2.5,66,0.00,,,0.00,VWS V14.01,2013-08-03 11:19:00,
2013-08-03 06:20:00,52.5,41.5,30.00,NW,315,0.0,2.5,66,0.00,,,0.00,VWS V14.01,2013-08-03 11:20:00,
2013-08-03 06:21:00,52.5,41.1,30.00,NW,315,0.0,2.5,65,0.00,,,0.00,VWS V14.01,2013-08-03 11:21:00,
2013-08-03 06:22:00,52.5,41.1,30.00,WNW,292,0.0,2.5,65,0.00,,,0.00,VWS V14.01,2013-08-03 11:22:00,
2013-08-03 06:23:00,52.5,41.1,30.00,NNW,338,0.0,2.5,65,0.00,,,0.00,VWS V14.01,2013-08-03 11:23:00,
2013-08-03 06:24:00,52.5,41.1,30.00,NNW,338,0.0,2.5,65,0.00,,,0.00,VWS V14.01,2013-08-03 11:24:00,
2013-08-03 06:25:00,52.5,41.1,30.00,NW,315,3.4,3.4,65,0.00,,,0.00,VWS V14.01,2013-08-03 11:25:00,
2013-08-03 06:26:00,52.7,41.3,30.00,NW,315,2.7,2.7,65,0.00,,,0.00,VWS V14.01,2013-08-03 11:26:00,
2013-08-03 06:27:00,52.7,41.3,30.00,NW,315,6.0,6.0,65,0.00,,,0.00,VWS V14.01,2013-08-03 11:27:00,
2013-08-03 06:28:00,52.7,41.3,30.00,NW,315,2.7,2.7,65,0.00,,,0.00,VWS V14.01,2013-08-03 11:28:00,
2013-08-03 06:29:00,52.9,41.5,30.00,NW,315,7.4,7.4,65,0.00,,,0.00,VWS V14.01,2013-08-03 11:29:00,
2013-08-03 06:30:00,52.9,41.5,30.00,NW,315,4.0,4.0,65,0.00,,,0.00,VWS V14.01,2013-08-03 11:30:00,
2013-08-03 06:31:00,52.9,41.5,30.00,NNW,338,2.7,2.7,65,0.00,,,0.00,VWS V14.01,2013-08-03 11:31:00,
2013-08-03 06:32:00,53.1,42.0,30.00,NNW,338,3.4,3.4,66,0.00,,,0.00,VWS V14.01,2013-08-03 11:32:00,
2013-08-03 06:33:00,53.1,41.6,30.00,NW,315,3.4,3.4,65,0.00,,,0.00,VWS V14.01,2013-08-03 11:33:00,
2013-08-03 06:34:00,53.1,41.6,30.00,NNW,338,3.4,3.4,65,0.00,,,0.00,VWS V14.01,2013-08-03 11:34:00,
2013-08-03 06:35:00,53.1,42.0,30.00,NW,315,0.0,2.5,66,0.00,,,0.00,VWS V14.01,2013-08-03 11:35:00,
2013-08-03 06:36:00,53.1,41.6,30.00,NW,315,0.0,2.5,65,0.00,,,0.00,VWS V14.01,2013-08-03 11:36:00,
2013-08-03 06:37:00,53.1,41.6,30.00,NW,315,0.0,2.5,65,0.00,,,0.00,VWS V14.01,2013-08-03 11:37:00,
2013-08-03 06:38:00,53.1,41.6,30.00,NW,315,0.0,2.5,65,0.00,,,0.00,VWS V14.01,2013-08-03 11:38:00,
2013-08-03 06:39:00,53.1,41.6,30.00,NW,315,0.0,2.5,65,0.00,,,0.00,VWS V14.01,2013-08-03 11:39:00,
2013-08-03 06:40:00,53.1,41.6,30.00,NW,315,0.0,2.5,65,0.00,,,0.00,VWS V14.01,2013-08-03 11:40:00,
2013-08-03 06:41:00,53.1,41.6,30.00,NW,315,0.0,2.5,65,0.00,,,0.00,VWS V14.01,2013-08-03 11:41:00,
2013-08-03 06:42:00,53.1,41.6,29.97,NW,315,0.0,2.5,65,0.00,,,0.00,VWS V14.01,2013-08-03 11:42:00,
2013-08-03 06:43:00,53.1,41.6,29.97,NW,315,0.0,2.5,65,0.00,,,0.00,VWS V14.01,2013-08-03 11:43:00,
2013-08-03 06:44:00,53.2,41.8,29.97,NW,315,0.0,2.5,65,0.00,,,0.00,VWS V14.01,2013-08-03 11:44:00,
2013-08-03 06:45:00,53.2,41.8,29.97,NW,315,0.0,2.5,65,0.00,,,0.00,VWS V14.01,2013-08-03 11:45:00,
2013-08-03 06:46:00,53.2,41.8,29.97,NW,315,0.0,2.5,65,0.00,,,0.00,VWS V14.01,2013-08-03 11:46:00,
2013-08-03 06:47:00,53.2,41.8,29.97,NW,315,0.0,2.5,65,0.00,,,0.00,VWS V14.01,2013-08-03 11:47:00,
2013-08-03 06:48:00,53.2,41.8,29.97,NW,315,0.0,2.5,65,0.00,,,0.00,VWS V14.01,2013-08-03 11:48:00,
2013-08-03 06:49:00,53.2,41.8,29.97,NW,315,0.0,1.3,65,0.00,,,0.00,VWS V14.01,2013-08-03 11:49:00,
2013-08-03 06:50:00,53.4,42.0,29.97,NW,315,0.0,1.1,65,0.00,,,0.00,VWS V14.01,2013-08-03 11:50:00,
2013-08-03 06:51:00,53.4,42.0,29.97,NNW,338,0.0,1.1,65,0.00,,,0.00,VWS V14.01,2013-08-03 11:51:00,
2013-08-03 06:52:00,53.4,42.0,29.97,NNW,338,0.0,1.1,65,0.00,,,0.00,VWS V14.01,2013-08-03 11:52:00,
2013-08-03 06:53:00,53.4,42.0,29.97,NNW,338,0.0,1.1,65,0.00,,,0.00,VWS V14.01,2013-08-03 11:53:00,
2013-08-03 06:54:00,53.4,42.0,29.97,NNW,338,0.0,0.0,65,0.00,,,0.00,VWS V14.01,2013-08-03 11:54:00,
2013-08-03 06:55:00,53.4,41.6,29.97,NNW,338,0.0,0.0,64,0.00,,,0.00,VWS V14.01,2013-08-03 11:55:00,
2013-08-03 06:56:00,53.4,41.6,29.97,NNW,338,0.0,0.0,64,0.00,,,0.00,VWS V14.01,2013-08-03 11:56:00,
2013-08-03 06:57:00,53.6,41.7,30.00,NNW,338,0.0,0.0,64,0.00,,,0.00,VWS V14.01,2013-08-03 11:57:00,
2013-08-03 06:58:00,53.6,41.7,30.00,NNW,338,0.0,0.0,64,0.00,,,0.00,VWS V14.01,2013-08-03 11:58:00,
2013-08-03 06:59:00,53.6,41.7,30.00,NNW,338,0.0,0.0,64,0.00,,,0.00,VWS V14.01,2013-08-03 11:59:00,
2013-08-03 07:00:00,53.8,41.9,30.00,NNW,338,0.0,0.0,64,0.00,,,0.00,VWS V14.01,2013-08-03 12:00:00,
2013-08-03 07:01:00,53.8,41.9,30.00,NNW,338,0.0,0.0,64,0.00,,,0.00,VWS V14.01,2013-08-03 12:01:00,
2013-08-03 07:02:00,53.8,41.9,30.00,NNW,338,0.0,0.0,64,0.00,,,0.00,VWS V14.01,2013-08-03 12:02:00,
2013-08-03 07:03:00,54.0,42.1,30.00,NW,315,0.0,0.0,64,0.00,,,0.00,VWS V14.01,2013-08-03 12:03:00,
2013-08-03 07:04:00,54.0,42.1,30.00,NW,315,0.0,0.0,64,0.00,,,0.00,VWS V14.01,2013-08-03 12:04:00,
2013-08-03 07:05:00,54.0,42.1,30.00,NW,315,0.0,0.0,64,0.00,,,0.00,VWS V14.01,2013-08-03 12:05:00,
2013-08-03 07:06:00,54.1,42.2,30.00,NNW,338,6.0,6.0,64,0.00,,,0.00,VWS V14.01,2013-08-03 12:06:00,
2013-08-03 07:07:00,54.3,42.0,30.00,NNW,338,6.7,6.7,63,0.00,,,0.00,VWS V14.01,2013-08-03 12:07:00,
2013-08-03 07:08:00,54.5,42.6,30.00,NNW,338,0.0,2.2,64,0.00,,,0.00,VWS V14.01,2013-08-03 12:08:00,
2013-08-03 07:09:00,54.5,42.6,30.00,NNW,338,0.0,2.2,64,0.00,,,0.00,VWS V14.01,2013-08-03 12:09:00,
2013-08-03 07:10:00,54.5,42.6,30.00,NNW,338,0.0,2.2,64,0.00,,,0.00,VWS V14.01,2013-08-03 12:10:00,
2013-08-03 07:11:00,54.7,42.8,30.00,NNW,338,0.0,2.2,64,0.00,,,0.00,VWS V14.01,2013-08-03 12:11:00,
2013-08-03 07:12:00,54.7,42.8,30.00,NNW,338,0.0,2.2,64,0.00,,,0.00,VWS V14.01,2013-08-03 12:12:00,
2013-08-03 07:13:00,54.9,42.9,30.00,NNW,338,0.0,2.2,64,0.00,,,0.00,VWS V14.01,2013-08-03 12:13:00,
2013-08-03 07:14:00,55.0,43.1,30.00,NNW,338,0.0,2.2,64,0.00,,,0.00,VWS V14.01,2013-08-03 12:14:00,
2013-08-03 07:15:00,55.2,43.3,30.00,NNW,338,0.0,2.2,64,0.00,,,0.00,VWS V14.01,2013-08-03 12:15:00,
2013-08-03 07:16:00,55.4,43.0,30.00,NNW,338,2.7,2.7,63,0.00,,,0.00,VWS V14.01,2013-08-03 12:16:00,
2013-08-03 07:17:00,55.4,43.0,30.00,NNW,338,0.0,2.2,63,0.00,,,0.00,VWS V14.01,2013-08-03 12:17:00,
2013-08-03 07:18:00,55.6,43.2,30.00,NNW,338,0.0,2.2,63,0.00,,,0.00,VWS V14.01,2013-08-03 12:18:00,
2013-08-03 07:19:00,55.6,43.2,30.00,NNW,338,0.0,2.2,63,0.00,,,0.00,VWS V14.01,2013-08-03 12:19:00,
2013-08-03 07:20:00,55.6,42.8,30.00,NNW,338,0.0,2.2,62,0.00,,,0.00,VWS V14.01,2013-08-03 12:20:00,
2013-08-03 07:21:00,55.6,42.8,30.00,NW,315,0.0,2.2,62,0.00,,,0.00,VWS V14.01,2013-08-03 12:21:00,
2013-08-03 07:22:00,55.6,42.8,30.00,NW,315,0.0,2.2,62,0.00,,,0.00,VWS V14.01,2013-08-03 12:22:00,
2013-08-03 07:23:00,55.6,42.8,30.00,NNW,338,4.7,4.7,62,0.00,,,0.00,VWS V14.01,2013-08-03 12:23:00,
2013-08-03 07:24:00,55.6,42.8,30.00,NNW,338,3.4,3.4,62,0.00,,,0.00,VWS V14.01,2013-08-03 12:24:00,
2013-08-03 07:25:00,55.6,42.4,30.00,NNW,338,6.7,6.7,61,0.00,,,0.00,VWS V14.01,2013-08-03 12:25:00,
2013-08-03 07:26:00,55.8,43.0,30.00,NNW,338,0.0,2.2,62,0.00,,,0.00,VWS V14.01,2013-08-03 12:26:00,
2013-08-03 07:27:00,55.9,43.1,30.00,NNW,338,4.0,4.0,62,0.00,,,0.00,VWS V14.01,2013-08-03 12:27:00,
2013-08-03 07:28:00,55.9,43.1,30.00,NNW,338,2.7,2.7,62,0.00,,,0.00,VWS V14.01,2013-08-03 12:28:00,
2013-08-03 07:29:00,56.1,42.9,30.00,NNW,338,3.4,3.4,61,0.00,,,0.00,VWS V14.01,2013-08-03 12:29:00,
2013-08-03 07:30:00,56.3,43.0,30.00,NNW,338,0.0,2.2,61,0.00,,,0.00,VWS V14.01,2013-08-03 12:30:00,
2013-08-03 07:31:00,56.3,43.0,30.00,NNW,338,7.4,7.4,61,0.00,,,0.00,VWS V14.01,2013-08-03 12:31:00,
2013-08-03 07:32:00,56.5,43.2,30.00,North,0,6.0,6.0,61,0.00,,,0.00,VWS V14.01,2013-08-03 12:32:00,
2013-08-03 07:33:00,56.5,43.2,30.00,NNW,338,4.0,4.0,61,0.00,,,0.00,VWS V14.01,2013-08-03 12:33:00,
2013-08-03 07:34:00,56.7,43.4,30.00,NW,315,0.0,2.5,61,0.00,,,0.00,VWS V14.01,2013-08-03 12:34:00,
2013-08-03 07:35:00,56.7,43.4,30.00,WNW,292,4.7,4.7,61,0.00,,,0.00,VWS V14.01,2013-08-03 12:35:00,
2013-08-03 07:36:00,56.7,43.4,30.00,NNW,338,6.7,6.7,61,0.00,,,0.00,VWS V14.01,2013-08-03 12:36:00,
2013-08-03 07:37:00,56.8,43.1,30.00,NNE,22,3.4,3.4,60,0.00,,,0.00,VWS V14.01,2013-08-03 12:37:00,
2013-08-03 07:38:00,57.0,43.3,30.00,NNW,338,4.7,4.7,60,0.00,,,0.00,VWS V14.01,2013-08-03 12:38:00,
2013-08-03 07:39:00,57.0,42.8,30.00,NNW,338,4.7,4.7,59,0.00,,,0.00,VWS V14.01,2013-08-03 12:39:00,
2013-08-03 07:40:00,57.2,43.0,30.00,NW,315,4.7,4.7,59,0.00,,,0.00,VWS V14.01,2013-08-03 12:40:00,
2013-08-03 07:41:00,57.2,42.6,30.00,NW,315,6.0,6.0,58,0.00,,,0.00,VWS V14.01,2013-08-03 12:41:00,
2013-08-03 07:42:00,57.2,42.6,30.00,NNW,338,2.7,2.7,58,0.00,,,0.00,VWS V14.01,2013-08-03 12:42:00,
2013-08-03 07:43:00,57.4,42.7,30.00,NNE,22,4.7,4.7,58,0.00,,,0.00,VWS V14.01,2013-08-03 12:43:00,
2013-08-03 07:44:00,57.6,42.5,30.00,NNW,338,4.7,4.7,57,0.00,,,0.00,VWS V14.01,2013-08-03 12:44:00,
2013-08-03 07:45:00,57.6,42.5,30.00,NNE,22,4.0,4.0,57,0.00,,,0.00,VWS V14.01,2013-08-03 12:45:00,
2013-08-03 07:46:00,57.6,42.5,30.00,NNW,338,2.7,2.7,57,0.00,,,0.00,VWS V14.01,2013-08-03 12:46:00,
2013-08-03 07:47:00,57.7,42.6,30.00,NNW,338,3.4,3.4,57,0.00,,,0.00,VWS V14.01,2013-08-03 12:47:00,
2013-08-03 07:48:00,57.7,42.6,30.00,NW,315,3.4,3.4,57,0.00,,,0.00,VWS V14.01,2013-08-03 12:48:00,
2013-08-03 07:49:00,57.9,42.3,30.00,NNE,22,8.1,8.1,56,0.00,,,0.00,VWS V14.01,2013-08-03 12:49:00,
2013-08-03 07:50:00,57.9,42.3,30.00,NW,315,0.0,2.7,56,0.00,,,0.00,VWS V14.01,2013-08-03 12:50:00,
2013-08-03 07:51:00,57.9,42.3,30.00,NNW,338,0.0,2.7,56,0.00,,,0.00,VWS V14.01,2013-08-03 12:51:00,
2013-08-03 07:52:00,58.1,42.0,30.00,SSE,158,2.7,2.7,55,0.00,,,0.00,VWS V14.01,2013-08-03 12:52:00,
2013-08-03 07:53:00,58.1,42.0,30.00,NW,315,6.7,6.7,55,0.00,,,0.00,VWS V14.01,2013-08-03 12:53:00,
2013-08-03 07:54:00,58.3,42.2,30.00,NNE,22,0.0,2.7,55,0.00,,,0.00,VWS V14.01,2013-08-03 12:54:00,
2013-08-03 07:55:00,58.3,41.7,30.00,NE,45,4.0,4.0,54,0.00,,,0.00,VWS V14.01,2013-08-03 12:55:00,
2013-08-03 07:56:00,58.3,41.7,30.00,North,0,6.0,6.0,54,0.00,,,0.00,VWS V14.01,2013-08-03 12:56:00,
2013-08-03 07:57:00,58.3,41.7,30.03,West,270,4.0,4.0,54,0.00,,,0.00,VWS V14.01,2013-08-03 12:57:00,
2013-08-03 07:58:00,58.5,41.9,30.03,North,0,0.0,2.7,54,0.00,,,0.00,VWS V14.01,2013-08-03 12:58:00,
2013-08-03 07:59:00,58.5,41.9,30.03,North,0,4.0,4.0,54,0.00,,,0.00,VWS V14.01,2013-08-03 12:59:00,
2013-08-03 08:00:00,58.5,41.4,30.03,NNE,22,3.4,3.4,53,0.00,,,0.00,VWS V14.01,2013-08-03 13:00:00,
2013-08-03 08:01:00,58.6,41.6,30.03,NNW,338,4.0,4.0,53,0.00,,,0.00,VWS V14.01,2013-08-03 13:01:00,
2013-08-03 08:02:00,58.8,41.7,30.03,NE,45,0.0,2.7,53,0.00,,,0.00,VWS V14.01,2013-08-03 13:02:00,
2013-08-03 08:03:00,58.8,41.7,30.03,NNE,22,0.0,2.7,53,0.00,,,0.00,VWS V14.01,2013-08-03 13:03:00,
2013-08-03 08:04:00,58.8,41.7,30.03,NNE,22,0.0,2.7,53,0.00,,,0.00,VWS V14.01,2013-08-03 13:04:00,
2013-08-03 08:05:00,59.0,41.4,30.03,North,0,3.4,3.4,52,0.00,,,0.00,VWS V14.01,2013-08-03 13:05:00,
2013-08-03 08:06:00,59.0,41.4,30.03,North,0,2.7,2.7,52,0.00,,,0.00,VWS V14.01,2013-08-03 13:06:00,
2013-08-03 08:07:00,59.2,41.6,30.03,NNE,22,0.0,2.7,52,0.00,,,0.00,VWS V14.01,2013-08-03 13:07:00,
2013-08-03 08:08:00,59.4,41.2,30.03,NNE,22,3.4,3.4,51,0.00,,,0.00,VWS V14.01,2013-08-03 13:08:00,
2013-08-03 08:09:00,59.4,41.8,30.03,NW,315,6.0,6.0,52,0.00,,,0.00,VWS V14.01,2013-08-03 13:09:00,
2013-08-03 08:10:00,59.5,41.9,30.03,North,0,0.0,2.2,52,0.00,,,0.00,VWS V14.01,2013-08-03 13:10:00,
2013-08-03 08:11:00,59.7,42.1,30.03,North,0,0.0,2.2,52,0.00,,,0.00,VWS V14.01,2013-08-03 13:11:00,
2013-08-03 08:12:00,59.9,42.2,30.03,North,0,6.7,6.7,52,0.00,,,0.00,VWS V14.01,2013-08-03 13:12:00,
2013-08-03 08:13:00,59.9,41.8,30.03,ENE,68,3.4,3.4,51,0.00,,,0.00,VWS V14.01,2013-08-03 13:13:00,
2013-08-03 08:14:00,60.1,41.9,30.03,NW,315,4.7,4.7,51,0.00,,,0.00,VWS V14.01,2013-08-03 13:14:00,
2013-08-03 08:15:00,60.4,42.2,30.03,NE,45,4.7,4.7,51,0.00,,,0.00,VWS V14.01,2013-08-03 13:15:00,
2013-08-03 08:16:00,60.8,42.1,30.03,NNE,22,4.0,4.0,50,0.00,,,0.00,VWS V14.01,2013-08-03 13:16:00,
2013-08-03 08:17:00,60.8,42.1,30.03,NNW,338,0.0,2.2,50,0.00,,,0.00,VWS V14.01,2013-08-03 13:17:00,
2013-08-03 08:18:00,61.3,42.0,30.03,NNW,338,0.0,2.2,49,0.00,,,0.00,VWS V14.01,2013-08-03 13:18:00,
2013-08-03 08:19:00,61.5,42.2,30.03,NE,45,0.0,2.2,49,0.00,,,0.00,VWS V14.01,2013-08-03 13:19:00,
2013-08-03 08:20:00,61.7,42.4,30.03,NE,45,0.0,2.2,49,0.00,,,0.00,VWS V14.01,2013-08-03 13:20:00,
2013-08-03 08:21:00,62.1,42.7,30.03,NE,45,0.0,2.2,49,0.00,,,0.00,VWS V14.01,2013-08-03 13:21:00,
2013-08-03 08:24:00,62.8,41.7,30.03,NNW,338,8.1,8.1,46,0.00,,,0.00,VWS V14.01,2013-08-03 13:24:00,
2013-08-03 08:25:00,62.8,41.7,30.03,NNE,22,6.0,6.0,46,0.00,,,0.00,VWS V14.01,2013-08-03 13:25:00,
2013-08-03 08:26:00,63.0,41.3,30.03,NE,45,6.7,6.7,45,0.00,,,0.00,VWS V14.01,2013-08-03 13:26:00,
2013-08-03 08:27:00,63.0,41.3,30.03,NE,45,0.0,2.7,45,0.00,,,0.00,VWS V14.01,2013-08-03 13:27:00,
2013-08-03 08:28:00,63.0,41.3,30.03,ENE,68,0.0,2.7,45,0.00,,,0.00,VWS V14.01,2013-08-03 13:28:00,
2013-08-03 08:29:00,63.0,40.7,30.03,NW,315,7.4,7.4,44,0.00,,,0.00,VWS V14.01,2013-08-03 13:29:00,
2013-08-03 08:30:00,63.1,40.9,30.03,NNW,338,3.4,3.4,44,0.00,,,0.00,VWS V14.01,2013-08-03 13:30:00,
2013-08-03 08:31:00,63.1,40.9,30.03,ENE,68,4.0,4.0,44,0.00,,,0.00,VWS V14.01,2013-08-03 13:31:00,
2013-08-03 08:32:00,63.3,41.1,30.03,NE,45,0.0,2.7,44,0.00,,,0.00,VWS V14.01,2013-08-03 13:32:00,
2013-08-03 08:33:00,63.5,41.2,30.03,NNE,22,3.4,3.4,44,0.00,,,0.00,VWS V14.01,2013-08-03 13:33:00,
2013-08-03 08:34:00,63.5,40.6,30.03,NNE,22,4.0,4.0,43,0.00,,,0.00,VWS V14.01,2013-08-03 13:34:00,
2013-08-03 08:35:00,63.7,40.8,30.03,NNE,22,0.0,2.7,43,0.00,,,0.00,VWS V14.01,2013-08-03 13:35:00,
2013-08-03 08:36:00,63.9,40.3,30.03,NE,45,0.0,2.7,42,0.00,,,0.00,VWS V14.01,2013-08-03 13:36:00,
2013-08-03 08:37:00,63.9,39.7,30.03,NE,45,4.7,4.7,41,0.00,,,0.00,VWS V14.01,2013-08-03 13:37:00,
2013-08-03 08:38:00,64.0,40.5,30.03,NE,45,3.4,3.4,42,0.00,,,0.00,VWS V14.01,2013-08-03 13:38:00,
2013-08-03 08:39:00,64.0,39.9,30.03,WNW,292,8.7,8.7,41,0.00,,,0.00,VWS V14.01,2013-08-03 13:39:00,
2013-08-03 08:40:00,64.2,40.0,30.03,North,0,2.7,2.9,41,0.00,,,0.00,VWS V14.01,2013-08-03 13:40:00,
2013-08-03 08:41:00,64.2,39.4,30.03,North,0,0.0,2.9,40,0.00,,,0.00,VWS V14.01,2013-08-03 13:41:00,
2013-08-03 08:42:00,64.4,39.6,30.03,NNW,338,8.1,8.1,40,0.00,,,0.00,VWS V14.01,2013-08-03 13:42:00,
2013-08-03 08:43:00,64.6,39.7,30.03,NNW,338,7.4,7.4,40,0.00,,,0.00,VWS V14.01,2013-08-03 13:43:00,
2013-08-03 08:44:00,64.8,39.2,30.03,NW,315,8.1,8.1,39,0.00,,,0.00,VWS V14.01,2013-08-03 13:44:00,
2013-08-03 08:45:00,65.3,39.7,30.03,NE,45,4.7,4.7,39,0.00,,,0.00,VWS V14.01,2013-08-03 13:45:00,
2013-08-03 08:46:00,65.5,39.9,30.03,NE,45,6.0,6.0,39,0.00,,,0.00,VWS V14.01,2013-08-03 13:46:00,
2013-08-03 08:47:00,65.5,39.2,30.03,WNW,292,7.4,7.4,38,0.00,,,0.00,VWS V14.01,2013-08-03 13:47:00,
2013-08-03 08:48:00,65.7,39.4,30.03,NW,315,6.0,6.0,38,0.00,,,0.00,VWS V14.01,2013-08-03 13:48:00,
2013-08-03 08:49:00,65.7,39.4,30.03,NNW,338,7.4,7.4,38,0.00,,,0.00,VWS V14.01,2013-08-03 13:49:00,
2013-08-03 08:50:00,65.7,38.7,30.03,SW,225,4.0,4.0,37,0.00,,,0.00,VWS V14.01,2013-08-03 13:50:00,
2013-08-03 08:51:00,65.7,38.7,30.03,SW,225,6.0,6.0,37,0.00,,,0.00,VWS V14.01,2013-08-03 13:51:00,
2013-08-03 08:52:00,65.7,38.7,30.03,SSE,158,0.0,2.9,37,0.00,,,0.00,VWS V14.01,2013-08-03 13:52:00,
2013-08-03 08:53:00,66.0,39.0,30.03,ENE,68,0.0,2.9,37,0.00,,,0.00,VWS V14.01,2013-08-03 13:53:00,
2013-08-03 08:54:00,66.0,39.0,30.03,ENE,68,0.0,2.9,37,0.00,,,0.00,VWS V14.01,2013-08-03 13:54:00,
2013-08-03 08:55:00,66.2,38.5,30.03,NNW,338,2.7,2.9,36,0.00,,,0.00,VWS V14.01,2013-08-03 13:55:00,
2013-08-03 08:56:00,66.2,38.5,30.03,NNW,338,2.7,2.9,36,0.00,,,0.00,VWS V14.01,2013-08-03 13:56:00,
2013-08-03 08:57:00,66.2,38.5,30.00,NW,315,6.7,6.7,36,0.00,,,0.00,VWS V14.01,2013-08-03 13:57:00,
2013-08-03 08:58:00,66.2,38.5,30.00,West,270,6.7,6.7,36,0.00,,,0.00,VWS V14.01,2013-08-03 13:58:00,
2013-08-03 08:59:00,66.2,38.5,30.00,NW,315,0.0,2.7,36,0.00,,,0.00,VWS V14.01,2013-08-03 13:59:00,
2013-08-03 09:00:00,66.2,38.5,30.00,NNW,338,6.0,6.0,36,0.00,,,0.00,VWS V14.01,2013-08-03 14:00:00,
2013-08-03 09:01:00,66.2,38.5,30.00,NNW,338,3.4,3.4,36,0.00,,,0.00,VWS V14.01,2013-08-03 14:01:00,
2013-08-03 09:02:00,66.0,38.3,30.00,NW,315,4.7,4.7,36,0.00,,,0.00,VWS V14.01,2013-08-03 14:02:00,
2013-08-03 09:05:00,66.2,37.8,30.00,NW,315,2.7,2.7,35,0.00,,,0.00,VWS V14.01,2013-08-03 14:05:00,
2013-08-03 09:06:00,66.2,37.8,30.00,NW,315,4.0,4.0,35,0.00,,,0.00,VWS V14.01,2013-08-03 14:06:00,
2013-08-03 09:07:00,66.2,37.8,30.00,ENE,68,6.7,6.7,35,0.00,,,0.00,VWS V14.01,2013-08-03 14:07:00,
2013-08-03 09:08:00,66.2,37.8,30.00,WSW,248,4.7,4.7,35,0.00,,,0.00,VWS V14.01,2013-08-03 14:08:00,
2013-08-03 09:11:00,66.0,37.6,30.00,NE,45,6.7,6.7,35,0.00,,,0.00,VWS V14.01,2013-08-03 14:11:00,
2013-08-03 09:12:00,66.0,37.6,30.03,ENE,68,6.0,6.0,35,0.00,,,0.00,VWS V14.01,2013-08-03 14:12:00,
2013-08-03 09:13:00,66.0,37.6,30.03,ENE,68,2.7,2.7,35,0.00,,,0.00,VWS V14.01,2013-08-03 14:13:00,
2013-08-03 09:14:00,66.0,37.6,30.03,SSW,202,8.1,8.1,35,0.00,,,0.00,VWS V14.01,2013-08-03 14:14:00,
2013-08-03 09:16:00,66.0,37.6,30.03,SW,225,4.7,4.7,35,0.00,,,0.00,VWS V14.01,2013-08-03 14:16:00,
2013-08-03 09:17:00,66.0,37.6,30.03,NNW,338,6.7,6.7,35,0.00,,,0.00,VWS V14.01,2013-08-03 14:17:00,
2013-08-03 09:18:00,66.0,37.6,30.03,NNE,22,6.7,6.7,35,0.00,,,0.00,VWS V14.01,2013-08-03 14:18:00,
2013-08-03 09:19:00,66.2,37.8,30.03,NE,45,7.4,7.4,35,0.00,,,0.00,VWS V14.01,2013-08-03 14:19:00,
2013-08-03 09:20:00,66.2,37.8,30.03,NE,45,4.7,4.7,35,0.00,,,0.00,VWS V14.01,2013-08-03 14:20:00,
2013-08-03 09:21:00,66.4,37.9,30.03,NNE,22,7.4,7.4,35,0.00,,,0.00,VWS V14.01,2013-08-03 14:21:00,
2013-08-03 09:22:00,66.4,37.9,30.03,WNW,292,6.0,6.0,35,0.00,,,0.00,VWS V14.01,2013-08-03 14:22:00,
2013-08-03 09:23:00,66.6,38.1,30.03,NNE,22,4.0,4.0,35,0.00,,,0.00,VWS V14.01,2013-08-03 14:23:00,
2013-08-03 09:24:00,66.7,38.2,30.03,NNE,22,4.7,4.7,35,0.00,,,0.00,VWS V14.01,2013-08-03 14:24:00,
2013-08-03 09:25:00,66.9,38.4,30.03,NNE,22,4.7,4.7,35,0.00,,,0.00,VWS V14.01,2013-08-03 14:25:00,
2013-08-03 09:26:00,66.9,38.4,30.03,East,90,7.4,7.4,35,0.00,,,0.00,VWS V14.01,2013-08-03 14:26:00,
2013-08-03 09:27:00,67.1,38.6,30.03,NNE,22,8.1,8.1,35,0.00,,,0.00,VWS V14.01,2013-08-03 14:27:00,
2013-08-03 09:28:00,67.1,37.8,30.03,NE,45,6.7,6.7,34,0.00,,,0.00,VWS V14.01,2013-08-03 14:28:00,
2013-08-03 09:29:00,67.3,38.0,30.03,NNW,338,7.4,7.4,34,0.00,,,0.00,VWS V14.01,2013-08-03 14:29:00,
2013-08-03 09:30:00,67.3,38.0,30.03,NNW,338,2.7,2.7,34,0.00,,,0.00,VWS V14.01,2013-08-03 14:30:00,
2013-08-03 09:31:00,67.3,38.0,30.03,NW,315,4.7,4.7,34,0.00,,,0.00,VWS V14.01,2013-08-03 14:31:00,
2013-08-03 09:32:00,67.5,38.1,30.03,NNE,22,6.0,6.0,34,0.00,,,0.00,VWS V14.01,2013-08-03 14:32:00,
2013-08-03 09:33:00,67.5,38.1,30.03,North,0,9.4,9.4,34,0.00,,,0.00,VWS V14.01,2013-08-03 14:33:00,
2013-08-03 09:34:00,67.6,38.3,30.03,South,180,4.7,4.7,34,0.00,,,0.00,VWS V14.01,2013-08-03 14:34:00,
2013-08-03 09:35:00,67.6,38.3,30.03,ENE,68,4.0,4.0,34,0.00,,,0.00,VWS V14.01,2013-08-03 14:35:00,
2013-08-03 09:36:00,67.6,38.3,30.03,SSW,202,6.0,6.0,34,0.00,,,0.00,VWS V14.01,2013-08-03 14:36:00,
2013-08-03 09:37:00,67.6,38.3,30.03,NW,315,0.0,3.1,34,0.00,,,0.00,VWS V14.01,2013-08-03 14:37:00,
2013-08-03 09:38:00,68.0,37.8,30.03,SSW,202,10.1,10.1,33,0.00,,,0.00,VWS V14.01,2013-08-03 14:38:00,
2013-08-03 09:39:00,68.4,38.2,30.03,WNW,292,2.7,3.4,33,0.00,,,0.00,VWS V14.01,2013-08-03 14:39:00,
2013-08-03 09:40:00,68.5,39.1,30.03,NW,315,7.4,7.4,34,0.00,,,0.00,VWS V14.01,2013-08-03 14:40:00,
2013-08-03 09:41:00,68.7,38.5,30.03,NNW,338,6.0,6.0,33,0.00,,,0.00,VWS V14.01,2013-08-03 14:41:00,
2013-08-03 09:42:00,68.9,38.6,30.03,NNW,338,4.0,4.0,33,0.00,,,0.00,VWS V14.01,2013-08-03 14:42:00,
2013-08-03 09:43:00,69.3,39.0,30.03,SSW,202,2.7,3.4,33,0.00,,,0.00,VWS V14.01,2013-08-03 14:43:00,
2013-08-03 09:44:00,69.4,39.1,30.03,West,270,6.0,6.0,33,0.00,,,0.00,VWS V14.01,2013-08-03 14:44:00,
2013-08-03 09:45:00,69.4,39.1,30.03,North,0,3.4,3.4,33,0.00,,,0.00,VWS V14.01,2013-08-03 14:45:00,
2013-08-03 09:46:00,70.0,39.6,30.03,WSW,248,6.7,6.7,33,0.00,,,0.00,VWS V14.01,2013-08-03 14:46:00,
2013-08-03 09:47:00,70.2,39.0,30.03,ENE,68,9.4,9.4,32,0.00,,,0.00,VWS V14.01,2013-08-03 14:47:00,
2013-08-03 09:48:00,70.5,39.3,30.03,NE,45,3.4,3.4,32,0.00,,,0.00,VWS V14.01,2013-08-03 14:48:00,
2013-08-03 09:49:00,70.9,39.6,30.03,NNE,22,4.7,4.7,32,0.00,,,0.00,VWS V14.01,2013-08-03 14:49:00,
2013-08-03 09:50:00,71.1,39.7,30.03,NNW,338,6.0,6.0,32,0.00,,,0.00,VWS V14.01,2013-08-03 14:50:00,
2013-08-03 09:51:00,71.4,40.0,30.03,NE,45,0.0,3.4,32,0.00,,,0.00,VWS V14.01,2013-08-03 14:51:00,
2013-08-03 09:52:00,71.8,39.5,30.03,ENE,68,2.7,3.4,31,0.00,,,0.00,VWS V14.01,2013-08-03 14:52:00,
2013-08-03 09:53:00,72.5,40.2,30.03,NW,315,6.0,6.0,31,0.00,,,0.00,VWS V14.01,2013-08-03 14:53:00,
2013-08-03 09:54:00,72.9,39.7,30.03,NNW,338,11.4,11.4,30,0.00,,,0.00,VWS V14.01,2013-08-03 14:54:00,
2013-08-03 09:55:00,73.0,38.9,30.03,NNW,338,4.7,4.7,29,0.00,,,0.00,VWS V14.01,2013-08-03 14:55:00,
2013-08-03 09:56:00,73.0,38.0,30.03,NW,315,7.4,7.4,28,0.00,,,0.00,VWS V14.01,2013-08-03 14:56:00,
2013-08-03 09:57:00,73.0,38.9,30.00,NNW,338,7.4,7.4,29,0.00,,,0.00,VWS V14.01,2013-08-03 14:57:00,
2013-08-03 09:58:00,73.2,38.2,30.00,SSW,202,4.7,4.7,28,0.00,,,0.00,VWS V14.01,2013-08-03 14:58:00,
2013-08-03 09:59:00,73.6,38.5,30.00,ESE,112,4.7,4.7,28,0.00,,,0.00,VWS V14.01,2013-08-03 14:59:00,
2013-08-03 10:00:00,73.8,36.8,30.00,ESE,112,2.7,3.8,26,0.00,,,0.00,VWS V14.01,2013-08-03 15:00:00,
2013-08-03 10:01:00,73.9,36.9,30.00,SW,225,8.7,8.7,26,0.00,,,0.00,VWS V14.01,2013-08-03 15:01:00,
2013-08-03 10:02:00,73.8,35.8,30.00,NE,45,2.7,3.8,25,0.00,,,0.00,VWS V14.01,2013-08-03 15:02:00,
2013-08-03 10:03:00,73.8,35.8,30.00,NW,315,7.4,7.4,25,0.00,,,0.00,VWS V14.01,2013-08-03 15:03:00,
2013-08-03 10:04:00,73.8,35.8,30.00,NE,45,7.4,7.4,25,0.00,,,0.00,VWS V14.01,2013-08-03 15:04:00,
2013-08-03 10:05:00,73.6,35.6,30.00,WNW,292,3.4,3.8,25,0.00,,,0.00,VWS V14.01,2013-08-03 15:05:00,
2013-08-03 10:06:00,73.6,34.6,30.00,SSE,158,0.0,3.8,24,0.00,,,0.00,VWS V14.01,2013-08-03 15:06:00,
2013-08-03 10:07:00,73.9,35.9,30.00,SE,135,0.0,3.8,25,0.00,,,0.00,VWS V14.01,2013-08-03 15:07:00,
2013-08-03 10:08:00,74.1,36.1,30.00,NNW,338,2.7,3.8,25,0.00,,,0.00,VWS V14.01,2013-08-03 15:08:00,
2013-08-03 10:09:00,73.8,34.8,30.00,ENE,68,6.0,6.0,24,0.00,,,0.00,VWS V14.01,2013-08-03 15:09:00,
2013-08-03 10:10:00,73.9,34.9,30.00,North,0,6.0,6.0,24,0.00,,,0.00,VWS V14.01,2013-08-03 15:10:00,
2013-08-03 10:11:00,73.6,33.5,30.00,NNE,22,9.4,9.4,23,0.00,,,0.00,VWS V14.01,2013-08-03 15:11:00,
2013-08-03 10:12:00,73.2,34.3,30.03,NNE,22,10.1,10.1,24,0.00,,,0.00,VWS V14.01,2013-08-03 15:12:00,
2013-08-03 10:13:00,73.4,33.4,30.03,NNW,338,4.7,4.7,23,0.00,,,0.00,VWS V14.01,2013-08-03 15:13:00,
2013-08-03 10:14:00,73.4,33.4,30.03,ENE,68,6.0,6.0,23,0.00,,,0.00,VWS V14.01,2013-08-03 15:14:00,
2013-08-03 10:15:00,73.2,34.3,30.03,NE,45,4.0,4.0,24,0.00,,,0.00,VWS V14.01,2013-08-03 15:15:00,
2013-08-03 10:16:00,73.4,33.4,30.03,ENE,68,6.7,6.7,23,0.00,,,0.00,VWS V14.01,2013-08-03 15:16:00,
2013-08-03 10:17:00,73.4,33.4,30.03,East,90,3.4,3.4,23,0.00,,,0.00,VWS V14.01,2013-08-03 15:17:00,
2013-08-03 10:18:00,73.6,33.5,30.03,NNW,338,0.0,3.4,23,0.00,,,0.00,VWS V14.01,2013-08-03 15:18:00,
2013-08-03 10:20:00,73.8,33.7,30.03,NW,315,4.0,4.0,23,0.00,,,0.00,VWS V14.01,2013-08-03 15:20:00,
2013-08-03 10:21:00,73.6,33.5,30.03,NNW,338,11.4,11.4,23,0.00,,,0.00,VWS V14.01,2013-08-03 15:21:00,
2013-08-03 10:22:00,73.6,33.5,30.03,NNE,22,2.7,3.8,23,0.00,,,0.00,VWS V14.01,2013-08-03 15:22:00,
2013-08-03 10:23:00,73.6,33.5,30.03,NE,45,6.0,6.0,23,0.00,,,0.00,VWS V14.01,2013-08-03 15:23:00,
2013-08-03 10:24:00,73.6,33.5,30.03,NNE,22,4.7,4.7,23,0.00,,,0.00,VWS V14.01,2013-08-03 15:24:00,
2013-08-03 10:25:00,73.6,33.5,30.03,North,0,4.0,4.0,23,0.00,,,0.00,VWS V14.01,2013-08-03 15:25:00,
2013-08-03 10:26:00,73.4,33.4,30.03,NE,45,4.0,4.0,23,0.00,,,0.00,VWS V14.01,2013-08-03 15:26:00,
2013-08-03 10:27:00,73.4,33.4,30.03,SE,135,4.0,4.0,23,0.00,,,0.00,VWS V14.01,2013-08-03 15:27:00,
2013-08-03 10:28:00,73.6,33.5,30.03,East,90,12.8,12.8,23,0.00,,,0.00,VWS V14.01,2013-08-03 15:28:00,
2013-08-03 10:29:00,73.6,33.5,30.03,NE,45,7.4,7.4,23,0.00,,,0.00,VWS V14.01,2013-08-03 15:29:00,
2013-08-03 10:30:00,73.8,33.7,30.03,North,0,6.0,6.0,23,0.00,,,0.00,VWS V14.01,2013-08-03 15:30:00,
2013-08-03 10:31:00,73.8,33.7,30.03,NE,45,4.7,4.7,23,0.00,,,0.00,VWS V14.01,2013-08-03 15:31:00,
2013-08-03 10:32:00,73.6,32.4,30.03,WNW,292,8.1,8.1,22,0.00,,,0.00,VWS V14.01,2013-08-03 15:32:00,
2013-08-03 10:33:00,73.8,32.6,30.03,NW,315,8.1,8.1,22,0.00,,,0.00,VWS V14.01,2013-08-03 15:33:00,
2013-08-03 10:34:00,73.9,32.7,30.03,East,90,6.0,6.0,22,0.00,,,0.00,VWS V14.01,2013-08-03 15:34:00,
2013-08-03 10:35:00,74.3,33.0,30.03,NE,45,4.0,4.3,22,0.00,,,0.00,VWS V14.01,2013-08-03 15:35:00,
2013-08-03 10:36:00,74.3,33.0,30.03,ENE,68,4.7,4.7,22,0.00,,,0.00,VWS V14.01,2013-08-03 15:36:00,
2013-08-03 10:37:00,74.3,33.0,30.03,NNE,22,8.1,8.1,22,0.00,,,0.00,VWS V14.01,2013-08-03 15:37:00,
2013-08-03 10:38:00,74.5,33.2,30.03,NE,45,6.0,6.0,22,0.00,,,0.00,VWS V14.01,2013-08-03 15:38:00,
2013-08-03 10:39:00,75.2,33.8,30.03,NE,45,7.4,7.4,22,0.00,,,0.00,VWS V14.01,2013-08-03 15:39:00,
2013-08-03 10:40:00,75.2,33.8,30.03,NNW,338,9.4,9.4,22,0.00,,,0.00,VWS V14.01,2013-08-03 15:40:00,
2013-08-03 10:41:00,75.2,32.6,30.03,NNE,22,8.1,8.1,21,0.00,,,0.00,VWS V14.01,2013-08-03 15:41:00,
2013-08-03 10:42:00,75.2,32.6,30.03,NW,315,10.7,10.7,21,0.00,,,0.00,VWS V14.01,2013-08-03 15:42:00,
2013-08-03 10:43:00,75.2,32.6,30.03,NNE,22,3.4,4.3,21,0.00,,,0.00,VWS V14.01,2013-08-03 15:43:00,
2013-08-03 10:44:00,75.4,32.8,30.03,NNW,338,8.1,8.1,21,0.00,,,0.00,VWS V14.01,2013-08-03 15:44:00,
2013-08-03 10:45:00,75.6,32.9,30.03,NE,45,7.4,7.4,21,0.00,,,0.00,VWS V14.01,2013-08-03 15:45:00,
2013-08-03 10:46:00,75.6,32.9,30.03,NNE,22,8.7,8.7,21,0.00,,,0.00,VWS V14.01,2013-08-03 15:46:00,
2013-08-03 10:47:00,75.6,32.9,30.03,NE,45,8.1,8.1,21,0.00,,,0.00,VWS V14.01,2013-08-03 15:47:00,
2013-08-03 10:48:00,76.3,33.5,30.03,East,90,0.0,3.6,21,0.00,,,0.00,VWS V14.01,2013-08-03 15:48:00,
2013-08-03 10:49:00,76.6,33.8,30.03,NNE,22,4.7,4.7,21,0.00,,,0.00,VWS V14.01,2013-08-03 15:49:00,
2013-08-03 10:50:00,76.5,33.7,30.03,NNW,338,6.7,6.7,21,0.00,,,0.00,VWS V14.01,2013-08-03 15:50:00,
2013-08-03 10:51:00,77.0,34.1,30.03,ESE,112,9.4,9.4,21,0.00,,,0.00,VWS V14.01,2013-08-03 15:51:00,
2013-08-03 10:52:00,77.5,34.6,30.03,ENE,68,7.4,7.4,21,0.00,,,0.00,VWS V14.01,2013-08-03 15:52:00,
2013-08-03 10:53:00,77.5,34.6,30.03,ENE,68,6.0,6.0,21,0.00,,,0.00,VWS V14.01,2013-08-03 15:53:00,
2013-08-03 10:54:00,78.3,35.2,30.03,NE,45,4.0,4.0,21,0.00,,,0.00,VWS V14.01,2013-08-03 15:54:00,
2013-08-03 10:55:00,78.4,34.1,30.03,NE,45,7.4,7.4,20,0.00,,,0.00,VWS V14.01,2013-08-03 15:55:00,
2013-08-03 10:56:00,78.3,35.2,30.03,NNE,22,8.7,8.7,21,0.00,,,0.00,VWS V14.01,2013-08-03 15:56:00,
2013-08-03 10:57:00,78.3,35.2,30.03,ESE,112,12.1,12.1,21,0.00,,,0.00,VWS V14.01,2013-08-03 15:57:00,
2013-08-03 10:58:00,78.3,33.9,30.03,NE,45,6.0,6.0,20,0.00,,,0.00,VWS V14.01,2013-08-03 15:58:00,
2013-08-03 10:59:00,78.3,33.9,30.03,ENE,68,7.4,7.4,20,0.00,,,0.00,VWS V14.01,2013-08-03 15:59:00,
2013-08-03 11:00:00,78.1,33.8,30.03,NNE,22,8.7,8.7,20,0.00,,,0.00,VWS V14.01,2013-08-03 16:00:00,
2013-08-03 11:01:00,77.9,33.6,30.03,ENE,68,8.1,8.1,20,0.00,,,0.00,VWS V14.01,2013-08-03 16:01:00,
2013-08-03 11:02:00,77.7,33.5,30.03,ENE,68,7.4,7.4,20,0.00,,,0.00,VWS V14.01,2013-08-03 16:02:00,
2013-08-03 11:03:00,77.7,33.5,30.03,ENE,68,7.4,7.4,20,0.00,,,0.00,VWS V14.01,2013-08-03 16:03:00,
2013-08-03 11:04:00,77.9,33.6,30.03,NNE,22,6.7,6.7,20,0.00,,,0.00,VWS V14.01,2013-08-03 16:04:00,
2013-08-03 11:05:00,77.5,33.3,30.03,ESE,112,7.4,7.4,20,0.00,,,0.00,VWS V14.01,2013-08-03 16:05:00,
2013-08-03 11:06:00,77.7,33.5,30.03,ENE,68,8.7,8.7,20,0.00,,,0.00,VWS V14.01,2013-08-03 16:06:00,
2013-08-03 11:07:00,77.9,33.6,30.03,NW,315,10.1,10.1,20,0.00,,,0.00,VWS V14.01,2013-08-03 16:07:00,
2013-08-03 11:08:00,77.9,33.6,30.03,North,0,8.7,8.7,20,0.00,,,0.00,VWS V14.01,2013-08-03 16:08:00,
2013-08-03 11:09:00,78.1,33.8,30.03,NNE,22,16.1,16.1,20,0.00,,,0.00,VWS V14.01,2013-08-03 16:09:00,
2013-08-03 11:10:00,78.3,33.9,30.03,East,90,2.7,5.4,20,0.00,,,0.00,VWS V14.01,2013-08-03 16:10:00,
2013-08-03 11:11:00,78.6,34.2,30.03,East,90,12.1,12.1,20,0.00,,,0.00,VWS V14.01,2013-08-03 16:11:00,
2013-08-03 11:12:00,78.8,34.4,30.00,NNE,22,6.0,6.0,20,0.00,,,0.00,VWS V14.01,2013-08-03 16:12:00,
2013-08-03 11:13:00,79.0,34.5,30.00,ENE,68,8.1,8.1,20,0.00,,,0.00,VWS V14.01,2013-08-03 16:13:00,
2013-08-03 11:14:00,79.2,34.7,30.00,ENE,68,6.7,6.7,20,0.00,,,0.00,VWS V14.01,2013-08-03 16:14:00,
2013-08-03 11:15:00,79.3,34.8,30.00,NE,45,6.0,6.0,20,0.00,,,0.00,VWS V14.01,2013-08-03 16:15:00,
2013-08-03 11:16:00,80.1,35.4,30.00,ENE,68,6.0,6.0,20,0.00,,,0.00,VWS V14.01,2013-08-03 16:16:00,
2013-08-03 11:17:00,80.1,35.4,30.00,NE,45,7.4,7.4,20,0.00,,,0.00,VWS V14.01,2013-08-03 16:17:00,
2013-08-03 11:18:00,79.7,35.1,30.00,ENE,68,9.4,9.4,20,0.00,,,0.00,VWS V14.01,2013-08-03 16:18:00,
2013-08-03 11:19:00,79.9,35.3,30.00,NNE,22,4.7,5.4,20,0.00,,,0.00,VWS V14.01,2013-08-03 16:19:00,
2013-08-03 11:20:00,80.2,35.6,30.00,NNE,22,9.4,9.4,20,0.00,,,0.00,VWS V14.01,2013-08-03 16:20:00,
2013-08-03 11:21:00,80.2,35.6,30.00,NE,45,7.4,7.4,20,0.00,,,0.00,VWS V14.01,2013-08-03 16:21:00,
2013-08-03 11:22:00,80.4,35.7,30.00,NE,45,4.0,5.4,20,0.00,,,0.00,VWS V14.01,2013-08-03 16:22:00,
2013-08-03 11:23:00,80.8,34.7,30.00,North,0,8.7,8.7,19,0.00,,,0.00,VWS V14.01,2013-08-03 16:23:00,
2013-08-03 11:24:00,80.4,35.7,30.00,ENE,68,7.4,7.4,20,0.00,,,0.00,VWS V14.01,2013-08-03 16:24:00,
2013-08-03 11:25:00,80.2,35.6,30.00,NE,45,3.4,5.4,20,0.00,,,0.00,VWS V14.01,2013-08-03 16:25:00,
2013-08-03 11:26:00,80.1,35.4,30.00,NNE,22,7.4,7.4,20,0.00,,,0.00,VWS V14.01,2013-08-03 16:26:00,
2013-08-03 11:27:00,80.1,35.4,30.00,NW,315,8.7,8.7,20,0.00,,,0.00,VWS V14.01,2013-08-03 16:27:00,
2013-08-03 11:28:00,79.7,31.1,30.00,North,0,6.7,6.7,17,0.00,,,0.00,VWS V14.01,2013-08-03 16:28:00,
2013-08-03 11:29:00,80.1,35.4,30.00,NNE,22,10.1,10.1,20,0.00,,,0.00,VWS V14.01,2013-08-03 16:29:00,
2013-08-03 11:32:00,79.5,30.9,30.00,East,90,10.1,10.1,17,0.00,,,0.00,VWS V14.01,2013-08-03 16:32:00,
2013-08-03 11:33:00,79.9,31.2,30.00,NE,45,8.7,8.7,17,0.00,,,0.00,VWS V14.01,2013-08-03 16:33:00,
2013-08-03 11:34:00,79.9,31.2,30.00,SSW,202,4.7,4.7,17,0.00,,,0.00,VWS V14.01,2013-08-03 16:34:00,
2013-08-03 11:35:00,79.9,31.2,30.00,NE,45,7.4,7.4,17,0.00,,,0.00,VWS V14.01,2013-08-03 16:35:00,
2013-08-03 11:36:00,80.2,31.5,30.00,NE,45,7.4,7.4,17,0.00,,,0.00,VWS V14.01,2013-08-03 16:36:00,
2013-08-03 11:37:00,80.4,31.7,30.00,NE,45,9.4,9.4,17,0.00,,,0.00,VWS V14.01,2013-08-03 16:37:00,
2013-08-03 11:38:00,80.8,32.0,30.00,North,0,7.4,7.4,17,0.00,,,0.00,VWS V14.01,2013-08-03 16:38:00,
2013-08-03 11:39:00,80.8,32.0,30.00,NE,45,10.7,10.7,17,0.00,,,0.00,VWS V14.01,2013-08-03 16:39:00,
2013-08-03 11:40:00,81.1,32.2,30.00,NW,315,3.4,3.6,17,0.00,,,0.00,VWS V14.01,2013-08-03 16:40:00,
2013-08-03 11:41:00,80.2,31.5,30.00,ENE,68,14.8,14.8,17,0.00,,,0.00,VWS V14.01,2013-08-03 16:41:00,
2013-08-03 11:42:00,80.4,31.7,30.00,East,90,8.7,8.7,17,0.00,,,0.00,VWS V14.01,2013-08-03 16:42:00,
2013-08-03 11:43:00,80.4,31.7,30.00,East,90,8.7,8.7,17,0.00,,,0.00,VWS V14.01,2013-08-03 16:43:00,
2013-08-03 11:44:00,80.6,31.8,30.00,SW,225,4.0,4.9,17,0.00,,,0.00,VWS V14.01,2013-08-03 16:44:00,
2013-08-03 11:45:00,80.8,32.0,30.00,East,90,4.0,4.9,17,0.00,,,0.00,VWS V14.01,2013-08-03 16:45:00,
2013-08-03 11:46:00,80.8,32.0,30.00,NNE,22,8.7,8.7,17,0.00,,,0.00,VWS V14.01,2013-08-03 16:46:00,
2013-08-03 11:47:00,81.1,32.2,30.00,East,90,4.7,4.9,17,0.00,,,0.00,VWS V14.01,2013-08-03 16:47:00,
2013-08-03 11:48:00,81.5,32.5,30.00,East,90,3.4,4.9,17,0.00,,,0.00,VWS V14.01,2013-08-03 16:48:00,
2013-08-03 11:49:00,81.5,32.5,30.00,East,90,3.4,4.9,17,0.00,,,0.00,VWS V14.01,2013-08-03 16:49:00,
2013-08-03 11:50:00,81.5,32.5,30.00,NNE,22,4.0,4.9,17,0.00,,,0.00,VWS V14.01,2013-08-03 16:50:00,
2013-08-03 11:51:00,81.3,32.4,30.00,SSE,158,7.4,7.4,17,0.00,,,0.00,VWS V14.01,2013-08-03 16:51:00,
2013-08-03 11:52:00,81.5,32.5,30.00,South,180,4.7,4.9,17,0.00,,,0.00,VWS V14.01,2013-08-03 16:52:00,
2013-08-03 11:53:00,81.7,32.7,30.00,NW,315,8.1,8.1,17,0.00,,,0.00,VWS V14.01,2013-08-03 16:53:00,
2013-08-03 11:54:00,81.5,32.5,30.00,NE,45,6.7,6.7,17,0.00,,,0.00,VWS V14.01,2013-08-03 16:54:00,
2013-08-03 11:55:00,81.7,32.7,30.00,ENE,68,6.0,6.0,17,0.00,,,0.00,VWS V14.01,2013-08-03 16:55:00,
2013-08-03 11:56:00,81.5,32.5,30.00,NE,45,4.0,4.9,17,0.00,,,0.00,VWS V14.01,2013-08-03 16:56:00,
2013-08-03 11:57:00,81.7,32.7,30.00,East,90,11.4,11.4,17,0.00,,,0.00,VWS V14.01,2013-08-03 16:57:00,
2013-08-03 11:58:00,81.5,32.5,30.00,NE,45,12.1,12.1,17,0.00,,,0.00,VWS V14.01,2013-08-03 16:58:00,
2013-08-03 11:59:00,81.7,32.7,30.00,SE,135,6.0,6.0,17,0.00,,,0.00,VWS V14.01,2013-08-03 16:59:00,
2013-08-03 12:00:00,82.0,33.0,30.00,NNE,22,6.0,6.0,17,0.00,,,0.00,VWS V14.01,2013-08-03 17:00:00,
2013-08-03 12:01:00,81.9,32.8,30.00,SE,135,4.7,4.7,17,0.00,,,0.00,VWS V14.01,2013-08-03 17:01:00,
2013-08-03 12:02:00,81.9,32.8,30.00,WNW,292,4.7,4.7,17,0.00,,,0.00,VWS V14.01,2013-08-03 17:02:00,
2013-08-03 12:03:00,81.5,32.5,30.00,East,90,8.7,8.7,17,0.00,,,0.00,VWS V14.01,2013-08-03 17:03:00,
2013-08-03 12:04:00,81.3,32.4,30.00,ESE,112,10.7,10.7,17,0.00,,,0.00,VWS V14.01,2013-08-03 17:04:00,
2013-08-03 12:05:00,81.1,32.2,30.00,ESE,112,10.7,10.7,17,0.00,,,0.00,VWS V14.01,2013-08-03 17:05:00,
2013-08-03 12:06:00,81.3,32.4,30.00,ESE,112,10.7,10.7,17,0.00,,,0.00,VWS V14.01,2013-08-03 17:06:00,
2013-08-03 12:07:00,81.1,32.2,30.00,ESE,112,10.7,10.7,17,0.00,,,0.00,VWS V14.01,2013-08-03 17:07:00,
2013-08-03 12:08:00,80.8,32.0,30.00,North,0,0.0,4.0,17,0.00,,,0.00,VWS V14.01,2013-08-03 17:08:00,
2013-08-03 12:09:00,81.5,32.5,30.00,ESE,112,4.7,4.7,17,0.00,,,0.00,VWS V14.01,2013-08-03 17:09:00,
2013-08-03 12:10:00,81.3,32.4,30.00,NNE,22,11.4,11.4,17,0.00,,,0.00,VWS V14.01,2013-08-03 17:10:00,
2013-08-03 12:11:00,81.7,32.7,30.00,NW,315,11.4,11.4,17,0.00,,,0.00,VWS V14.01,2013-08-03 17:11:00,
2013-08-03 12:12:00,82.0,33.0,30.00,NNE,22,6.0,6.0,17,0.00,,,0.00,VWS V14.01,2013-08-03 17:12:00,
2013-08-03 12:13:00,82.2,33.1,30.00,West,270,3.4,4.0,17,0.00,,,0.00,VWS V14.01,2013-08-03 17:13:00,
2013-08-03 12:14:00,82.0,33.0,30.00,SE,135,8.1,8.1,17,0.00,,,0.00,VWS V14.01,2013-08-03 17:14:00,
2013-08-03 12:15:00,82.2,33.1,30.00,ESE,112,6.7,6.7,17,0.00,,,0.00,VWS V14.01,2013-08-03 17:15:00,
2013-08-03 12:16:00,82.4,31.8,30.00,NE,45,4.7,4.7,16,0.00,,,0.00,VWS V14.01,2013-08-03 17:16:00,
2013-08-03 12:17:00,82.4,31.8,30.00,NNE,22,8.7,8.7,16,0.00,,,0.00,VWS V14.01,2013-08-03 17:17:00,
2013-08-03 12:18:00,81.5,32.5,30.00,NW,315,14.1,14.1,17,0.00,,,0.00,VWS V14.01,2013-08-03 17:18:00,
2013-08-03 12:19:00,81.0,32.1,30.00,North,0,12.1,12.1,17,0.00,,,0.00,VWS V14.01,2013-08-03 17:19:00,
2013-08-03 12:20:00,80.6,31.8,30.00,NNE,22,10.7,10.7,17,0.00,,,0.00,VWS V14.01,2013-08-03 17:20:00,
2013-08-03 12:21:00,80.6,31.8,30.00,NNW,338,10.7,10.7,17,0.00,,,0.00,VWS V14.01,2013-08-03 17:21:00,
2013-08-03 12:22:00,80.6,31.8,30.00,WNW,292,7.4,7.4,17,0.00,,,0.00,VWS V14.01,2013-08-03 17:22:00,
2013-08-03 12:23:00,81.0,32.1,30.00,NW,315,4.7,4.7,17,0.00,,,0.00,VWS V14.01,2013-08-03 17:23:00,
2013-08-03 12:24:00,81.0,32.1,30.00,SE,135,4.0,4.7,17,0.00,,,0.00,VWS V14.01,2013-08-03 17:24:00,
2013-08-03 12:25:00,82.2,33.1,30.00,NE,45,4.7,4.7,17,0.00,,,0.00,VWS V14.01,2013-08-03 17:25:00,
2013-08-03 12:26:00,82.4,31.8,30.00,SSW,202,10.1,10.1,16,0.00,,,0.00,VWS V14.01,2013-08-03 17:26:00,
2013-08-03 12:27:00,82.4,31.8,30.00,NW,315,4.7,4.7,16,0.00,,,0.00,VWS V14.01,2013-08-03 17:27:00,
2013-08-03 12:28:00,82.4,31.8,30.00,SSW,202,4.0,4.7,16,0.00,,,0.00,VWS V14.01,2013-08-03 17:28:00,
2013-08-03 12:29:00,82.4,31.8,30.00,NNW,338,4.0,4.7,16,0.00,,,0.00,VWS V14.01,2013-08-03 17:29:00,
2013-08-03 12:30:00,82.6,31.9,30.00,NNW,338,6.0,6.0,16,0.00,,,0.00,VWS V14.01,2013-08-03 17:30:00,
2013-08-03 12:31:00,82.9,32.2,30.00,NNE,22,4.0,4.7,16,0.00,,,0.00,VWS V14.01,2013-08-03 17:31:00,
2013-08-03 12:32:00,82.9,32.2,30.00,WNW,292,12.8,12.8,16,0.00,,,0.00,VWS V14.01,2013-08-03 17:32:00,
2013-08-03 12:33:00,80.8,32.0,30.00,NNW,338,6.0,6.0,17,0.00,,,0.00,VWS V14.01,2013-08-03 17:33:00,
2013-08-03 12:34:00,80.1,31.4,30.00,WSW,248,8.7,8.7,17,0.00,,,0.00,VWS V14.01,2013-08-03 17:34:00,
2013-08-03 12:35:00,79.9,31.2,30.00,WSW,248,6.0,6.0,17,0.00,,,0.00,VWS V14.01,2013-08-03 17:35:00,
2013-08-03 12:36:00,79.9,31.2,30.00,SSE,158,10.1,10.1,17,0.00,,,0.00,VWS V14.01,2013-08-03 17:36:00,
2013-08-03 12:37:00,80.4,31.7,30.00,NNE,22,7.4,7.4,17,0.00,,,0.00,VWS V14.01,2013-08-03 17:37:00,
2013-08-03 12:38:00,81.0,32.1,30.00,North,0,6.7,6.7,17,0.00,,,0.00,VWS V14.01,2013-08-03 17:38:00,
2013-08-03 12:39:00,81.0,32.1,30.00,NE,45,9.4,9.4,17,0.00,,,0.00,VWS V14.01,2013-08-03 17:39:00,
2013-08-03 12:40:00,81.3,32.4,30.00,NNW,338,8.7,8.7,17,0.00,,,0.00,VWS V14.01,2013-08-03 17:40:00,
2013-08-03 12:41:00,81.0,32.1,30.00,North,0,22.8,22.8,17,0.00,,,0.00,VWS V14.01,2013-08-03 17:41:00,
2013-08-03 12:42:00,81.0,32.1,30.00,North,0,16.8,16.8,17,0.00,,,0.00,VWS V14.01,2013-08-03 17:42:00,
2013-08-03 12:43:00,81.0,32.1,30.00,NE,45,8.1,8.1,17,0.00,,,0.00,VWS V14.01,2013-08-03 17:43:00,
2013-08-03 12:44:00,81.5,32.5,30.00,East,90,7.4,7.6,17,0.00,,,0.00,VWS V14.01,2013-08-03 17:44:00,
2013-08-03 12:45:00,81.5,32.5,30.00,NE,45,7.4,7.6,17,0.00,,,0.00,VWS V14.01,2013-08-03 17:45:00,
2013-08-03 12:46:00,82.2,33.1,30.00,NW,315,11.4,11.4,17,0.00,,,0.00,VWS V14.01,2013-08-03 17:46:00,
2013-08-03 12:47:00,82.6,31.9,30.00,NE,45,4.7,7.6,16,0.00,,,0.00,VWS V14.01,2013-08-03 17:47:00,
2013-08-03 12:48:00,82.8,32.0,30.00,NNE,22,8.7,8.7,16,0.00,,,0.00,VWS V14.01,2013-08-03 17:48:00,
2013-08-03 12:49:00,82.4,31.8,30.00,NE,45,12.8,12.8,16,0.00,,,0.00,VWS V14.01,2013-08-03 17:49:00,
2013-08-03 12:50:00,82.4,31.8,30.00,North,0,8.1,8.1,16,0.00,,,0.00,VWS V14.01,2013-08-03 17:50:00,
2013-08-03 12:51:00,82.8,32.0,30.00,NNW,338,7.4,7.6,16,0.00,,,0.00,VWS V14.01,2013-08-03 17:51:00,
2013-08-03 12:52:00,83.1,32.3,30.00,NNW,338,4.0,7.6,16,0.00,,,0.00,VWS V14.01,2013-08-03 17:52:00,
2013-08-03 12:53:00,83.3,32.5,30.00,ENE,68,16.1,16.1,16,0.00,,,0.00,VWS V14.01,2013-08-03 17:53:00,
2013-08-03 12:54:00,83.3,32.5,30.00,North,0,10.7,10.7,16,0.00,,,0.00,VWS V14.01,2013-08-03 17:54:00,
2013-08-03 12:55:00,83.7,32.8,30.00,NE,45,6.0,7.6,16,0.00,,,0.00,VWS V14.01,2013-08-03 17:55:00,
2013-08-03 12:56:00,84.4,33.3,30.00,NNE,22,7.4,7.6,16,0.00,,,0.00,VWS V14.01,2013-08-03 17:56:00,
2013-08-03 12:57:00,84.4,33.3,30.00,NNW,338,4.7,7.6,16,0.00,,,0.00,VWS V14.01,2013-08-03 17:57:00,
2013-08-03 12:58:00,84.4,33.3,30.00,SE,135,11.4,11.4,16,0.00,,,0.00,VWS V14.01,2013-08-03 17:58:00,
2013-08-03 12:59:00,84.4,33.3,30.00,WNW,292,17.5,17.5,16,0.00,,,0.00,VWS V14.01,2013-08-03 17:59:00,
2013-08-03 13:00:00,84.4,33.3,30.00,ENE,68,14.8,14.8,16,0.00,,,0.00,VWS V14.01,2013-08-03 18:00:00,
2013-08-03 13:01:00,84.0,29.8,30.00,NE,45,11.4,11.4,14,0.00,,,0.00,VWS V14.01,2013-08-03 18:01:00,
2013-08-03 13:02:00,83.7,29.5,30.00,East,90,10.1,10.1,14,0.00,,,0.00,VWS V14.01,2013-08-03 18:02:00,
2013-08-03 13:03:00,83.7,29.5,30.00,NNW,338,10.1,10.1,14,0.00,,,0.00,VWS V14.01,2013-08-03 18:03:00,
2013-08-03 13:04:00,84.2,28.1,30.00,East,90,7.4,7.4,13,0.00,,,0.00,VWS V14.01,2013-08-03 18:04:00,
2013-08-03 13:05:00,84.2,28.1,30.00,NNE,22,6.0,6.0,13,0.00,,,0.00,VWS V14.01,2013-08-03 18:05:00,
2013-08-03 13:06:00,84.9,28.6,30.00,NW,315,10.7,10.7,13,0.00,,,0.00,VWS V14.01,2013-08-03 18:06:00,
2013-08-03 13:07:00,84.9,28.6,30.00,NNW,338,8.1,8.1,13,0.00,,,0.00,VWS V14.01,2013-08-03 18:07:00,
2013-08-03 13:08:00,83.5,29.3,30.00,NW,315,12.8,12.8,14,0.00,,,0.00,VWS V14.01,2013-08-03 18:08:00,
2013-08-03 13:09:00,83.5,29.3,30.00,SW,225,0.0,5.8,14,0.00,,,0.00,VWS V14.01,2013-08-03 18:09:00,
2013-08-03 13:10:00,82.2,28.3,30.00,NW,315,12.1,12.1,14,0.00,,,0.00,VWS V14.01,2013-08-03 18:10:00,
2013-08-03 13:11:00,82.2,28.3,30.00,NNE,22,6.0,6.0,14,0.00,,,0.00,VWS V14.01,2013-08-03 18:11:00,
2013-08-03 13:12:00,80.6,27.0,30.00,NE,45,8.7,8.7,14,0.00,,,0.00,VWS V14.01,2013-08-03 18:12:00,
2013-08-03 13:13:00,80.8,27.2,30.00,NNE,22,6.7,6.7,14,0.00,,,0.00,VWS V14.01,2013-08-03 18:13:00,
2013-08-03 13:14:00,81.9,32.8,30.00,WNW,292,0.0,5.8,17,0.00,,,0.00,VWS V14.01,2013-08-03 18:14:00,
2013-08-03 13:15:00,81.7,32.7,30.00,WSW,248,8.1,8.1,17,0.00,,,0.00,VWS V14.01,2013-08-03 18:15:00,
2013-08-03 13:16:00,81.1,32.2,30.00,South,180,6.0,6.0,17,0.00,,,0.00,VWS V14.01,2013-08-03 18:16:00,
2013-08-03 13:17:00,80.4,31.7,30.00,North,0,4.0,5.8,17,0.00,,,0.00,VWS V14.01,2013-08-03 18:17:00,
2013-08-03 13:18:00,80.8,32.0,30.00,North,0,8.7,8.7,17,0.00,,,0.00,VWS V14.01,2013-08-03 18:18:00,
2013-08-03 13:19:00,81.7,32.7,30.00,NNE,22,8.7,8.7,17,0.00,,,0.00,VWS V14.01,2013-08-03 18:19:00,
2013-08-03 13:20:00,82.2,28.3,30.00,NNE,22,6.0,6.0,14,0.00,,,0.00,VWS V14.01,2013-08-03 18:20:00,
2013-08-03 13:21:00,82.8,28.8,30.00,SSW,202,6.0,6.0,14,0.00,,,0.00,VWS V14.01,2013-08-03 18:21:00,
2013-08-03 13:22:00,82.8,28.8,30.00,SSE,158,7.4,7.4,14,0.00,,,0.00,VWS V14.01,2013-08-03 18:22:00,
2013-08-03 13:23:00,83.5,29.3,30.00,SE,135,9.4,9.4,14,0.00,,,0.00,VWS V14.01,2013-08-03 18:23:00,
2013-08-03 13:24:00,82.9,28.9,30.00,NNW,338,10.7,10.7,14,0.00,,,0.00,VWS V14.01,2013-08-03 18:24:00,
2013-08-03 13:25:00,82.0,28.2,30.00,NNE,22,10.1,10.1,14,0.00,,,0.00,VWS V14.01,2013-08-03 18:25:00,
2013-08-03 13:26:00,82.0,28.2,30.00,NNW,338,8.7,8.7,14,0.00,,,0.00,VWS V14.01,2013-08-03 18:26:00,
2013-08-03 13:27:00,82.0,28.2,30.00,East,90,11.4,11.4,14,0.00,,,0.00,VWS V14.01,2013-08-03 18:27:00,
2013-08-03 13:28:00,80.2,28.4,30.00,North,0,4.7,4.7,15,0.00,,,0.00,VWS V14.01,2013-08-03 18:28:00,
2013-08-03 13:29:00,80.2,28.4,30.00,North,0,4.7,4.7,15,0.00,,,0.00,VWS V14.01,2013-08-03 18:29:00,
2013-08-03 13:30:00,78.8,27.3,30.00,ESE,112,7.4,7.4,15,0.00,,,0.00,VWS V14.01,2013-08-03 18:30:00,
2013-08-03 13:31:00,78.1,26.7,30.00,NE,45,8.1,8.1,15,0.00,,,0.00,VWS V14.01,2013-08-03 18:31:00,
2013-08-03 13:32:00,77.9,26.6,30.00,SSE,158,6.7,6.7,15,0.00,,,0.00,VWS V14.01,2013-08-03 18:32:00,
2013-08-03 13:33:00,77.2,30.4,30.00,NNW,338,6.7,6.7,18,0.00,,,0.00,VWS V14.01,2013-08-03 18:33:00,
2013-08-03 13:34:00,77.2,30.4,30.00,ENE,68,7.4,7.4,18,0.00,,,0.00,VWS V14.01,2013-08-03 18:34:00,
2013-08-03 13:35:00,77.2,30.4,30.00,SSW,202,7.4,7.4,18,0.00,,,0.00,VWS V14.01,2013-08-03 18:35:00,
2013-08-03 13:36:00,79.0,30.5,30.00,ENE,68,8.7,8.7,17,0.00,,,0.00,VWS V14.01,2013-08-03 18:36:00,
2013-08-03 13:37:00,79.5,30.9,30.00,WNW,292,4.0,4.0,17,0.00,,,0.00,VWS V14.01,2013-08-03 18:37:00,
2013-08-03 13:38:00,80.4,31.7,30.00,West,270,7.4,7.4,17,0.00,,,0.00,VWS V14.01,2013-08-03 18:38:00,
2013-08-03 13:39:00,80.4,31.7,30.00,SSW,202,6.7,6.7,17,0.00,,,0.00,VWS V14.01,2013-08-03 18:39:00,
2013-08-03 13:40:00,82.0,33.0,30.00,SSW,202,6.7,6.7,17,0.00,,,0.00,VWS V14.01,2013-08-03 18:40:00,
2013-08-03 13:41:00,82.9,32.2,30.00,NNW,338,0.0,3.8,16,0.00,,,0.00,VWS V14.01,2013-08-03 18:41:00,
2013-08-03 13:42:00,82.9,32.2,30.00,NNW,338,0.0,3.8,16,0.00,,,0.00,VWS V14.01,2013-08-03 18:42:00,
2013-08-03 13:43:00,83.5,32.6,30.00,WNW,292,8.7,8.7,16,0.00,,,0.00,VWS V14.01,2013-08-03 18:43:00,
2013-08-03 13:44:00,83.5,32.6,30.00,SSE,158,9.4,9.4,16,0.00,,,0.00,VWS V14.01,2013-08-03 18:44:00,
2013-08-03 13:45:00,83.5,32.6,30.00,SSE,158,9.4,9.4,16,0.00,,,0.00,VWS V14.01,2013-08-03 18:45:00,
2013-08-03 13:46:00,83.8,32.9,30.00,SSE,158,9.4,9.4,16,0.00,,,0.00,VWS V14.01,2013-08-03 18:46:00,
2013-08-03 13:47:00,84.2,33.2,30.00,NW,315,9.4,9.4,16,0.00,,,0.00,VWS V14.01,2013-08-03 18:47:00,
2013-08-03 13:48:00,84.9,28.6,30.00,NW,315,9.4,9.4,13,0.00,,,0.00,VWS V14.01,2013-08-03 18:48:00,
2013-08-03 13:49:00,84.9,28.6,30.00,NW,315,9.4,9.4,13,0.00,,,0.00,VWS V14.01,2013-08-03 18:49:00,
2013-08-03 13:50:00,84.9,28.6,30.00,NW,315,9.4,9.4,13,0.00,,,0.00,VWS V14.01,2013-08-03 18:50:00,
2013-08-03 13:51:00,84.4,28.2,30.00,NW,315,9.4,9.4,13,0.00,,,0.00,VWS V14.01,2013-08-03 18:51:00,
2013-08-03 13:52:00,84.6,28.4,30.00,NW,315,9.4,9.4,13,0.00,,,0.00,VWS V14.01,2013-08-03 18:52:00,
2013-08-03 13:53:00,84.9,28.6,30.00,SSW,202,11.4,11.4,13,0.00,,,0.00,VWS V14.01,2013-08-03 18:53:00,
2013-08-03 13:54:00,84.7,28.5,30.00,SSE,158,12.8,12.8,13,0.00,,,0.00,VWS V14.01,2013-08-03 18:54:00,
2013-08-03 13:55:00,83.3,29.2,30.00,North,0,4.7,4.7,14,0.00,,,0.00,VWS V14.01,2013-08-03 18:55:00,
2013-08-03 13:56:00,82.6,28.6,30.00,North,0,4.7,4.7,14,0.00,,,0.00,VWS V14.01,2013-08-03 18:56:00,
2013-08-03 13:57:00,81.9,28.0,30.00,WSW,248,10.7,10.7,14,0.00,,,0.00,VWS V14.01,2013-08-03 18:57:00,
2013-08-03 13:58:00,81.9,28.0,30.00,WNW,292,0.0,4.3,14,0.00,,,0.00,VWS V14.01,2013-08-03 18:58:00,
2013-08-03 13:59:00,82.9,28.9,30.00,SE,135,6.7,6.7,14,0.00,,,0.00,VWS V14.01,2013-08-03 18:59:00,
2013-08-03 14:00:00,83.7,29.5,30.00,SE,135,6.7,6.7,14,0.00,,,0.00,VWS V14.01,2013-08-03 19:00:00,
2013-08-03 14:01:00,84.0,29.8,30.00,SE,135,6.7,6.7,14,0.00,,,0.00,VWS V14.01,2013-08-03 19:01:00,
2013-08-03 14:02:00,83.7,29.5,30.00,SE,135,6.7,6.7,14,0.00,,,0.00,VWS V14.01,2013-08-03 19:02:00,
2013-08-03 14:03:00,82.6,28.6,30.00,SE,135,6.7,6.7,14,0.00,,,0.00,VWS V14.01,2013-08-03 19:03:00,
2013-08-03 14:04:00,81.9,28.0,30.00,SE,135,6.7,6.7,14,0.00,,,0.00,VWS V14.01,2013-08-03 19:04:00,
2013-08-03 14:05:00,81.3,27.6,30.00,NW,315,6.7,6.7,14,0.00,,,0.00,VWS V14.01,2013-08-03 19:05:00,
2013-08-03 14:06:00,80.8,27.2,30.00,NW,315,6.7,6.7,14,0.00,,,0.00,VWS V14.01,2013-08-03 19:06:00,
2013-08-03 14:07:00,80.1,28.3,30.00,NNE,22,6.7,6.7,15,0.00,,,0.00,VWS V14.01,2013-08-03 19:07:00,
2013-08-03 14:08:00,80.1,28.3,30.00,NNW,338,4.0,4.3,15,0.00,,,0.00,VWS V14.01,2013-08-03 19:08:00,
2013-08-03 14:09:00,79.3,27.7,30.00,West,270,6.0,6.0,15,0.00,,,0.00,VWS V14.01,2013-08-03 19:09:00,
2013-08-03 14:10:00,79.2,27.6,30.00,West,270,6.0,6.0,15,0.00,,,0.00,VWS V14.01,2013-08-03 19:10:00,
2013-08-03 14:11:00,80.6,31.8,30.00,NW,315,8.1,8.1,17,0.00,,,0.00,VWS V14.01,2013-08-03 19:11:00,
2013-08-03 14:12:00,81.7,27.9,30.00,East,90,6.0,6.0,14,0.00,,,0.00,VWS V14.01,2013-08-03 19:12:00,
2013-08-03 14:13:00,82.4,28.5,30.00,WNW,292,4.0,4.3,14,0.00,,,0.00,VWS V14.01,2013-08-03 19:13:00,
2013-08-03 14:14:00,82.4,28.5,30.00,South,180,11.4,11.4,14,0.00,,,0.00,VWS V14.01,2013-08-03 19:14:00,
2013-08-03 14:15:00,81.7,27.9,30.00,SSE,158,21.5,21.5,14,0.00,,,0.00,VWS V14.01,2013-08-03 19:15:00,
2013-08-03 14:16:00,80.6,27.0,30.00,NNW,338,10.1,10.1,14,0.00,,,0.00,VWS V14.01,2013-08-03 19:16:00,
2013-08-03 14:17:00,80.6,27.0,30.00,NE,45,6.7,7.2,14,0.00,,,0.00,VWS V14.01,2013-08-03 19:17:00,
2013-08-03 14:18:00,81.5,27.8,30.00,ENE,68,7.4,7.4,14,0.00,,,0.00,VWS V14.01,2013-08-03 19:18:00,
2013-08-03 14:19:00,81.5,27.8,30.00,NW,315,8.7,8.7,14,0.00,,,0.00,VWS V14.01,2013-08-03 19:19:00,
2013-08-03 14:20:00,81.1,27.5,30.00,NNE,22,7.4,7.4,14,0.00,,,0.00,VWS V14.01,2013-08-03 19:20:00,
2013-08-03 14:21:00,81.1,27.5,30.00,NNE,22,9.4,9.4,14,0.00,,,0.00,VWS V14.01,2013-08-03 19:21:00,
2013-08-03 14:22:00,80.1,28.3,30.00,NNE,22,9.4,9.4,15,0.00,,,0.00,VWS V14.01,2013-08-03 19:22:00,
2013-08-03 14:23:00,79.3,27.7,30.00,NW,315,11.4,11.4,15,0.00,,,0.00,VWS V14.01,2013-08-03 19:23:00,
2013-08-03 14:24:00,79.5,30.9,30.00,North,0,7.4,7.4,17,0.00,,,0.00,VWS V14.01,2013-08-03 19:24:00,
2013-08-03 14:25:00,79.3,30.8,30.00,East,90,10.1,10.1,17,0.00,,,0.00,VWS V14.01,2013-08-03 19:25:00,
2013-08-03 14:26:00,78.3,26.9,30.00,East,90,10.1,10.1,15,0.00,,,0.00,VWS V14.01,2013-08-03 19:26:00,
2013-08-03 14:27:00,78.3,26.9,30.00,North,0,8.7,8.7,15,0.00,,,0.00,VWS V14.01,2013-08-03 19:27:00,
2013-08-03 14:28:00,77.5,30.7,30.00,NE,45,8.7,8.7,18,0.00,,,0.00,VWS V14.01,2013-08-03 19:28:00,
2013-08-03 14:29:00,77.2,30.4,30.00,NNW,338,9.4,9.4,18,0.00,,,0.00,VWS V14.01,2013-08-03 19:29:00,
2013-08-03 14:30:00,77.0,25.9,30.00,NNW,338,9.4,9.4,15,0.00,,,0.00,VWS V14.01,2013-08-03 19:30:00,
2013-08-03 14:31:00,76.6,30.0,30.00,NNW,338,9.4,9.4,18,0.00,,,0.00,VWS V14.01,2013-08-03 19:31:00,
2013-08-03 14:32:00,76.6,30.0,30.00,NNW,338,9.4,9.4,18,0.00,,,0.00,VWS V14.01,2013-08-03 19:32:00,
2013-08-03 14:33:00,77.2,30.4,30.00,NNW,338,9.4,9.4,18,0.00,,,0.00,VWS V14.01,2013-08-03 19:33:00,
2013-08-03 14:34:00,77.2,30.4,30.00,NNE,22,8.1,8.1,18,0.00,,,0.00,VWS V14.01,2013-08-03 19:34:00,
2013-08-03 14:35:00,77.2,30.4,30.00,NNE,22,8.1,8.1,18,0.00,,,0.00,VWS V14.01,2013-08-03 19:35:00,
2013-08-03 14:36:00,77.9,31.0,30.00,NE,45,8.7,8.7,18,0.00,,,0.00,VWS V14.01,2013-08-03 19:36:00,
2013-08-03 14:37:00,77.9,31.0,30.00,NE,45,6.0,6.0,18,0.00,,,0.00,VWS V14.01,2013-08-03 19:37:00,
2013-08-03 14:38:00,77.9,31.0,30.00,NE,45,6.0,6.0,18,0.00,,,0.00,VWS V14.01,2013-08-03 19:38:00,
2013-08-03 14:39:00,78.3,31.3,30.00,NE,45,6.0,6.0,18,0.00,,,0.00,VWS V14.01,2013-08-03 19:39:00,
2013-08-03 14:40:00,78.3,31.3,30.00,NW,315,7.4,7.4,18,0.00,,,0.00,VWS V14.01,2013-08-03 19:40:00,
2013-08-03 14:41:00,77.9,31.0,30.00,NNW,338,4.7,4.7,18,0.00,,,0.00,VWS V14.01,2013-08-03 19:41:00,
2013-08-03 14:42:00,77.9,31.0,30.00,NNW,338,11.4,11.4,18,0.00,,,0.00,VWS V14.01,2013-08-03 19:42:00,
2013-08-03 14:43:00,77.5,30.7,30.00,WNW,292,10.1,10.1,18,0.00,,,0.00,VWS V14.01,2013-08-03 19:43:00,
2013-08-03 14:44:00,77.2,30.4,30.00,WNW,292,10.1,10.1,18,0.00,,,0.00,VWS V14.01,2013-08-03 19:44:00,
2013-08-03 14:45:00,77.2,30.4,30.00,NNE,22,14.1,14.1,18,0.00,,,0.00,VWS V14.01,2013-08-03 19:45:00,
2013-08-03 14:46:00,76.8,30.1,30.00,SE,135,8.1,8.1,18,0.00,,,0.00,VWS V14.01,2013-08-03 19:46:00,
2013-08-03 14:47:00,77.4,30.6,30.00,SE,135,8.1,8.1,18,0.00,,,0.00,VWS V14.01,2013-08-03 19:47:00,
2013-08-03 14:48:00,79.0,30.5,30.00,NE,45,7.4,7.4,17,0.00,,,0.00,VWS V14.01,2013-08-03 19:48:00,
2013-08-03 14:49:00,80.1,31.4,30.00,NNE,22,8.7,8.7,17,0.00,,,0.00,VWS V14.01,2013-08-03 19:49:00,
2013-08-03 14:50:00,80.1,31.4,30.00,NE,45,16.8,16.8,17,0.00,,,0.00,VWS V14.01,2013-08-03 19:50:00,
2013-08-03 14:51:00,79.7,31.1,30.00,NNW,338,12.1,12.1,17,0.00,,,0.00,VWS V14.01,2013-08-03 19:51:00,
2013-08-03 14:52:00,79.5,30.9,30.00,NE,45,8.7,8.7,17,0.00,,,0.00,VWS V14.01,2013-08-03 19:52:00,
2013-08-03 14:53:00,79.5,27.9,30.00,ESE,112,7.4,7.4,15,0.00,,,0.00,VWS V14.01,2013-08-03 19:53:00,
2013-08-03 14:54:00,79.2,30.6,30.00,ESE,112,8.1,8.1,17,0.00,,,0.00,VWS V14.01,2013-08-03 19:54:00,
2013-08-03 14:55:00,79.0,30.5,30.00,NW,315,6.7,6.7,17,0.00,,,0.00,VWS V14.01,2013-08-03 19:55:00,
2013-08-03 14:56:00,78.8,27.3,30.00,NNE,22,4.7,5.6,15,0.00,,,0.00,VWS V14.01,2013-08-03 19:56:00,
2013-08-03 14:57:00,80.2,28.4,30.00,NNW,338,8.7,8.7,15,0.00,,,0.00,VWS V14.01,2013-08-03 19:57:00,
2013-08-03 14:58:00,80.2,28.4,30.00,West,270,4.0,5.6,15,0.00,,,0.00,VWS V14.01,2013-08-03 19:58:00,
2013-08-03 14:59:00,80.2,28.4,30.00,West,270,4.0,5.6,15,0.00,,,0.00,VWS V14.01,2013-08-03 19:59:00,
2013-08-03 15:00:00,80.2,28.4,30.00,WSW,248,10.1,10.1,15,0.00,,,0.00,VWS V14.01,2013-08-03 20:00:00,
2013-08-03 15:01:00,81.0,27.3,30.00,East,90,6.7,6.7,14,0.00,,,0.00,VWS V14.01,2013-08-03 20:01:00,
2013-08-03 15:02:00,80.4,28.6,30.00,East,90,6.7,6.7,15,0.00,,,0.00,VWS V14.01,2013-08-03 20:02:00,
2013-08-03 15:03:00,81.0,27.3,30.00,East,90,6.7,6.7,14,0.00,,,0.00,VWS V14.01,2013-08-03 20:03:00,
2013-08-03 15:04:00,81.1,27.5,30.00,East,90,6.7,6.7,14,0.00,,,0.00,VWS V14.01,2013-08-03 20:04:00,
2013-08-03 15:05:00,80.6,27.0,30.00,East,90,6.7,6.7,14,0.00,,,0.00,VWS V14.01,2013-08-03 20:05:00,
2013-08-03 15:06:00,80.4,28.6,30.00,East,90,6.7,6.7,15,0.00,,,0.00,VWS V14.01,2013-08-03 20:06:00,
2013-08-03 15:07:00,79.9,28.1,30.00,East,90,6.7,6.7,15,0.00,,,0.00,VWS V14.01,2013-08-03 20:07:00,
2013-08-03 15:08:00,79.5,27.9,30.00,East,90,6.7,6.7,15,0.00,,,0.00,VWS V14.01,2013-08-03 20:08:00,
2013-08-03 15:09:00,79.0,27.4,30.00,North,0,8.1,8.1,15,0.00,,,0.00,VWS V14.01,2013-08-03 20:09:00,
2013-08-03 15:10:00,78.6,27.1,30.00,North,0,12.1,12.1,15,0.00,,,0.00,VWS V14.01,2013-08-03 20:10:00,
2013-08-03 15:11:00,77.9,26.6,30.00,NE,45,12.1,12.1,15,0.00,,,0.00,VWS V14.01,2013-08-03 20:11:00,
2013-08-03 15:12:00,77.5,26.3,30.00,NE,45,4.7,4.7,15,0.00,,,0.00,VWS V14.01,2013-08-03 20:12:00,
2013-08-03 15:13:00,77.5,26.3,30.00,NNE,22,8.1,8.1,15,0.00,,,0.00,VWS V14.01,2013-08-03 20:13:00,
2013-08-03 15:14:00,76.8,25.7,30.00,NW,315,10.7,10.7,15,0.00,,,0.00,VWS V14.01,2013-08-03 20:14:00,
2013-08-03 15:15:00,76.6,25.6,30.00,NNW,338,4.0,4.0,15,0.00,,,0.00,VWS V14.01,2013-08-03 20:15:00,
2013-08-03 15:16:00,77.4,26.1,30.00,NNW,338,4.0,4.0,15,0.00,,,0.00,VWS V14.01,2013-08-03 20:16:00,
2013-08-03 15:17:00,78.3,26.9,30.00,NNW,338,4.0,4.0,15,0.00,,,0.00,VWS V14.01,2013-08-03 20:17:00,
2013-08-03 15:18:00,79.3,30.8,30.00,NNW,338,4.0,4.0,17,0.00,,,0.00,VWS V14.01,2013-08-03 20:18:00,
2013-08-03 15:19:00,80.4,28.6,30.00,NNW,338,4.0,4.0,15,0.00,,,0.00,VWS V14.01,2013-08-03 20:19:00,
2013-08-03 15:20:00,79.9,28.1,30.00,NNW,338,4.0,4.0,15,0.00,,,0.00,VWS V14.01,2013-08-03 20:20:00,
2013-08-03 15:21:00,79.7,28.0,30.00,NNW,338,4.0,4.0,15,0.00,,,0.00,VWS V14.01,2013-08-03 20:21:00,
2013-08-03 15:22:00,80.2,28.4,30.00,NNW,338,4.0,4.0,15,0.00,,,0.00,VWS V14.01,2013-08-03 20:22:00,
2013-08-03 15:23:00,80.2,28.4,30.00,NNW,338,4.0,4.0,15,0.00,,,0.00,VWS V14.01,2013-08-03 20:23:00,
2013-08-03 15:24:00,80.1,28.3,30.00,NNW,338,4.0,4.0,15,0.00,,,0.00,VWS V14.01,2013-08-03 20:24:00,
2013-08-03 15:25:00,79.7,28.0,30.00,NNW,338,4.0,4.0,15,0.00,,,0.00,VWS V14.01,2013-08-03 20:25:00,
2013-08-03 15:26:00,79.5,27.9,30.00,NNW,338,4.0,4.0,15,0.00,,,0.00,VWS V14.01,2013-08-03 20:26:00,
2013-08-03 15:27:00,79.2,27.6,30.00,NE,45,8.7,8.7,15,0.00,,,0.00,VWS V14.01,2013-08-03 20:27:00,
2013-08-03 15:28:00,79.5,27.9,30.00,NE,45,8.7,8.7,15,0.00,,,0.00,VWS V14.01,2013-08-03 20:28:00,
2013-08-03 15:29:00,80.2,28.4,30.00,NE,45,8.7,8.7,15,0.00,,,0.00,VWS V14.01,2013-08-03 20:29:00,
2013-08-03 15:30:00,80.4,28.6,30.00,NE,45,8.7,8.7,15,0.00,,,0.00,VWS V14.01,2013-08-03 20:30:00,
2013-08-03 15:31:00,80.8,27.2,30.00,NE,45,8.7,8.7,14,0.00,,,0.00,VWS V14.01,2013-08-03 20:31:00,
2013-08-03 15:32:00,81.5,27.8,30.00,NE,45,8.7,8.7,14,0.00,,,0.00,VWS V14.01,2013-08-03 20:32:00,
2013-08-03 15:33:00,81.3,27.6,30.00,NE,45,8.7,8.7,14,0.00,,,0.00,VWS V14.01,2013-08-03 20:33:00,
2013-08-03 15:34:00,81.9,28.0,30.00,NE,45,8.7,8.7,14,0.00,,,0.00,VWS V14.01,2013-08-03 20:34:00,
2013-08-03 15:35:00,82.0,28.2,30.00,NE,45,8.7,8.7,14,0.00,,,0.00,VWS V14.01,2013-08-03 20:35:00,
2013-08-03 15:36:00,82.4,28.5,30.00,North,0,6.7,6.7,14,0.00,,,0.00,VWS V14.01,2013-08-03 20:36:00,
2013-08-03 15:37:00,82.8,28.8,30.00,NNE,22,6.0,6.0,14,0.00,,,0.00,VWS V14.01,2013-08-03 20:37:00,
2013-08-03 15:38:00,82.9,28.9,30.00,NNE,22,6.0,6.0,14,0.00,,,0.00,VWS V14.01,2013-08-03 20:38:00,
2013-08-03 15:39:00,83.1,29.0,30.00,NNE,22,6.0,6.0,14,0.00,,,0.00,VWS V14.01,2013-08-03 20:39:00,
2013-08-03 15:40:00,83.7,29.5,30.00,NNE,22,6.0,6.0,14,0.00,,,0.00,VWS V14.01,2013-08-03 20:40:00,
2013-08-03 15:41:00,84.4,28.2,30.00,NNE,22,6.0,6.0,13,0.00,,,0.00,VWS V14.01,2013-08-03 20:41:00,
2013-08-03 15:42:00,84.7,28.5,30.00,NE,45,9.4,9.4,13,0.00,,,0.00,VWS V14.01,2013-08-03 20:42:00,
2013-08-03 15:43:00,84.4,28.2,30.00,NE,45,9.4,9.4,13,0.00,,,0.00,VWS V14.01,2013-08-03 20:43:00,
2013-08-03 15:44:00,83.5,29.3,30.00,NE,45,9.4,9.4,14,0.00,,,0.00,VWS V14.01,2013-08-03 20:44:00,
2013-08-03 15:45:00,82.6,28.6,30.00,NNW,338,11.4,11.4,14,0.00,,,0.00,VWS V14.01,2013-08-03 20:45:00,
2013-08-03 15:46:00,82.6,28.6,30.00,NW,315,9.4,9.4,14,0.00,,,0.00,VWS V14.01,2013-08-03 20:46:00,
2013-08-03 15:47:00,82.0,28.2,30.00,NW,315,9.4,9.4,14,0.00,,,0.00,VWS V14.01,2013-08-03 20:47:00,
2013-08-03 15:48:00,81.3,27.6,30.00,NNE,22,6.0,6.0,14,0.00,,,0.00,VWS V14.01,2013-08-03 20:48:00,
2013-08-03 15:49:00,80.2,28.4,30.00,NE,45,4.7,4.7,15,0.00,,,0.00,VWS V14.01,2013-08-03 20:49:00,
2013-08-03 15:50:00,79.7,28.0,30.00,NE,45,7.4,7.4,15,0.00,,,0.00,VWS V14.01,2013-08-03 20:50:00,
2013-08-03 15:51:00,80.2,28.4,30.00,NE,45,7.4,7.4,15,0.00,,,0.00,VWS V14.01,2013-08-03 20:51:00,
2013-08-03 15:52:00,80.8,27.2,30.00,NE,45,7.4,7.4,14,0.00,,,0.00,VWS V14.01,2013-08-03 20:52:00,
2013-08-03 15:53:00,81.1,27.5,30.00,NE,45,7.4,7.4,14,0.00,,,0.00,VWS V14.01,2013-08-03 20:53:00,
2013-08-03 15:54:00,81.5,27.8,30.00,NE,45,7.4,7.4,14,0.00,,,0.00,VWS V14.01,2013-08-03 20:54:00,
2013-08-03 15:55:00,81.5,27.8,30.00,NE,45,7.4,7.4,14,0.00,,,0.00,VWS V14.01,2013-08-03 20:55:00,
2013-08-03 15:56:00,81.5,27.8,30.00,NE,45,8.1,8.1,14,0.00,,,0.00,VWS V14.01,2013-08-03 20:56:00,
2013-08-03 15:57:00,82.2,28.3,30.00,NE,45,8.1,8.1,14,0.00,,,0.00,VWS V14.01,2013-08-03 20:57:00,
2013-08-03 15:58:00,82.2,28.3,30.00,ENE,68,11.4,11.4,14,0.00,,,0.00,VWS V14.01,2013-08-03 20:58:00,
2013-08-03 15:59:00,81.9,28.0,30.00,ENE,68,11.4,11.4,14,0.00,,,0.00,VWS V14.01,2013-08-03 20:59:00,
2013-08-03 16:00:00,82.0,28.2,30.00,NNW,338,8.1,8.1,14,0.00,,,0.00,VWS V14.01,2013-08-03 21:00:00,
2013-08-03 16:01:00,82.0,28.2,30.00,NNW,338,8.1,8.1,14,0.00,,,0.00,VWS V14.01,2013-08-03 21:01:00,
2013-08-03 16:02:00,82.2,28.3,30.00,West,270,16.8,16.8,14,0.00,,,0.00,VWS V14.01,2013-08-03 21:02:00,
2013-08-03 16:03:00,82.2,28.3,30.00,West,270,16.8,16.8,14,0.00,,,0.00,VWS V14.01,2013-08-03 21:03:00,
2013-08-03 16:04:00,82.9,28.9,30.00,NNW,338,6.0,6.0,14,0.00,,,0.00,VWS V14.01,2013-08-03 21:04:00,
2013-08-03 16:05:00,83.1,29.0,30.00,NNW,338,6.0,6.0,14,0.00,,,0.00,VWS V14.01,2013-08-03 21:05:00,
2013-08-03 16:06:00,83.1,29.0,30.00,NW,315,14.8,14.8,14,0.00,,,0.00,VWS V14.01,2013-08-03 21:06:00,
2013-08-03 16:07:00,83.1,29.0,30.00,NNW,338,8.1,8.1,14,0.00,,,0.00,VWS V14.01,2013-08-03 21:07:00,
2013-08-03 16:08:00,83.1,29.0,30.00,SE,135,7.4,7.4,14,0.00,,,0.00,VWS V14.01,2013-08-03 21:08:00,
2013-08-03 16:09:00,83.3,29.2,30.00,SE,135,7.4,7.4,14,0.00,,,0.00,VWS V14.01,2013-08-03 21:09:00,
2013-08-03 16:10:00,82.8,28.8,30.00,NNW,338,10.1,10.1,14,0.00,,,0.00,VWS V14.01,2013-08-03 21:10:00,
2013-08-03 16:11:00,81.7,27.9,30.00,NNW,338,10.1,10.1,14,0.00,,,0.00,VWS V14.01,2013-08-03 21:11:00,
2013-08-03 16:12:00,79.7,28.0,30.03,NNW,338,10.1,10.1,15,0.00,,,0.00,VWS V14.01,2013-08-03 21:12:00,
2013-08-03 16:13:00,79.5,27.9,30.03,North,0,6.0,6.0,15,0.00,,,0.00,VWS V14.01,2013-08-03 21:13:00,
2013-08-03 16:14:00,78.8,27.3,30.03,North,0,6.0,6.0,15,0.00,,,0.00,VWS V14.01,2013-08-03 21:14:00,
2013-08-03 16:15:00,78.3,26.9,30.03,NE,45,9.4,9.4,15,0.00,,,0.00,VWS V14.01,2013-08-03 21:15:00,
2013-08-03 16:16:00,77.9,26.6,30.03,WNW,292,6.0,6.0,15,0.00,,,0.00,VWS V14.01,2013-08-03 21:16:00,
2013-08-03 16:17:00,77.7,26.4,30.03,WNW,292,6.0,6.0,15,0.00,,,0.00,VWS V14.01,2013-08-03 21:17:00,
2013-08-03 16:18:00,77.2,26.0,30.03,WNW,292,6.0,6.0,15,0.00,,,0.00,VWS V14.01,2013-08-03 21:18:00,
2013-08-03 16:19:00,76.6,25.6,30.03,NNE,22,6.7,6.7,15,0.00,,,0.00,VWS V14.01,2013-08-03 21:19:00,
2013-08-03 16:20:00,76.5,25.4,30.03,NW,315,4.7,5.6,15,0.00,,,0.00,VWS V14.01,2013-08-03 21:20:00,
2013-08-03 16:21:00,76.3,25.3,30.03,NW,315,4.0,5.6,15,0.00,,,0.00,VWS V14.01,2013-08-03 21:21:00,
2013-08-03 16:22:00,76.5,25.4,30.03,WSW,248,8.1,8.1,15,0.00,,,0.00,VWS V14.01,2013-08-03 21:22:00,
2013-08-03 16:23:00,77.0,25.9,30.03,NW,315,4.7,4.9,15,0.00,,,0.00,VWS V14.01,2013-08-03 21:23:00,
2013-08-03 16:24:00,77.5,26.3,30.03,NNW,338,7.4,7.4,15,0.00,,,0.00,VWS V14.01,2013-08-03 21:24:00,
2013-08-03 16:25:00,78.3,26.9,30.03,SSW,202,9.4,9.4,15,0.00,,,0.00,VWS V14.01,2013-08-03 21:25:00,
2013-08-03 16:26:00,79.0,27.4,30.03,NW,315,6.0,6.0,15,0.00,,,0.00,VWS V14.01,2013-08-03 21:26:00,
2013-08-03 16:27:00,79.7,28.0,30.00,NE,45,6.0,6.0,15,0.00,,,0.00,VWS V14.01,2013-08-03 21:27:00,
2013-08-03 16:28:00,79.7,28.0,30.00,SE,135,7.4,7.4,15,0.00,,,0.00,VWS V14.01,2013-08-03 21:28:00,
2013-08-03 16:29:00,79.0,27.4,30.00,WNW,292,6.0,6.0,15,0.00,,,0.00,VWS V14.01,2013-08-03 21:29:00,
2013-08-03 16:30:00,78.4,27.0,30.00,WNW,292,6.0,6.0,15,0.00,,,0.00,VWS V14.01,2013-08-03 21:30:00,
2013-08-03 16:31:00,78.3,26.9,30.00,WNW,292,6.0,6.0,15,0.00,,,0.00,VWS V14.01,2013-08-03 21:31:00,
2013-08-03 16:32:00,78.4,27.0,30.00,NE,45,8.1,8.1,15,0.00,,,0.00,VWS V14.01,2013-08-03 21:32:00,
2013-08-03 16:33:00,79.0,27.4,30.00,East,90,12.1,12.1,15,0.00,,,0.00,VWS V14.01,2013-08-03 21:33:00,
2013-08-03 16:34:00,80.2,28.4,30.00,SSE,158,12.1,12.1,15,0.00,,,0.00,VWS V14.01,2013-08-03 21:34:00,
2013-08-03 16:35:00,80.4,28.6,30.00,SSW,202,12.8,12.8,15,0.00,,,0.00,VWS V14.01,2013-08-03 21:35:00,
2013-08-03 16:36:00,80.4,28.6,30.00,SSW,202,12.8,12.8,15,0.00,,,0.00,VWS V14.01,2013-08-03 21:36:00,
2013-08-03 16:37:00,80.8,27.2,30.00,WNW,292,14.8,14.8,14,0.00,,,0.00,VWS V14.01,2013-08-03 21:37:00,
2013-08-03 16:38:00,80.8,27.2,30.00,NE,45,7.4,7.4,14,0.00,,,0.00,VWS V14.01,2013-08-03 21:38:00,
2013-08-03 16:39:00,81.1,27.5,30.00,NE,45,7.4,7.4,14,0.00,,,0.00,VWS V14.01,2013-08-03 21:39:00,
2013-08-03 16:40:00,81.1,27.5,30.00,NNW,338,10.7,10.7,14,0.00,,,0.00,VWS V14.01,2013-08-03 21:40:00,
2013-08-03 16:41:00,81.5,27.8,30.00,North,0,4.7,4.9,14,0.00,,,0.00,VWS V14.01,2013-08-03 21:41:00,
2013-08-03 16:42:00,82.0,28.2,30.00,NW,315,7.4,7.4,14,0.00,,,0.00,VWS V14.01,2013-08-03 21:42:00,
2013-08-03 16:43:00,81.9,28.0,30.00,NNE,22,10.1,10.1,14,0.00,,,0.00,VWS V14.01,2013-08-03 21:43:00,
2013-08-03 16:44:00,81.7,27.9,30.00,NE,45,7.4,7.4,14,0.00,,,0.00,VWS V14.01,2013-08-03 21:44:00,
2013-08-03 16:45:00,81.9,28.0,30.00,NW,315,8.1,8.1,14,0.00,,,0.00,VWS V14.01,2013-08-03 21:45:00,
2013-08-03 16:46:00,81.9,28.0,30.00,NNE,22,9.4,9.4,14,0.00,,,0.00,VWS V14.01,2013-08-03 21:46:00,
2013-08-03 16:47:00,82.0,28.2,30.00,NW,315,10.7,10.7,14,0.00,,,0.00,VWS V14.01,2013-08-03 21:47:00,
2013-08-03 16:48:00,82.0,28.2,30.00,North,0,9.4,9.4,14,0.00,,,0.00,VWS V14.01,2013-08-03 21:48:00,
2013-08-03 16:49:00,82.0,28.2,30.00,SSW,202,16.1,16.1,14,0.00,,,0.00,VWS V14.01,2013-08-03 21:49:00,
2013-08-03 16:50:00,82.8,28.8,30.00,South,180,3.4,5.4,14,0.00,,,0.00,VWS V14.01,2013-08-03 21:50:00,
2013-08-03 16:51:00,82.8,28.8,30.00,North,0,8.7,8.7,14,0.00,,,0.00,VWS V14.01,2013-08-03 21:51:00,
2013-08-03 16:52:00,82.9,28.9,30.00,West,270,9.4,9.4,14,0.00,,,0.00,VWS V14.01,2013-08-03 21:52:00,
2013-08-03 16:53:00,82.6,28.6,30.00,West,270,9.4,9.4,14,0.00,,,0.00,VWS V14.01,2013-08-03 21:53:00,
2013-08-03 16:54:00,82.4,28.5,30.00,West,270,9.4,9.4,14,0.00,,,0.00,VWS V14.01,2013-08-03 21:54:00,
2013-08-03 16:55:00,82.0,28.2,30.00,West,270,9.4,9.4,14,0.00,,,0.00,VWS V14.01,2013-08-03 21:55:00,
2013-08-03 16:56:00,82.0,28.2,30.00,NNE,22,7.4,7.4,14,0.00,,,0.00,VWS V14.01,2013-08-03 21:56:00,
2013-08-03 16:57:00,82.0,28.2,30.00,NNE,22,7.4,7.4,14,0.00,,,0.00,VWS V14.01,2013-08-03 21:57:00,
2013-08-03 16:58:00,81.9,28.0,30.00,NNW,338,12.8,12.8,14,0.00,,,0.00,VWS V14.01,2013-08-03 21:58:00,
2013-08-03 16:59:00,82.2,28.3,30.00,NNW,338,12.8,12.8,14,0.00,,,0.00,VWS V14.01,2013-08-03 21:59:00,
2013-08-03 17:00:00,82.0,28.2,30.00,ESE,112,7.4,7.4,14,0.00,,,0.00,VWS V14.01,2013-08-03 22:00:00,
2013-08-03 17:01:00,81.9,28.0,30.00,South,180,9.4,9.4,14,0.00,,,0.00,VWS V14.01,2013-08-03 22:01:00,
2013-08-03 17:02:00,82.0,28.2,30.00,South,180,9.4,9.4,14,0.00,,,0.00,VWS V14.01,2013-08-03 22:02:00,
2013-08-03 17:03:00,82.0,28.2,30.00,WNW,292,9.4,9.4,14,0.00,,,0.00,VWS V14.01,2013-08-03 22:03:00,
2013-08-03 17:04:00,82.2,28.3,30.00,NW,315,8.7,8.7,14,0.00,,,0.00,VWS V14.01,2013-08-03 22:04:00,
2013-08-03 17:05:00,82.4,28.5,30.00,NW,315,8.7,8.7,14,0.00,,,0.00,VWS V14.01,2013-08-03 22:05:00,
2013-08-03 17:06:00,82.6,28.6,30.00,NE,45,10.1,10.1,14,0.00,,,0.00,VWS V14.01,2013-08-03 22:06:00,
2013-08-03 17:07:00,82.6,28.6,30.00,NE,45,10.1,10.1,14,0.00,,,0.00,VWS V14.01,2013-08-03 22:07:00,
2013-08-03 17:08:00,82.6,28.6,30.00,ENE,68,8.1,8.1,14,0.00,,,0.00,VWS V14.01,2013-08-03 22:08:00,
2013-08-03 17:09:00,82.4,28.5,30.00,SSE,158,4.0,4.3,14,0.00,,,0.00,VWS V14.01,2013-08-03 22:09:00,
2013-08-03 17:10:00,82.2,28.3,30.00,SSE,158,4.0,4.3,14,0.00,,,0.00,VWS V14.01,2013-08-03 22:10:00,
2013-08-03 17:11:00,82.0,28.2,30.00,SSE,158,4.0,4.3,14,0.00,,,0.00,VWS V14.01,2013-08-03 22:11:00,
2013-08-03 17:12:00,81.9,28.0,30.00,WNW,292,4.7,4.7,14,0.00,,,0.00,VWS V14.01,2013-08-03 22:12:00,
2013-08-03 17:13:00,81.9,28.0,30.00,WNW,292,4.7,4.7,14,0.00,,,0.00,VWS V14.01,2013-08-03 22:13:00,
2013-08-03 17:14:00,81.9,28.0,30.00,WNW,292,4.7,4.7,14,0.00,,,0.00,VWS V14.01,2013-08-03 22:14:00,
2013-08-03 17:15:00,82.0,28.2,30.00,ESE,112,4.7,4.7,14,0.00,,,0.00,VWS V14.01,2013-08-03 22:15:00,
2013-08-03 17:16:00,82.0,28.2,30.00,NE,45,9.4,9.4,14,0.00,,,0.00,VWS V14.01,2013-08-03 22:16:00,
2013-08-03 17:17:00,81.9,28.0,30.00,NE,45,10.7,10.7,14,0.00,,,0.00,VWS V14.01,2013-08-03 22:17:00,
2013-08-03 17:18:00,82.2,28.3,30.00,NW,315,6.0,6.0,14,0.00,,,0.00,VWS V14.01,2013-08-03 22:18:00,
2013-08-03 17:19:00,82.4,28.5,30.00,WSW,248,6.0,6.0,14,0.00,,,0.00,VWS V14.01,2013-08-03 22:19:00,
2013-08-03 17:20:00,82.4,28.5,30.00,NNW,338,10.7,10.7,14,0.00,,,0.00,VWS V14.01,2013-08-03 22:20:00,
2013-08-03 17:21:00,82.2,28.3,30.00,West,270,12.1,12.1,14,0.00,,,0.00,VWS V14.01,2013-08-03 22:21:00,
2013-08-03 17:22:00,82.0,28.2,30.00,West,270,12.1,12.1,14,0.00,,,0.00,VWS V14.01,2013-08-03 22:22:00,
2013-08-03 17:23:00,81.7,27.9,30.00,NNE,22,8.7,8.7,14,0.00,,,0.00,VWS V14.01,2013-08-03 22:23:00,
2013-08-03 17:24:00,82.0,28.2,30.00,North,0,10.1,10.1,14,0.00,,,0.00,VWS V14.01,2013-08-03 22:24:00,
2013-08-03 17:25:00,82.2,28.3,30.00,North,0,8.7,8.7,14,0.00,,,0.00,VWS V14.01,2013-08-03 22:25:00,
2013-08-03 17:26:00,82.4,28.5,30.00,NE,45,10.7,10.7,14,0.00,,,0.00,VWS V14.01,2013-08-03 22:26:00,
2013-08-03 17:27:00,82.2,28.3,30.00,ENE,68,7.4,7.4,14,0.00,,,0.00,VWS V14.01,2013-08-03 22:27:00,
2013-08-03 17:28:00,82.0,28.2,30.00,ENE,68,10.7,10.7,14,0.00,,,0.00,VWS V14.01,2013-08-03 22:28:00,
2013-08-03 17:29:00,82.0,28.2,30.00,NE,45,12.8,12.8,14,0.00,,,0.00,VWS V14.01,2013-08-03 22:29:00,
2013-08-03 17:30:00,81.7,27.9,30.00,NW,315,4.7,4.7,14,0.00,,,0.00,VWS V14.01,2013-08-03 22:30:00,
2013-08-03 17:31:00,81.1,27.5,30.00,North,0,18.1,18.1,14,0.00,,,0.00,VWS V14.01,2013-08-03 22:31:00,
2013-08-03 17:32:00,80.6,27.0,30.00,NNE,22,12.1,12.1,14,0.00,,,0.00,VWS V14.01,2013-08-03 22:32:00,
2013-08-03 17:33:00,80.4,28.6,30.00,NNE,22,12.1,12.1,15,0.00,,,0.00,VWS V14.01,2013-08-03 22:33:00,
2013-08-03 17:34:00,80.1,28.3,30.00,NNE,22,12.1,12.1,15,0.00,,,0.00,VWS V14.01,2013-08-03 22:34:00,
2013-08-03 17:35:00,80.2,28.4,30.00,NNE,22,4.0,6.0,15,0.00,,,0.00,VWS V14.01,2013-08-03 22:35:00,
2013-08-03 17:36:00,80.4,28.6,30.00,NNW,338,12.8,12.8,15,0.00,,,0.00,VWS V14.01,2013-08-03 22:36:00,
2013-08-03 17:37:00,80.6,27.0,30.00,ENE,68,7.4,7.4,14,0.00,,,0.00,VWS V14.01,2013-08-03 22:37:00,
2013-08-03 17:38:00,80.8,27.2,30.00,NNE,22,10.1,10.1,14,0.00,,,0.00,VWS V14.01,2013-08-03 22:38:00,
2013-08-03 17:39:00,80.8,27.2,30.00,NW,315,6.7,6.7,14,0.00,,,0.00,VWS V14.01,2013-08-03 22:39:00,
2013-08-03 17:40:00,80.8,27.2,30.00,NNE,22,4.7,6.0,14,0.00,,,0.00,VWS V14.01,2013-08-03 22:40:00,
2013-08-03 17:41:00,81.0,27.3,30.00,NNW,338,7.4,7.4,14,0.00,,,0.00,VWS V14.01,2013-08-03 22:41:00,
2013-08-03 17:42:00,80.8,27.2,30.00,NNE,22,12.8,12.8,14,0.00,,,0.00,VWS V14.01,2013-08-03 22:42:00,
2013-08-03 17:43:00,81.0,27.3,30.00,North,0,9.4,9.4,14,0.00,,,0.00,VWS V14.01,2013-08-03 22:43:00,
2013-08-03 17:44:00,80.8,27.2,30.00,North,0,9.4,9.4,14,0.00,,,0.00,VWS V14.01,2013-08-03 22:44:00,
2013-08-03 17:45:00,80.8,27.2,30.00,WNW,292,8.1,8.1,14,0.00,,,0.00,VWS V14.01,2013-08-03 22:45:00,
2013-08-03 17:46:00,80.8,27.2,30.00,East,90,8.7,8.7,14,0.00,,,0.00,VWS V14.01,2013-08-03 22:46:00,
2013-08-03 17:47:00,80.4,28.6,30.00,WSW,248,4.7,6.0,15,0.00,,,0.00,VWS V14.01,2013-08-03 22:47:00,
2013-08-03 17:48:00,80.4,28.6,30.00,North,0,4.7,6.0,15,0.00,,,0.00,VWS V14.01,2013-08-03 22:48:00,
2013-08-03 17:49:00,80.4,28.6,30.00,NNE,22,8.1,8.1,15,0.00,,,0.00,VWS V14.01,2013-08-03 22:49:00,
2013-08-03 17:50:00,80.2,28.4,30.00,North,0,8.7,8.7,15,0.00,,,0.00,VWS V14.01,2013-08-03 22:50:00,
2013-08-03 17:51:00,80.2,28.4,30.00,NW,315,8.1,8.1,15,0.00,,,0.00,VWS V14.01,2013-08-03 22:51:00,
2013-08-03 17:52:00,80.1,28.3,30.00,NNE,22,9.4,9.4,15,0.00,,,0.00,VWS V14.01,2013-08-03 22:52:00,
2013-08-03 17:53:00,80.2,28.4,30.00,NNE,22,3.4,4.3,15,0.00,,,0.00,VWS V14.01,2013-08-03 22:53:00,
2013-08-03 17:54:00,80.4,28.6,30.00,WSW,248,11.4,11.4,15,0.00,,,0.00,VWS V14.01,2013-08-03 22:54:00,
2013-08-03 17:55:00,80.2,28.4,30.00,SE,135,10.1,10.1,15,0.00,,,0.00,VWS V14.01,2013-08-03 22:55:00,
2013-08-03 17:56:00,80.2,28.4,30.00,NNW,338,4.7,4.7,15,0.00,,,0.00,VWS V14.01,2013-08-03 22:56:00,
2013-08-03 17:57:00,80.1,28.3,30.03,NNE,22,10.7,10.7,15,0.00,,,0.00,VWS V14.01,2013-08-03 22:57:00,
2013-08-03 17:58:00,79.9,28.1,30.03,North,0,12.1,12.1,15,0.00,,,0.00,VWS V14.01,2013-08-03 22:58:00,
2013-08-03 17:59:00,79.7,28.0,30.03,WSW,248,9.4,9.4,15,0.00,,,0.00,VWS V14.01,2013-08-03 22:59:00,
2013-08-03 18:00:00,79.5,27.9,30.03,SSE,158,6.7,6.7,15,0.00,,,0.00,VWS V14.01,2013-08-03 23:00:00,
2013-08-03 18:01:00,79.9,28.1,30.03,SW,225,4.7,4.7,15,0.00,,,0.00,VWS V14.01,2013-08-03 23:01:00,
2013-08-03 18:02:00,79.7,28.0,30.03,WNW,292,17.5,17.5,15,0.00,,,0.00,VWS V14.01,2013-08-03 23:02:00,
2013-08-03 18:03:00,79.7,28.0,30.03,ENE,68,7.4,7.4,15,0.00,,,0.00,VWS V14.01,2013-08-03 23:03:00,
2013-08-03 18:04:00,79.7,28.0,30.03,ENE,68,7.4,7.4,15,0.00,,,0.00,VWS V14.01,2013-08-03 23:04:00,
2013-08-03 18:05:00,79.7,28.0,30.03,ENE,68,7.4,7.4,15,0.00,,,0.00,VWS V14.01,2013-08-03 23:05:00,
2013-08-03 18:06:00,79.7,28.0,30.03,NE,45,12.1,12.1,15,0.00,,,0.00,VWS V14.01,2013-08-03 23:06:00,
2013-08-03 18:07:00,79.7,28.0,30.03,NNE,22,7.4,7.4,15,0.00,,,0.00,VWS V14.01,2013-08-03 23:07:00,
2013-08-03 18:08:00,79.7,28.0,30.03,NNW,338,6.7,6.7,15,0.00,,,0.00,VWS V14.01,2013-08-03 23:08:00,
2013-08-03 18:09:00,79.7,28.0,30.03,NW,315,2.7,5.8,15,0.00,,,0.00,VWS V14.01,2013-08-03 23:09:00,
2013-08-03 18:10:00,79.7,28.0,30.03,WNW,292,8.1,8.1,15,0.00,,,0.00,VWS V14.01,2013-08-03 23:10:00,
2013-08-03 18:11:00,79.7,28.0,30.03,NNW,338,3.4,5.8,15,0.00,,,0.00,VWS V14.01,2013-08-03 23:11:00,
2013-08-03 18:12:00,79.7,28.0,30.00,NW,315,4.0,5.8,15,0.00,,,0.00,VWS V14.01,2013-08-03 23:12:00,
2013-08-03 18:13:00,79.9,28.1,30.00,WSW,248,0.0,5.8,15,0.00,,,0.00,VWS V14.01,2013-08-03 23:13:00,
2013-08-03 18:14:00,79.9,28.1,30.00,NE,45,4.0,5.8,15,0.00,,,0.00,VWS V14.01,2013-08-03 23:14:00,
2013-08-03 18:15:00,80.1,28.3,30.00,SE,135,7.4,7.4,15,0.00,,,0.00,VWS V14.01,2013-08-03 23:15:00,
2013-08-03 18:16:00,80.1,28.3,30.00,NE,45,12.8,12.8,15,0.00,,,0.00,VWS V14.01,2013-08-03 23:16:00,
2013-08-03 18:17:00,79.9,28.1,30.00,NNW,338,11.4,11.4,15,0.00,,,0.00,VWS V14.01,2013-08-03 23:17:00,
2013-08-03 18:18:00,79.9,28.1,30.00,NNW,338,14.1,14.1,15,0.00,,,0.00,VWS V14.01,2013-08-03 23:18:00,
2013-08-03 18:19:00,79.2,27.6,30.00,NE,45,10.1,10.1,15,0.00,,,0.00,VWS V14.01,2013-08-03 23:19:00,
2013-08-03 18:20:00,79.0,27.4,30.00,North,0,7.4,7.4,15,0.00,,,0.00,VWS V14.01,2013-08-03 23:20:00,
2013-08-03 18:21:00,79.2,27.6,30.00,NNW,338,3.4,5.8,15,0.00,,,0.00,VWS V14.01,2013-08-03 23:21:00,
2013-08-03 18:22:00,79.0,27.4,30.00,NW,315,12.1,12.1,15,0.00,,,0.00,VWS V14.01,2013-08-03 23:22:00,
2013-08-03 18:23:00,78.8,27.3,30.00,NNE,22,11.4,11.4,15,0.00,,,0.00,VWS V14.01,2013-08-03 23:23:00,
2013-08-03 18:24:00,78.4,27.0,30.00,NE,45,11.4,11.4,15,0.00,,,0.00,VWS V14.01,2013-08-03 23:24:00,
2013-08-03 18:25:00,78.4,27.0,30.00,West,270,7.4,7.4,15,0.00,,,0.00,VWS V14.01,2013-08-03 23:25:00,
2013-08-03 18:26:00,78.4,27.0,30.00,NNE,22,6.0,6.0,15,0.00,,,0.00,VWS V14.01,2013-08-03 23:26:00,
2013-08-03 18:27:00,78.6,27.1,30.00,NW,315,8.7,8.7,15,0.00,,,0.00,VWS V14.01,2013-08-03 23:27:00,
2013-08-03 18:28:00,78.6,27.1,30.00,NNW,338,4.7,4.7,15,0.00,,,0.00,VWS V14.01,2013-08-03 23:28:00,
2013-08-03 18:29:00,78.8,27.3,30.00,NE,45,9.4,9.4,15,0.00,,,0.00,VWS V14.01,2013-08-03 23:29:00,
2013-08-03 18:30:00,78.8,27.3,30.00,North,0,11.4,11.4,15,0.00,,,0.00,VWS V14.01,2013-08-03 23:30:00,
2013-08-03 18:31:00,78.8,27.3,30.00,North,0,11.4,11.4,15,0.00,,,0.00,VWS V14.01,2013-08-03 23:31:00,
2013-08-03 18:32:00,78.8,27.3,30.00,WNW,292,4.7,4.7,15,0.00,,,0.00,VWS V14.01,2013-08-03 23:32:00,
2013-08-03 18:33:00,78.8,27.3,30.00,NW,315,9.4,9.4,15,0.00,,,0.00,VWS V14.01,2013-08-03 23:33:00,
2013-08-03 18:34:00,78.6,27.1,30.00,NE,45,11.4,11.4,15,0.00,,,0.00,VWS V14.01,2013-08-03 23:34:00,
2013-08-03 18:35:00,78.4,27.0,30.00,ENE,68,12.8,12.8,15,0.00,,,0.00,VWS V14.01,2013-08-03 23:35:00,
2013-08-03 18:36:00,78.4,27.0,30.00,East,90,7.4,7.4,15,0.00,,,0.00,VWS V14.01,2013-08-03 23:36:00,
2013-08-03 18:37:00,78.3,26.9,30.00,NNE,22,10.7,10.7,15,0.00,,,0.00,VWS V14.01,2013-08-03 23:37:00,
2013-08-03 18:38:00,78.3,26.9,30.00,NNW,338,14.1,14.1,15,0.00,,,0.00,VWS V14.01,2013-08-03 23:38:00,
2013-08-03 18:39:00,78.3,26.9,30.00,NW,315,13.4,13.4,15,0.00,,,0.00,VWS V14.01,2013-08-03 23:39:00,
2013-08-03 18:40:00,78.3,26.9,30.00,NW,315,11.4,11.4,15,0.00,,,0.00,VWS V14.01,2013-08-03 23:40:00,
2013-08-03 18:41:00,78.1,26.7,30.00,NNE,22,10.7,10.7,15,0.00,,,0.00,VWS V14.01,2013-08-03 23:41:00,
2013-08-03 18:42:00,78.3,26.9,30.00,NE,45,8.7,8.7,15,0.00,,,0.00,VWS V14.01,2013-08-03 23:42:00,
2013-08-03 18:43:00,78.3,26.9,30.00,NE,45,16.1,16.1,15,0.00,,,0.00,VWS V14.01,2013-08-03 23:43:00,
2013-08-03 18:44:00,78.3,26.9,30.00,North,0,8.7,8.7,15,0.00,,,0.00,VWS V14.01,2013-08-03 23:44:00,
2013-08-03 18:45:00,77.9,26.6,30.00,NNE,22,8.1,8.1,15,0.00,,,0.00,VWS V14.01,2013-08-03 23:45:00,
2013-08-03 18:46:00,77.7,26.4,30.00,NE,45,7.4,7.4,15,0.00,,,0.00,VWS V14.01,2013-08-03 23:46:00,
2013-08-03 18:47:00,77.5,26.3,30.00,NNW,338,9.4,9.4,15,0.00,,,0.00,VWS V14.01,2013-08-03 23:47:00,
2013-08-03 18:48:00,77.0,25.9,30.00,ENE,68,10.1,10.1,15,0.00,,,0.00,VWS V14.01,2013-08-03 23:48:00,
2013-08-03 18:49:00,77.0,25.9,30.00,NE,45,9.4,9.4,15,0.00,,,0.00,VWS V14.01,2013-08-03 23:49:00,
2013-08-03 18:50:00,76.8,25.7,30.00,NNE,22,10.1,10.1,15,0.00,,,0.00,VWS V14.01,2013-08-03 23:50:00,
2013-08-03 18:51:00,76.6,25.6,30.00,ENE,68,7.4,7.4,15,0.00,,,0.00,VWS V14.01,2013-08-03 23:51:00,
2013-08-03 18:52:00,76.6,25.6,30.00,NNW,338,11.4,11.4,15,0.00,,,0.00,VWS V14.01,2013-08-03 23:52:00,
2013-08-03 18:53:00,76.3,25.3,30.00,NNE,22,6.7,6.7,15,0.00,,,0.00,VWS V14.01,2013-08-03 23:53:00,
2013-08-03 18:54:00,76.1,25.1,30.00,NNE,22,7.4,7.4,15,0.00,,,0.00,VWS V14.01,2013-08-03 23:54:00,
2013-08-03 18:55:00,76.1,25.1,30.00,NE,45,8.1,8.1,15,0.00,,,0.00,VWS V14.01,2013-08-03 23:55:00,
2013-08-03 18:56:00,75.9,25.0,30.00,ENE,68,7.4,7.4,15,0.00,,,0.00,VWS V14.01,2013-08-03 23:56:00,
2013-08-03 18:57:00,75.6,24.7,30.00,NNE,22,10.7,10.7,15,0.00,,,0.00,VWS V14.01,2013-08-03 23:57:00,
2013-08-03 18:58:00,75.4,24.6,30.00,NW,315,8.1,8.1,15,0.00,,,0.00,VWS V14.01,2013-08-03 23:58:00,
2013-08-03 18:59:00,75.2,24.4,30.00,NW,315,6.0,6.0,15,0.00,,,0.00,VWS V14.01,2013-08-03 23:59:00,
2013-08-03 19:00:00,75.0,25.8,30.00,NE,45,8.7,8.7,16,0.00,,,0.00,VWS V14.01,2013-08-04 00:00:00,
2013-08-03 19:01:00,75.0,25.8,30.00,North,0,7.4,7.4,16,0.00,,,0.00,VWS V14.01,2013-08-04 00:01:00,
2013-08-03 19:02:00,74.8,25.7,30.00,NE,45,10.1,10.1,16,0.00,,,0.00,VWS V14.01,2013-08-04 00:02:00,
2013-08-03 19:03:00,74.8,25.7,30.00,NE,45,10.1,10.1,16,0.00,,,0.00,VWS V14.01,2013-08-04 00:03:00,
2013-08-03 19:04:00,74.8,25.7,30.00,SW,225,10.7,10.7,16,0.00,,,0.00,VWS V14.01,2013-08-04 00:04:00,
2013-08-03 19:05:00,74.5,25.4,30.00,NNW,338,8.7,8.7,16,0.00,,,0.00,VWS V14.01,2013-08-04 00:05:00,
2013-08-03 19:06:00,74.1,25.1,30.00,NNW,338,12.1,12.1,16,0.00,,,0.00,VWS V14.01,2013-08-04 00:06:00,
2013-08-03 19:07:00,74.1,25.1,30.00,NNE,22,12.1,12.1,16,0.00,,,0.00,VWS V14.01,2013-08-04 00:07:00,
2013-08-03 19:08:00,73.8,24.8,30.00,SW,225,11.4,11.4,16,0.00,,,0.00,VWS V14.01,2013-08-04 00:08:00,
2013-08-03 19:09:00,73.8,24.8,30.00,ENE,68,8.1,8.1,16,0.00,,,0.00,VWS V14.01,2013-08-04 00:09:00,
2013-08-03 19:10:00,73.8,24.8,30.00,North,0,12.8,12.8,16,0.00,,,0.00,VWS V14.01,2013-08-04 00:10:00,
2013-08-03 19:11:00,73.6,24.7,30.00,NE,45,8.1,8.1,16,0.00,,,0.00,VWS V14.01,2013-08-04 00:11:00,
2013-08-03 19:12:00,73.6,24.7,30.00,ENE,68,3.4,4.3,16,0.00,,,0.00,VWS V14.01,2013-08-04 00:12:00,
2013-08-03 19:13:00,73.6,24.7,30.00,NNE,22,7.4,7.4,16,0.00,,,0.00,VWS V14.01,2013-08-04 00:13:00,
2013-08-03 19:14:00,73.6,24.7,30.00,NW,315,6.0,6.0,16,0.00,,,0.00,VWS V14.01,2013-08-04 00:14:00,
2013-08-03 19:15:00,73.4,24.5,30.00,North,0,9.4,9.4,16,0.00,,,0.00,VWS V14.01,2013-08-04 00:15:00,
2013-08-03 19:16:00,73.4,24.5,30.00,NW,315,9.4,9.4,16,0.00,,,0.00,VWS V14.01,2013-08-04 00:16:00,
2013-08-03 19:17:00,73.2,24.4,30.00,North,0,9.4,9.4,16,0.00,,,0.00,VWS V14.01,2013-08-04 00:17:00,
2013-08-03 19:18:00,73.2,24.4,30.00,North,0,8.1,8.1,16,0.00,,,0.00,VWS V14.01,2013-08-04 00:18:00,
2013-08-03 19:19:00,73.2,24.4,30.00,ENE,68,11.4,11.4,16,0.00,,,0.00,VWS V14.01,2013-08-04 00:19:00,
2013-08-03 19:20:00,73.2,24.4,30.00,East,90,8.7,8.7,16,0.00,,,0.00,VWS V14.01,2013-08-04 00:20:00,
2013-08-03 19:21:00,73.0,24.2,30.00,North,0,11.4,11.4,16,0.00,,,0.00,VWS V14.01,2013-08-04 00:21:00,
2013-08-03 19:22:00,72.9,24.1,30.00,ENE,68,10.1,10.1,16,0.00,,,0.00,VWS V14.01,2013-08-04 00:22:00,
2013-08-03 19:23:00,72.9,24.1,30.00,NNE,22,10.7,10.7,16,0.00,,,0.00,VWS V14.01,2013-08-04 00:23:00,
2013-08-03 19:24:00,72.9,24.1,30.00,NW,315,10.7,10.7,16,0.00,,,0.00,VWS V14.01,2013-08-04 00:24:00,
2013-08-03 19:25:00,72.9,24.1,30.00,North,0,18.8,18.8,16,0.00,,,0.00,VWS V14.01,2013-08-04 00:25:00,
2013-08-03 19:26:00,72.7,23.9,30.00,NNW,338,10.7,10.7,16,0.00,,,0.00,VWS V14.01,2013-08-04 00:26:00,
2013-08-03 19:27:00,72.7,23.9,30.00,ENE,68,14.8,14.8,16,0.00,,,0.00,VWS V14.01,2013-08-04 00:27:00,
2013-08-03 19:28:00,72.7,23.9,30.00,NE,45,6.0,6.3,16,0.00,,,0.00,VWS V14.01,2013-08-04 00:28:00,
2013-08-03 19:29:00,72.5,23.8,30.00,ENE,68,4.7,6.3,16,0.00,,,0.00,VWS V14.01,2013-08-04 00:29:00,
2013-08-03 19:30:00,72.3,23.6,30.00,NE,45,7.4,7.4,16,0.00,,,0.00,VWS V14.01,2013-08-04 00:30:00,
2013-08-03 19:31:00,72.1,23.5,30.00,East,90,8.1,8.1,16,0.00,,,0.00,VWS V14.01,2013-08-04 00:31:00,
2013-08-03 19:32:00,72.1,23.5,30.00,NNE,22,8.7,8.7,16,0.00,,,0.00,VWS V14.01,2013-08-04 00:32:00,
2013-08-03 19:33:00,72.0,23.4,30.00,NE,45,8.1,8.1,16,0.00,,,0.00,VWS V14.01,2013-08-04 00:33:00,
2013-08-03 19:34:00,72.0,23.4,30.00,NE,45,7.4,7.4,16,0.00,,,0.00,VWS V14.01,2013-08-04 00:34:00,
2013-08-03 19:35:00,71.8,23.2,30.00,NE,45,6.0,6.3,16,0.00,,,0.00,VWS V14.01,2013-08-04 00:35:00,
2013-08-03 19:36:00,71.6,23.1,30.00,NNW,338,8.7,8.7,16,0.00,,,0.00,VWS V14.01,2013-08-04 00:36:00,
2013-08-03 19:37:00,71.4,24.4,30.00,NNE,22,8.1,8.1,17,0.00,,,0.00,VWS V14.01,2013-08-04 00:37:00,
2013-08-03 19:38:00,71.2,24.2,30.00,ENE,68,6.0,6.3,17,0.00,,,0.00,VWS V14.01,2013-08-04 00:38:00,
2013-08-03 19:39:00,71.2,24.2,30.00,ENE,68,6.0,6.3,17,0.00,,,0.00,VWS V14.01,2013-08-04 00:39:00,
2013-08-03 19:40:00,71.1,24.1,30.00,ENE,68,6.0,6.3,17,0.00,,,0.00,VWS V14.01,2013-08-04 00:40:00,
2013-08-03 19:41:00,71.1,26.8,30.00,NE,45,6.0,6.3,19,0.00,,,0.00,VWS V14.01,2013-08-04 00:41:00,
2013-08-03 19:42:00,70.9,26.6,30.00,NNE,22,8.1,8.1,19,0.00,,,0.00,VWS V14.01,2013-08-04 00:42:00,
2013-08-03 19:43:00,70.7,26.5,30.00,NNE,22,8.1,8.1,19,0.00,,,0.00,VWS V14.01,2013-08-04 00:43:00,
2013-08-03 19:44:00,70.5,26.3,30.00,NNE,22,8.1,8.1,19,0.00,,,0.00,VWS V14.01,2013-08-04 00:44:00,
2013-08-03 19:45:00,70.5,26.3,30.00,NNE,22,8.1,8.1,19,0.00,,,0.00,VWS V14.01,2013-08-04 00:45:00,
2013-08-03 19:46:00,70.5,26.3,30.00,NNE,22,8.1,8.1,19,0.00,,,0.00,VWS V14.01,2013-08-04 00:46:00,
2013-08-03 19:47:00,70.5,26.3,30.00,NNE,22,8.1,8.1,19,0.00,,,0.00,VWS V14.01,2013-08-04 00:47:00,
2013-08-03 19:48:00,70.3,26.2,30.00,NNE,22,8.1,8.1,19,0.00,,,0.00,VWS V14.01,2013-08-04 00:48:00,
2013-08-03 19:49:00,70.2,26.0,30.00,NNE,22,8.1,8.1,19,0.00,,,0.00,VWS V14.01,2013-08-04 00:49:00,
2013-08-03 19:50:00,70.2,26.0,30.00,NNE,22,8.1,8.1,19,0.00,,,0.00,VWS V14.01,2013-08-04 00:50:00,
2013-08-03 19:51:00,70.0,25.9,30.00,NNE,22,8.1,8.1,19,0.00,,,0.00,VWS V14.01,2013-08-04 00:51:00,
2013-08-03 19:52:00,70.0,25.9,30.00,NNE,22,8.1,8.1,19,0.00,,,0.00,VWS V14.01,2013-08-04 00:52:00,
2013-08-03 19:53:00,70.0,25.9,30.00,NNW,338,6.7,6.7,19,0.00,,,0.00,VWS V14.01,2013-08-04 00:53:00,
2013-08-03 19:54:00,70.0,25.9,30.00,NNW,338,6.7,6.7,19,0.00,,,0.00,VWS V14.01,2013-08-04 00:54:00,
2013-08-03 19:55:00,69.8,25.7,30.00,NNW,338,6.7,6.7,19,0.00,,,0.00,VWS V14.01,2013-08-04 00:55:00,
2013-08-03 19:56:00,69.8,25.7,30.00,NNW,338,6.7,6.7,19,0.00,,,0.00,VWS V14.01,2013-08-04 00:56:00,
2013-08-03 19:57:00,69.8,25.7,30.00,NNW,338,6.7,6.7,19,0.00,,,0.00,VWS V14.01,2013-08-04 00:57:00,
2013-08-03 19:58:00,69.8,25.7,30.00,NNW,338,6.7,6.7,19,0.00,,,0.00,VWS V14.01,2013-08-04 00:58:00,
2013-08-03 19:59:00,69.8,25.7,30.00,NNW,338,6.7,6.7,19,0.00,,,0.00,VWS V14.01,2013-08-04 00:59:00,
2013-08-03 20:00:00,69.8,25.7,30.00,NNW,338,6.7,6.7,19,0.00,,,0.00,VWS V14.01,2013-08-04 01:00:00,
2013-08-03 20:01:00,69.8,25.7,30.00,NNW,338,6.7,6.7,19,0.00,,,0.00,VWS V14.01,2013-08-04 01:01:00,
2013-08-03 20:02:00,69.8,25.7,30.00,NNW,338,6.7,6.7,19,0.00,,,0.00,VWS V14.01,2013-08-04 01:02:00,
2013-08-03 20:03:00,69.8,25.7,30.00,NNW,338,6.7,6.7,19,0.00,,,0.00,VWS V14.01,2013-08-04 01:03:00,
2013-08-03 20:04:00,69.6,26.8,30.00,NNW,338,6.7,6.7,20,0.00,,,0.00,VWS V14.01,2013-08-04 01:04:00,
2013-08-03 20:05:00,69.6,26.8,30.00,NNW,338,6.7,6.7,20,0.00,,,0.00,VWS V14.01,2013-08-04 01:05:00,
2013-08-03 20:06:00,69.6,29.1,30.00,NNW,338,6.7,6.7,22,0.00,,,0.00,VWS V14.01,2013-08-04 01:06:00,
2013-08-03 20:07:00,69.6,29.1,30.00,NNW,338,6.7,6.7,22,0.00,,,0.00,VWS V14.01,2013-08-04 01:07:00,
2013-08-03 20:08:00,69.6,29.1,30.00,North,0,9.4,9.4,22,0.00,,,0.00,VWS V14.01,2013-08-04 01:08:00,
2013-08-03 20:09:00,69.4,29.0,30.00,North,0,9.4,9.4,22,0.00,,,0.00,VWS V14.01,2013-08-04 01:09:00,
2013-08-03 20:10:00,69.4,29.0,30.00,North,0,9.4,9.4,22,0.00,,,0.00,VWS V14.01,2013-08-04 01:10:00,
2013-08-03 20:11:00,69.4,29.0,30.00,North,0,9.4,9.4,22,0.00,,,0.00,VWS V14.01,2013-08-04 01:11:00,
2013-08-03 20:12:00,69.4,29.0,30.00,North,0,9.4,9.4,22,0.00,,,0.00,VWS V14.01,2013-08-04 01:12:00,
2013-08-03 20:13:00,69.3,28.8,30.00,North,0,9.4,9.4,22,0.00,,,0.00,VWS V14.01,2013-08-04 01:13:00,
2013-08-03 20:14:00,69.4,29.0,30.00,North,0,9.4,9.4,22,0.00,,,0.00,VWS V14.01,2013-08-04 01:14:00,
2013-08-03 20:15:00,69.3,28.8,30.00,North,0,9.4,9.4,22,0.00,,,0.00,VWS V14.01,2013-08-04 01:15:00,
2013-08-03 20:16:00,69.3,28.8,30.00,North,0,9.4,9.4,22,0.00,,,0.00,VWS V14.01,2013-08-04 01:16:00,
2013-08-03 20:17:00,69.3,28.8,30.00,North,0,9.4,9.4,22,0.00,,,0.00,VWS V14.01,2013-08-04 01:17:00,
2013-08-03 20:18:00,69.1,28.7,30.00,North,0,9.4,9.4,22,0.00,,,0.00,VWS V14.01,2013-08-04 01:18:00,
2013-08-03 20:19:00,69.1,28.7,30.00,NNE,22,8.7,8.7,22,0.00,,,0.00,VWS V14.01,2013-08-04 01:19:00,
2013-08-03 20:20:00,69.1,28.7,30.00,NNE,22,8.7,8.7,22,0.00,,,0.00,VWS V14.01,2013-08-04 01:20:00,
2013-08-03 20:21:00,69.1,28.7,30.00,NNE,22,8.7,8.7,22,0.00,,,0.00,VWS V14.01,2013-08-04 01:21:00,
2013-08-03 20:22:00,68.9,28.5,30.00,NE,45,8.1,8.1,22,0.00,,,0.00,VWS V14.01,2013-08-04 01:22:00,
2013-08-03 20:23:00,68.9,28.5,30.00,NE,45,8.1,8.1,22,0.00,,,0.00,VWS V14.01,2013-08-04 01:23:00,
2013-08-03 20:24:00,68.7,28.4,30.00,NE,45,8.1,8.1,22,0.00,,,0.00,VWS V14.01,2013-08-04 01:24:00,
2013-08-03 20:25:00,68.7,28.4,30.00,NE,45,8.1,8.1,22,0.00,,,0.00,VWS V14.01,2013-08-04 01:25:00,
2013-08-03 20:26:00,68.7,28.4,30.00,NE,45,8.1,8.1,22,0.00,,,0.00,VWS V14.01,2013-08-04 01:26:00,
2013-08-03 20:27:00,68.7,28.4,30.00,NE,45,8.1,8.1,22,0.00,,,0.00,VWS V14.01,2013-08-04 01:27:00,
2013-08-03 20:28:00,68.5,28.2,30.00,NE,45,8.1,8.1,22,0.00,,,0.00,VWS V14.01,2013-08-04 01:28:00,
2013-08-03 20:29:00,68.5,28.2,30.00,NE,45,8.1,8.1,22,0.00,,,0.00,VWS V14.01,2013-08-04 01:29:00,
2013-08-03 20:30:00,68.5,28.2,30.00,NE,45,8.1,8.1,22,0.00,,,0.00,VWS V14.01,2013-08-04 01:30:00,
2013-08-03 20:31:00,68.5,28.2,30.00,NE,45,8.1,8.1,22,0.00,,,0.00,VWS V14.01,2013-08-04 01:31:00,
2013-08-03 20:32:00,68.5,28.2,30.00,NE,45,8.1,8.1,22,0.00,,,0.00,VWS V14.01,2013-08-04 01:32:00,
2013-08-03 20:33:00,68.2,27.9,30.00,NE,45,8.1,8.1,22,0.00,,,0.00,VWS V14.01,2013-08-04 01:33:00,
2013-08-03 20:34:00,68.2,27.9,30.00,ENE,68,6.7,6.7,22,0.00,,,0.00,VWS V14.01,2013-08-04 01:34:00,
2013-08-03 20:35:00,68.2,27.9,30.00,ENE,68,4.7,4.7,22,0.00,,,0.00,VWS V14.01,2013-08-04 01:35:00,
2013-08-03 20:36:00,68.2,27.9,30.00,NE,45,4.7,4.7,22,0.00,,,0.00,VWS V14.01,2013-08-04 01:36:00,
2013-08-03 20:37:00,68.2,27.9,30.00,ENE,68,10.1,10.1,22,0.00,,,0.00,VWS V14.01,2013-08-04 01:37:00,
2013-08-03 20:38:00,68.2,27.9,30.00,North,0,4.0,4.0,22,0.00,,,0.00,VWS V14.01,2013-08-04 01:38:00,
2013-08-03 20:39:00,68.0,27.8,30.00,NNW,338,6.0,6.0,22,0.00,,,0.00,VWS V14.01,2013-08-04 01:39:00,
2013-08-03 20:40:00,68.0,27.8,30.00,NE,45,0.0,3.4,22,0.00,,,0.00,VWS V14.01,2013-08-04 01:40:00,
2013-08-03 20:41:00,68.0,27.8,30.00,NE,45,0.0,3.4,22,0.00,,,0.00,VWS V14.01,2013-08-04 01:41:00,
2013-08-03 20:42:00,67.8,28.7,30.00,NE,45,0.0,3.4,23,0.00,,,0.00,VWS V14.01,2013-08-04 01:42:00,
2013-08-03 20:43:00,67.8,28.7,30.00,NE,45,4.0,4.0,23,0.00,,,0.00,VWS V14.01,2013-08-04 01:43:00,
2013-08-03 20:44:00,67.6,28.5,30.00,NE,45,2.7,3.4,23,0.00,,,0.00,VWS V14.01,2013-08-04 01:44:00,
2013-08-03 20:45:00,67.5,28.4,30.00,NE,45,3.4,3.4,23,0.00,,,0.00,VWS V14.01,2013-08-04 01:45:00,
2013-08-03 20:46:00,67.5,28.4,30.00,NNE,22,7.4,7.4,23,0.00,,,0.00,VWS V14.01,2013-08-04 01:46:00,
2013-08-03 20:47:00,67.5,28.4,30.00,NE,45,4.0,4.0,23,0.00,,,0.00,VWS V14.01,2013-08-04 01:47:00,
2013-08-03 20:48:00,67.5,28.4,30.00,NE,45,0.0,3.4,23,0.00,,,0.00,VWS V14.01,2013-08-04 01:48:00,
2013-08-03 20:49:00,67.3,28.2,30.00,West,270,4.0,4.0,23,0.00,,,0.00,VWS V14.01,2013-08-04 01:49:00,
2013-08-03 20:50:00,67.3,28.2,30.00,ENE,68,6.7,6.7,23,0.00,,,0.00,VWS V14.01,2013-08-04 01:50:00,
2013-08-03 20:51:00,67.3,28.2,30.00,NNW,338,9.4,9.4,23,0.00,,,0.00,VWS V14.01,2013-08-04 01:51:00,
2013-08-03 20:52:00,67.3,28.2,30.00,NNW,338,0.0,3.4,23,0.00,,,0.00,VWS V14.01,2013-08-04 01:52:00,
2013-08-03 20:53:00,67.3,28.2,30.00,NNW,338,0.0,3.4,23,0.00,,,0.00,VWS V14.01,2013-08-04 01:53:00,
2013-08-03 20:54:00,67.1,28.1,30.00,NNW,338,2.7,3.4,23,0.00,,,0.00,VWS V14.01,2013-08-04 01:54:00,
2013-08-03 20:55:00,67.1,28.1,30.00,NNW,338,2.7,3.4,23,0.00,,,0.00,VWS V14.01,2013-08-04 01:55:00,
2013-08-03 20:56:00,67.1,28.1,30.00,NNW,338,0.0,3.4,23,0.00,,,0.00,VWS V14.01,2013-08-04 01:56:00,
2013-08-03 20:57:00,66.9,27.9,30.00,ENE,68,4.0,4.0,23,0.00,,,0.00,VWS V14.01,2013-08-04 01:57:00,
2013-08-03 20:58:00,66.7,27.8,30.00,ENE,68,2.7,3.1,23,0.00,,,0.00,VWS V14.01,2013-08-04 01:58:00,
2013-08-03 20:59:00,66.7,27.8,30.00,North,0,8.1,8.1,23,0.00,,,0.00,VWS V14.01,2013-08-04 01:59:00,
2013-08-03 21:00:00,66.7,27.8,30.00,NW,315,4.7,4.7,23,0.00,,,0.00,VWS V14.01,2013-08-04 02:00:00,
2013-08-03 21:01:00,66.7,27.8,30.00,North,0,4.7,4.7,23,0.00,,,0.00,VWS V14.01,2013-08-04 02:01:00,
2013-08-03 21:02:00,66.7,27.8,30.00,North,0,3.4,3.4,23,0.00,,,0.00,VWS V14.01,2013-08-04 02:02:00,
2013-08-03 21:03:00,66.7,27.8,30.00,NE,45,4.0,4.0,23,0.00,,,0.00,VWS V14.01,2013-08-04 02:03:00,
2013-08-03 21:04:00,66.6,27.6,30.00,NNW,338,2.7,3.1,23,0.00,,,0.00,VWS V14.01,2013-08-04 02:04:00,
2013-08-03 21:05:00,66.6,27.6,30.00,North,0,2.7,3.1,23,0.00,,,0.00,VWS V14.01,2013-08-04 02:05:00,
2013-08-03 21:06:00,66.4,27.5,30.00,NNW,338,2.7,3.1,23,0.00,,,0.00,VWS V14.01,2013-08-04 02:06:00,
2013-08-03 21:07:00,66.4,27.5,30.00,NNW,338,3.4,3.4,23,0.00,,,0.00,VWS V14.01,2013-08-04 02:07:00,
2013-08-03 21:08:00,66.4,27.5,30.00,North,0,3.4,3.4,23,0.00,,,0.00,VWS V14.01,2013-08-04 02:08:00,
2013-08-03 21:09:00,66.2,27.3,30.00,North,0,4.7,4.7,23,0.00,,,0.00,VWS V14.01,2013-08-04 02:09:00,
2013-08-03 21:10:00,66.2,27.3,30.00,WSW,248,2.7,3.1,23,0.00,,,0.00,VWS V14.01,2013-08-04 02:10:00,
2013-08-03 21:11:00,66.0,27.2,30.00,NNE,22,0.0,2.7,23,0.00,,,0.00,VWS V14.01,2013-08-04 02:11:00,
2013-08-03 21:12:00,66.0,28.2,30.00,NNE,22,0.0,2.7,24,0.00,,,0.00,VWS V14.01,2013-08-04 02:12:00,
2013-08-03 21:13:00,65.8,28.1,30.00,NNE,22,0.0,2.7,24,0.00,,,0.00,VWS V14.01,2013-08-04 02:13:00,
2013-08-03 21:14:00,65.7,27.9,30.00,NNE,22,0.0,2.7,24,0.00,,,0.00,VWS V14.01,2013-08-04 02:14:00,
2013-08-03 21:15:00,65.5,27.8,30.00,North,0,0.0,2.7,24,0.00,,,0.00,VWS V14.01,2013-08-04 02:15:00,
2013-08-03 21:16:00,65.5,27.8,30.00,North,0,0.0,2.7,24,0.00,,,0.00,VWS V14.01,2013-08-04 02:16:00,
2013-08-03 21:17:00,65.5,27.8,30.00,North,0,0.0,2.7,24,0.00,,,0.00,VWS V14.01,2013-08-04 02:17:00,
2013-08-03 21:18:00,65.5,27.8,30.00,North,0,0.0,2.7,24,0.00,,,0.00,VWS V14.01,2013-08-04 02:18:00,
2013-08-03 21:19:00,65.5,27.8,30.00,North,0,0.0,1.6,24,0.00,,,0.00,VWS V14.01,2013-08-04 02:19:00,
2013-08-03 21:20:00,65.5,27.8,30.00,North,0,0.0,1.6,24,0.00,,,0.00,VWS V14.01,2013-08-04 02:20:00,
2013-08-03 21:21:00,65.5,27.8,30.00,North,0,0.0,1.6,24,0.00,,,0.00,VWS V14.01,2013-08-04 02:21:00,
2013-08-03 21:22:00,65.5,27.8,30.00,North,0,0.0,1.6,24,0.00,,,0.00,VWS V14.01,2013-08-04 02:22:00,
2013-08-03 21:23:00,65.5,27.8,30.00,North,0,0.0,1.6,24,0.00,,,0.00,VWS V14.01,2013-08-04 02:23:00,
2013-08-03 21:24:00,64.6,27.0,30.00,North,0,0.0,1.6,24,0.00,,,0.00,VWS V14.01,2013-08-04 02:24:00,
2013-08-03 21:25:00,64.6,27.0,30.00,North,0,0.0,1.6,24,0.00,,,0.00,VWS V14.01,2013-08-04 02:25:00,
2013-08-03 21:26:00,64.4,26.9,30.00,North,0,0.0,1.6,24,0.00,,,0.00,VWS V14.01,2013-08-04 02:26:00,
2013-08-03 21:27:00,64.4,26.9,30.00,North,0,0.0,1.6,24,0.00,,,0.00,VWS V14.01,2013-08-04 02:27:00,
2013-08-03 21:28:00,64.2,26.7,30.00,North,0,0.0,1.6,24,0.00,,,0.00,VWS V14.01,2013-08-04 02:28:00,
2013-08-03 21:29:00,64.2,26.7,30.00,North,0,0.0,0.9,24,0.00,,,0.00,VWS V14.01,2013-08-04 02:29:00,
2013-08-03 21:30:00,64.0,26.5,30.00,North,0,0.0,0.0,24,0.00,,,0.00,VWS V14.01,2013-08-04 02:30:00,
2013-08-03 21:31:00,63.9,27.4,30.00,North,0,0.0,0.0,25,0.00,,,0.00,VWS V14.01,2013-08-04 02:31:00,
2013-08-03 21:32:00,63.9,27.4,30.00,North,0,0.0,0.0,25,0.00,,,0.00,VWS V14.01,2013-08-04 02:32:00,
2013-08-03 21:33:00,63.7,27.2,30.00,North,0,0.0,0.0,25,0.00,,,0.00,VWS V14.01,2013-08-04 02:33:00,
2013-08-03 21:34:00,63.7,27.2,30.00,North,0,0.0,0.0,25,0.00,,,0.00,VWS V14.01,2013-08-04 02:34:00,
2013-08-03 21:35:00,63.5,27.1,30.00,North,0,0.0,0.0,25,0.00,,,0.00,VWS V14.01,2013-08-04 02:35:00,
2013-08-03 21:36:00,63.5,27.1,30.00,North,0,0.0,0.0,25,0.00,,,0.00,VWS V14.01,2013-08-04 02:36:00,
2013-08-03 21:37:00,63.3,26.9,30.00,North,0,0.0,0.0,25,0.00,,,0.00,VWS V14.01,2013-08-04 02:37:00,
2013-08-03 21:38:00,63.1,26.8,30.00,North,0,0.0,0.0,25,0.00,,,0.00,VWS V14.01,2013-08-04 02:38:00,
2013-08-03 21:39:00,63.0,26.6,30.00,North,0,0.0,0.0,25,0.00,,,0.00,VWS V14.01,2013-08-04 02:39:00,
2013-08-03 21:40:00,63.0,26.6,30.00,North,0,0.0,0.0,25,0.00,,,0.00,VWS V14.01,2013-08-04 02:40:00,
2013-08-03 21:41:00,62.8,26.5,30.00,North,0,0.0,0.0,25,0.00,,,0.00,VWS V14.01,2013-08-04 02:41:00,
2013-08-03 21:42:00,62.6,26.3,30.00,North,0,0.0,0.0,25,0.00,,,0.00,VWS V14.01,2013-08-04 02:42:00,
2013-08-03 21:43:00,62.6,26.3,30.00,North,0,0.0,0.0,25,0.00,,,0.00,VWS V14.01,2013-08-04 02:43:00,
2013-08-03 21:44:00,62.6,26.3,30.00,North,0,0.0,0.0,25,0.00,,,0.00,VWS V14.01,2013-08-04 02:44:00,
2013-08-03 21:45:00,62.4,27.1,30.00,North,0,0.0,0.0,26,0.00,,,0.00,VWS V14.01,2013-08-04 02:45:00,
2013-08-03 21:46:00,62.2,27.0,30.00,North,0,0.0,0.0,26,0.00,,,0.00,VWS V14.01,2013-08-04 02:46:00,
2013-08-03 21:47:00,62.2,27.0,30.00,North,0,0.0,0.0,26,0.00,,,0.00,VWS V14.01,2013-08-04 02:47:00,
2013-08-03 21:48:00,62.2,27.0,30.00,North,0,0.0,0.0,26,0.00,,,0.00,VWS V14.01,2013-08-04 02:48:00,
2013-08-03 21:49:00,62.2,27.0,30.00,North,0,0.0,0.0,26,0.00,,,0.00,VWS V14.01,2013-08-04 02:49:00,
2013-08-03 21:50:00,62.1,26.8,30.00,North,0,0.0,0.0,26,0.00,,,0.00,VWS V14.01,2013-08-04 02:50:00,
2013-08-03 21:51:00,62.1,27.7,30.00,North,0,0.0,0.0,27,0.00,,,0.00,VWS V14.01,2013-08-04 02:51:00,
2013-08-03 21:52:00,62.1,26.8,30.00,North,0,0.0,0.0,26,0.00,,,0.00,VWS V14.01,2013-08-04 02:52:00,
2013-08-03 21:53:00,62.1,26.8,30.00,North,0,0.0,0.0,26,0.00,,,0.00,VWS V14.01,2013-08-04 02:53:00,
2013-08-03 21:54:00,62.1,26.8,30.00,North,0,0.0,0.0,26,0.00,,,0.00,VWS V14.01,2013-08-04 02:54:00,
2013-08-03 21:55:00,61.9,27.6,30.00,North,0,0.0,0.0,27,0.00,,,0.00,VWS V14.01,2013-08-04 02:55:00,
2013-08-03 21:56:00,61.9,27.6,30.00,North,0,0.0,0.0,27,0.00,,,0.00,VWS V14.01,2013-08-04 02:56:00,
2013-08-03 21:57:00,61.9,27.6,30.03,North,0,0.0,0.0,27,0.00,,,0.00,VWS V14.01,2013-08-04 02:57:00,
2013-08-03 21:58:00,61.9,27.6,30.03,North,0,0.0,0.0,27,0.00,,,0.00,VWS V14.01,2013-08-04 02:58:00,
2013-08-03 21:59:00,61.7,27.4,30.03,North,0,0.0,0.0,27,0.00,,,0.00,VWS V14.01,2013-08-04 02:59:00,
2013-08-03 22:00:00,61.7,27.4,30.03,North,0,0.0,0.0,27,0.00,,,0.00,VWS V14.01,2013-08-04 03:00:00,
2013-08-03 22:01:00,61.7,27.4,30.03,North,0,0.0,0.0,27,0.00,,,0.00,VWS V14.01,2013-08-04 03:01:00,
2013-08-03 22:02:00,61.5,27.2,30.03,North,0,0.0,0.0,27,0.00,,,0.00,VWS V14.01,2013-08-04 03:02:00,
2013-08-03 22:03:00,61.5,27.2,30.03,North,0,0.0,0.0,27,0.00,,,0.00,VWS V14.01,2013-08-04 03:03:00,
2013-08-03 22:04:00,61.5,27.2,30.03,North,0,0.0,0.0,27,0.00,,,0.00,VWS V14.01,2013-08-04 03:04:00,
2013-08-03 22:05:00,61.3,28.0,30.03,NE,45,2.7,2.7,28,0.00,,,0.00,VWS V14.01,2013-08-04 03:05:00,
2013-08-03 22:06:00,61.3,27.1,30.03,NE,45,2.7,2.7,27,0.00,,,0.00,VWS V14.01,2013-08-04 03:06:00,
2013-08-03 22:07:00,61.3,27.1,30.03,NE,45,2.7,2.7,27,0.00,,,0.00,VWS V14.01,2013-08-04 03:07:00,
2013-08-03 22:08:00,61.2,27.8,30.03,NE,45,2.7,2.7,28,0.00,,,0.00,VWS V14.01,2013-08-04 03:08:00,
2013-08-03 22:09:00,61.2,27.8,30.03,NE,45,0.0,0.9,28,0.00,,,0.00,VWS V14.01,2013-08-04 03:09:00,
2013-08-03 22:10:00,61.2,27.8,30.03,NE,45,0.0,0.9,28,0.00,,,0.00,VWS V14.01,2013-08-04 03:10:00,
2013-08-03 22:11:00,61.0,27.7,30.03,NE,45,0.0,0.9,28,0.00,,,0.00,VWS V14.01,2013-08-04 03:11:00,
2013-08-03 22:12:00,61.0,27.7,30.00,NE,45,0.0,0.9,28,0.00,,,0.00,VWS V14.01,2013-08-04 03:12:00,
2013-08-03 22:13:00,61.0,28.5,30.00,NE,45,0.0,0.9,29,0.00,,,0.00,VWS V14.01,2013-08-04 03:13:00,
2013-08-03 22:14:00,60.8,28.4,30.00,NE,45,0.0,0.9,29,0.00,,,0.00,VWS V14.01,2013-08-04 03:14:00,
2013-08-03 22:15:00,60.8,28.4,30.00,NE,45,0.0,0.9,29,0.00,,,0.00,VWS V14.01,2013-08-04 03:15:00,
2013-08-03 22:16:00,60.8,28.4,30.00,NE,45,0.0,0.9,29,0.00,,,0.00,VWS V14.01,2013-08-04 03:16:00,
2013-08-03 22:17:00,60.6,29.0,30.00,NE,45,0.0,0.9,30,0.00,,,0.00,VWS V14.01,2013-08-04 03:17:00,
2013-08-03 22:18:00,60.8,28.4,30.00,NE,45,0.0,0.9,29,0.00,,,0.00,VWS V14.01,2013-08-04 03:18:00,
2013-08-03 22:19:00,60.6,29.0,30.00,NE,45,0.0,0.9,30,0.00,,,0.00,VWS V14.01,2013-08-04 03:19:00,
2013-08-03 22:20:00,60.6,29.0,30.00,NE,45,0.0,0.9,30,0.00,,,0.00,VWS V14.01,2013-08-04 03:20:00,
2013-08-03 22:21:00,60.8,29.2,30.00,North,0,0.0,0.9,30,0.00,,,0.00,VWS V14.01,2013-08-04 03:21:00,
2013-08-03 22:22:00,60.6,29.0,30.00,North,0,0.0,0.9,30,0.00,,,0.00,VWS V14.01,2013-08-04 03:22:00,
2013-08-03 22:23:00,60.6,29.0,30.00,North,0,0.0,0.9,30,0.00,,,0.00,VWS V14.01,2013-08-04 03:23:00,
2013-08-03 22:24:00,60.8,29.2,30.00,North,0,0.0,0.9,30,0.00,,,0.00,VWS V14.01,2013-08-04 03:24:00,
2013-08-03 22:25:00,60.8,29.2,30.00,North,0,0.0,0.9,30,0.00,,,0.00,VWS V14.01,2013-08-04 03:25:00,
2013-08-03 22:26:00,60.8,29.2,30.00,North,0,0.0,0.9,30,0.00,,,0.00,VWS V14.01,2013-08-04 03:26:00,
2013-08-03 22:27:00,60.8,29.2,30.03,North,0,0.0,0.9,30,0.00,,,0.00,VWS V14.01,2013-08-04 03:27:00,
2013-08-03 22:28:00,60.8,30.0,30.03,North,0,0.0,0.0,31,0.00,,,0.00,VWS V14.01,2013-08-04 03:28:00,
2013-08-03 22:29:00,60.8,29.2,30.03,North,0,0.0,0.0,30,0.00,,,0.00,VWS V14.01,2013-08-04 03:29:00,
2013-08-03 22:30:00,61.0,30.2,30.03,North,0,0.0,0.0,31,0.00,,,0.00,VWS V14.01,2013-08-04 03:30:00,
2013-08-03 22:31:00,61.0,30.2,30.03,North,0,0.0,0.0,31,0.00,,,0.00,VWS V14.01,2013-08-04 03:31:00,
2013-08-03 22:32:00,61.0,30.2,30.03,North,0,2.7,2.7,31,0.00,,,0.00,VWS V14.01,2013-08-04 03:32:00,
2013-08-03 22:33:00,61.2,30.3,30.03,North,0,2.7,2.7,31,0.00,,,0.00,VWS V14.01,2013-08-04 03:33:00,
2013-08-03 22:34:00,61.2,30.3,30.03,North,0,4.0,4.0,31,0.00,,,0.00,VWS V14.01,2013-08-04 03:34:00,
2013-08-03 22:35:00,61.2,30.3,30.03,North,0,4.0,4.0,31,0.00,,,0.00,VWS V14.01,2013-08-04 03:35:00,
2013-08-03 22:36:00,61.2,30.3,30.03,SSW,202,3.4,3.4,31,0.00,,,0.00,VWS V14.01,2013-08-04 03:36:00,
2013-08-03 22:37:00,61.3,30.5,30.03,ENE,68,2.7,2.7,31,0.00,,,0.00,VWS V14.01,2013-08-04 03:37:00,
2013-08-03 22:38:00,61.3,31.2,30.03,ENE,68,0.0,1.3,32,0.00,,,0.00,VWS V14.01,2013-08-04 03:38:00,
2013-08-03 22:39:00,61.3,30.5,30.03,ENE,68,0.0,1.3,31,0.00,,,0.00,VWS V14.01,2013-08-04 03:39:00,
2013-08-03 22:40:00,61.3,31.2,30.03,NE,45,4.7,4.7,32,0.00,,,0.00,VWS V14.01,2013-08-04 03:40:00,
2013-08-03 22:41:00,61.3,31.2,30.03,NE,45,6.7,6.7,32,0.00,,,0.00,VWS V14.01,2013-08-04 03:41:00,
2013-08-03 22:42:00,61.3,31.2,30.03,NE,45,6.7,6.7,32,0.00,,,0.00,VWS V14.01,2013-08-04 03:42:00,
2013-08-03 22:43:00,61.5,31.4,30.03,NE,45,0.0,2.2,32,0.00,,,0.00,VWS V14.01,2013-08-04 03:43:00,
2013-08-03 22:44:00,61.5,31.4,30.03,NNE,22,3.4,3.4,32,0.00,,,0.00,VWS V14.01,2013-08-04 03:44:00,
2013-08-03 22:45:00,61.7,31.6,30.03,NNE,22,3.4,3.4,32,0.00,,,0.00,VWS V14.01,2013-08-04 03:45:00,
2013-08-03 22:46:00,61.7,31.6,30.03,NNE,22,0.0,2.2,32,0.00,,,0.00,VWS V14.01,2013-08-04 03:46:00,
2013-08-03 22:47:00,61.7,31.6,30.03,NE,45,0.0,2.2,32,0.00,,,0.00,VWS V14.01,2013-08-04 03:47:00,
2013-08-03 22:48:00,61.7,31.6,30.03,NE,45,0.0,2.2,32,0.00,,,0.00,VWS V14.01,2013-08-04 03:48:00,
2013-08-03 22:49:00,61.7,31.6,30.03,NNE,22,3.4,3.4,32,0.00,,,0.00,VWS V14.01,2013-08-04 03:49:00,
2013-08-03 22:50:00,61.7,31.6,30.03,NE,45,0.0,2.2,32,0.00,,,0.00,VWS V14.01,2013-08-04 03:50:00,
2013-08-03 22:51:00,61.7,31.6,30.03,NE,45,0.0,2.2,32,0.00,,,0.00,VWS V14.01,2013-08-04 03:51:00,
2013-08-03 22:52:00,61.7,31.6,30.03,NE,45,4.7,4.7,32,0.00,,,0.00,VWS V14.01,2013-08-04 03:52:00,
2013-08-03 22:53:00,61.7,31.6,30.03,NE,45,4.7,4.7,32,0.00,,,0.00,VWS V14.01,2013-08-04 03:53:00,
2013-08-03 22:54:00,61.7,31.6,30.03,North,0,3.4,3.4,32,0.00,,,0.00,VWS V14.01,2013-08-04 03:54:00,
2013-08-03 22:55:00,61.7,31.6,30.03,North,0,3.4,3.4,32,0.00,,,0.00,VWS V14.01,2013-08-04 03:55:00,
2013-08-03 22:56:00,61.7,31.6,30.03,North,0,3.4,3.4,32,0.00,,,0.00,VWS V14.01,2013-08-04 03:56:00,
2013-08-03 22:57:00,61.7,31.6,30.03,North,0,3.4,3.4,32,0.00,,,0.00,VWS V14.01,2013-08-04 03:57:00,
2013-08-03 22:58:00,61.7,31.6,30.03,North,0,0.0,2.2,32,0.00,,,0.00,VWS V14.01,2013-08-04 03:58:00,
2013-08-03 22:59:00,61.7,31.6,30.03,North,0,0.0,2.2,32,0.00,,,0.00,VWS V14.01,2013-08-04 03:59:00,
2013-08-03 23:00:00,61.7,31.6,30.03,North,0,0.0,2.2,32,0.00,,,0.00,VWS V14.01,2013-08-04 04:00:00,
2013-08-03 23:01:00,61.7,31.6,30.03,North,0,0.0,2.2,32,0.00,,,0.00,VWS V14.01,2013-08-04 04:01:00,
2013-08-03 23:02:00,61.7,31.6,30.03,NNE,22,0.0,1.6,32,0.00,,,0.00,VWS V14.01,2013-08-04 04:02:00,
2013-08-03 23:03:00,61.7,31.6,30.03,NNE,22,0.0,1.6,32,0.00,,,0.00,VWS V14.01,2013-08-04 04:03:00,
2013-08-03 23:04:00,61.5,31.4,30.03,NNE,22,0.0,1.6,32,0.00,,,0.00,VWS V14.01,2013-08-04 04:04:00,
2013-08-03 23:05:00,61.5,31.4,30.03,North,0,2.7,2.7,32,0.00,,,0.00,VWS V14.01,2013-08-04 04:05:00,
2013-08-03 23:06:00,61.5,31.4,30.03,North,0,2.7,2.7,32,0.00,,,0.00,VWS V14.01,2013-08-04 04:06:00,
2013-08-03 23:07:00,61.3,31.2,30.03,NNE,22,6.7,6.7,32,0.00,,,0.00,VWS V14.01,2013-08-04 04:07:00,
2013-08-03 23:08:00,61.3,31.2,30.03,NNE,22,0.0,2.2,32,0.00,,,0.00,VWS V14.01,2013-08-04 04:08:00,
2013-08-03 23:09:00,61.3,31.2,30.03,NNE,22,0.0,2.2,32,0.00,,,0.00,VWS V14.01,2013-08-04 04:09:00,
2013-08-03 23:10:00,61.3,32.0,30.03,NNE,22,0.0,2.2,33,0.00,,,0.00,VWS V14.01,2013-08-04 04:10:00,
2013-08-03 23:11:00,61.3,31.2,30.03,NNE,22,0.0,2.2,32,0.00,,,0.00,VWS V14.01,2013-08-04 04:11:00,
2013-08-03 23:12:00,61.3,31.2,30.03,ENE,68,3.4,3.4,32,0.00,,,0.00,VWS V14.01,2013-08-04 04:12:00,
2013-08-03 23:13:00,61.2,31.9,30.03,ENE,68,3.4,3.4,33,0.00,,,0.00,VWS V14.01,2013-08-04 04:13:00,
2013-08-03 23:14:00,61.2,31.9,30.03,NNE,22,4.0,4.0,33,0.00,,,0.00,VWS V14.01,2013-08-04 04:14:00,
2013-08-03 23:15:00,61.2,31.9,30.03,NNE,22,7.4,7.4,33,0.00,,,0.00,VWS V14.01,2013-08-04 04:15:00,
2013-08-03 23:16:00,61.2,31.9,30.03,NE,45,3.4,3.4,33,0.00,,,0.00,VWS V14.01,2013-08-04 04:16:00,
2013-08-03 23:17:00,61.0,31.7,30.03,NE,45,3.4,3.4,33,0.00,,,0.00,VWS V14.01,2013-08-04 04:17:00,
2013-08-03 23:18:00,61.0,31.7,30.03,NE,45,0.0,2.5,33,0.00,,,0.00,VWS V14.01,2013-08-04 04:18:00,
2013-08-03 23:19:00,61.0,31.7,30.03,NE,45,0.0,2.5,33,0.00,,,0.00,VWS V14.01,2013-08-04 04:19:00,
2013-08-03 23:20:00,61.0,31.7,30.03,NE,45,0.0,2.5,33,0.00,,,0.00,VWS V14.01,2013-08-04 04:20:00,
2013-08-03 23:21:00,60.8,31.5,30.03,ENE,68,3.4,3.4,33,0.00,,,0.00,VWS V14.01,2013-08-04 04:21:00,
2013-08-03 23:22:00,60.8,31.5,30.03,ENE,68,3.4,3.4,33,0.00,,,0.00,VWS V14.01,2013-08-04 04:22:00,
2013-08-03 23:23:00,60.6,32.1,30.03,ENE,68,3.4,3.4,34,0.00,,,0.00,VWS V14.01,2013-08-04 04:23:00,
2013-08-03 23:24:00,60.6,32.1,30.03,North,0,0.0,2.5,34,0.00,,,0.00,VWS V14.01,2013-08-04 04:24:00,
2013-08-03 23:25:00,60.6,32.1,30.03,North,0,0.0,2.5,34,0.00,,,0.00,VWS V14.01,2013-08-04 04:25:00,
2013-08-03 23:26:00,60.6,32.1,30.03,East,90,0.0,2.5,34,0.00,,,0.00,VWS V14.01,2013-08-04 04:26:00,
2013-08-03 23:27:00,60.4,32.0,30.03,NNE,22,3.4,3.4,34,0.00,,,0.00,VWS V14.01,2013-08-04 04:27:00,
2013-08-03 23:28:00,60.4,32.0,30.03,East,90,4.7,4.7,34,0.00,,,0.00,VWS V14.01,2013-08-04 04:28:00,
2013-08-03 23:29:00,60.4,32.0,30.03,NNE,22,4.0,4.0,34,0.00,,,0.00,VWS V14.01,2013-08-04 04:29:00,
2013-08-03 23:30:00,60.4,32.0,30.03,NNW,338,0.0,2.5,34,0.00,,,0.00,VWS V14.01,2013-08-04 04:30:00,
2013-08-03 23:31:00,60.4,32.0,30.03,North,0,2.7,2.7,34,0.00,,,0.00,VWS V14.01,2013-08-04 04:31:00,
2013-08-03 23:32:00,60.4,32.0,30.03,North,0,0.0,2.5,34,0.00,,,0.00,VWS V14.01,2013-08-04 04:32:00,
2013-08-03 23:33:00,60.4,32.0,30.03,NW,315,2.7,2.7,34,0.00,,,0.00,VWS V14.01,2013-08-04 04:33:00,
2013-08-03 23:34:00,60.4,32.0,30.03,NW,315,0.0,2.5,34,0.00,,,0.00,VWS V14.01,2013-08-04 04:34:00,
2013-08-03 23:35:00,60.4,32.0,30.03,NE,45,0.0,1.6,34,0.00,,,0.00,VWS V14.01,2013-08-04 04:35:00,
2013-08-03 23:36:00,60.4,32.0,30.03,NNW,338,2.7,2.7,34,0.00,,,0.00,VWS V14.01,2013-08-04 04:36:00,
2013-08-03 23:37:00,60.3,31.8,30.03,NNW,338,2.7,2.7,34,0.00,,,0.00,VWS V14.01,2013-08-04 04:37:00,
2013-08-03 23:38:00,60.4,32.0,30.03,NNW,338,2.7,2.7,34,0.00,,,0.00,VWS V14.01,2013-08-04 04:38:00,
2013-08-03 23:39:00,60.4,32.0,30.03,NNW,338,2.7,2.7,34,0.00,,,0.00,VWS V14.01,2013-08-04 04:39:00,
2013-08-03 23:40:00,60.4,32.0,30.03,NNW,338,2.7,2.7,34,0.00,,,0.00,VWS V14.01,2013-08-04 04:40:00,
2013-08-03 23:41:00,60.3,31.8,30.03,NNW,338,2.7,2.7,34,0.00,,,0.00,VWS V14.01,2013-08-04 04:41:00,
2013-08-03 23:42:00,60.3,31.8,30.03,NNW,338,2.7,2.7,34,0.00,,,0.00,VWS V14.01,2013-08-04 04:42:00,
2013-08-03 23:43:00,60.3,31.8,30.03,NNW,338,2.7,2.7,34,0.00,,,0.00,VWS V14.01,2013-08-04 04:43:00,
2013-08-03 23:44:00,60.3,31.8,30.03,NNW,338,2.7,2.7,34,0.00,,,0.00,VWS V14.01,2013-08-04 04:44:00,
2013-08-03 23:45:00,60.3,31.8,30.03,NNW,338,2.7,2.7,34,0.00,,,0.00,VWS V14.01,2013-08-04 04:45:00,
2013-08-03 23:46:00,60.1,31.6,30.03,NNW,338,2.7,2.7,34,0.00,,,0.00,VWS V14.01,2013-08-04 04:46:00,
2013-08-03 23:47:00,60.1,31.6,30.03,NNW,338,2.7,2.7,34,0.00,,,0.00,VWS V14.01,2013-08-04 04:47:00,
2013-08-03 23:48:00,59.9,31.5,30.03,NNW,338,2.7,2.7,34,0.00,,,0.00,VWS V14.01,2013-08-04 04:48:00,
2013-08-03 23:49:00,59.9,31.5,30.03,NNW,338,2.7,2.7,34,0.00,,,0.00,VWS V14.01,2013-08-04 04:49:00,
2013-08-03 23:50:00,59.7,31.3,30.03,NNW,338,2.7,2.7,34,0.00,,,0.00,VWS V14.01,2013-08-04 04:50:00,
2013-08-03 23:51:00,59.7,31.3,30.03,NNW,338,2.7,2.7,34,0.00,,,0.00,VWS V14.01,2013-08-04 04:51:00,
2013-08-03 23:52:00,59.7,31.3,30.03,NNW,338,2.7,2.7,34,0.00,,,0.00,VWS V14.01,2013-08-04 04:52:00,
2013-08-03 23:53:00,59.7,31.3,30.03,NNW,338,2.7,2.7,34,0.00,,,0.00,VWS V14.01,2013-08-04 04:53:00,
2013-08-03 23:54:00,59.7,31.3,30.03,NNW,338,2.7,2.7,34,0.00,,,0.00,VWS V14.01,2013-08-04 04:54:00,
2013-08-03 23:55:00,59.7,32.0,30.03,NNW,338,2.7,2.7,35,0.00,,,0.00,VWS V14.01,2013-08-04 04:55:00,
2013-08-03 23:56:00,59.7,31.3,30.03,NNW,338,2.7,2.7,34,0.00,,,0.00,VWS V14.01,2013-08-04 04:56:00,
2013-08-03 23:57:00,59.7,31.3,30.06,NNW,338,2.7,2.7,34,0.00,,,0.00,VWS V14.01,2013-08-04 04:57:00,
2013-08-03 23:58:00,59.5,31.9,30.06,NNW,338,2.7,2.7,35,0.00,,,0.00,VWS V14.01,2013-08-04 04:58:00,
2013-08-03 23:59:00,59.5,31.9,30.06,NNW,338,2.7,2.7,35,0.00,,,0.00,VWS V14.01,2013-08-04 04:59:00,